[[{"header":{"parameterUnit":"m.s-1","parameterCategory":1,"la1":30.6,"la2":29.2853,"lo1":-89.7004,"lo2":-87.6739,"dy":0.0162,"dx":0.0183,"nx":112,"ny":82,"refTime":"2024-08-24T18:00:00:Z","depth":0,"parameterNumber":2,"parameterNumberName":"U-component_of_WINDS"},"data":[0.0,0.0,0.0,0.0,0.0,0.0,0.0,0.0,0.0,0.0,0.0,0.0,0.0,0.0,0.0,0.0,0.0,0.0,0.0,0.0,0.0,0.0,0.0,0.0,0.0,0.0,0.0,0.0,0.0,0.0,0.0,0.0,0.0,0.0,0.0,0.0,0.0,0.0,0.0,0.0,0.0,0.0,0.0,0.0,0.0,0.0,0.0,0.0,0.0,0.0,0.0,0.0,0.0,0.0,0.0,0.0,0.0,0.0,0.0,0.0,0.0,0.0,0.0,0.0,0.0,0.0,0.0,0.0,0.0,0.0,0.0,0.0,0.0,0.0,0.0,0.0,0.0,0.0,0.0,0.0,0.0,0.0,0.0,0.0,0.0,0.0,0.0,0.0,0.0,0.0,-1.0894,-1.3095,-1.5859,-1.7185,-1.6304,-1.6154,-1.4531,-1.0861,0.0,0.0,0.0,0.0,0.0,0.0,0.0,0.0,0.0,0.0,0.0,0.0,0.0,0.0,0.0,0.0,0.0,0.0,0.0,0.0,0.0,0.0,0.0,0.0,0.0,0.0,0.0,0.0,0.0,0.0,0.0,0.0,0.0,0.0,0.0,0.0,0.0,0.0,0.0,0.0,0.0,0.0,0.0,0.0,0.0,0.0,0.0,0.0,0.0,0.0,0.0,0.0,0.0,0.0,0.0,0.0,0.0,0.0,0.0,0.0,0.0,0.0,0.0,0.0,0.0,0.0,0.0,0.0,0.0,0.0,0.0,0.0,0.0,0.0,0.0,0.0,0.0,0.0,0.0,0.0,0.0,0.0,0.0,0.0,0.0,0.0,0.0,0.0,0.0,0.0,0.0,0.0,0.0,0.0,0.0,0.0,0.0,0.0,0.0,0.0,0.0,0.0,0.0,0.0,-1.1656,-1.5292,-1.6941,-1.7494,-1.6823,-1.6356,-1.458,-1.0997,0.0,0.0,0.0,0.0,0.0,0.0,0.0,0.0,0.0,0.0,0.0,0.0,0.0,0.0,0.0,0.0,0.0,0.0,0.0,0.0,0.0,0.0,0.0,0.0,0.0,0.0,0.0,0.0,0.0,0.0,0.0,0.0,0.0,0.0,0.0,0.0,0.0,0.0,0.0,0.0,0.0,0.0,0.0,0.0,0.0,0.0,0.0,0.0,0.0,0.0,0.0,0.0,0.0,0.0,0.0,0.0,0.0,0.0,0.0,0.0,0.0,0.0,0.0,0.0,0.0,0.0,0.0,0.0,0.0,0.0,0.0,0.0,0.0,0.0,0.0,0.0,0.0,0.0,0.0,0.0,0.0,0.0,0.0,0.0,0.0,0.0,0.0,0.0,0.0,0.0,0.0,0.0,0.0,0.0,0.0,0.0,0.0,0.0,0.0,0.0,0.0,0.0,0.0,-1.071,-1.2969,-1.5834,-1.7172,-1.7487,-1.655,-1.6231,-1.4547,-1.0923,-1.056,0.0,0.0,0.0,0.0,0.0,0.0,0.0,0.0,0.0,0.0,0.0,0.0,0.0,0.0,0.0,0.0,0.0,0.0,0.0,0.0,0.0,0.0,0.0,0.0,0.0,0.0,0.0,0.0,0.0,0.0,0.0,0.0,0.0,0.0,0.0,0.0,0.0,0.0,0.0,0.0,0.0,0.0,0.0,0.0,0.0,0.0,0.0,0.0,0.0,0.0,0.0,0.0,0.0,0.0,0.0,0.0,0.0,0.0,0.0,0.0,0.0,0.0,0.0,0.0,0.0,0.0,0.0,0.0,0.0,0.0,0.0,0.0,0.0,0.0,0.0,0.0,0.0,0.0,0.0,0.0,0.0,0.0,0.0,0.0,0.0,0.0,0.0,0.0,0.0,0.0,0.0,0.0,0.0,0.0,0.0,0.0,0.0,0.0,0.0,0.0,0.0,0.0,-1.2586,-1.4232,-1.6062,-1.7279,-1.7478,-1.6282,-1.5842,-1.42,-1.081,-1.0208,0.0,0.0,0.0,0.0,0.0,0.0,0.0,0.0,0.0,0.0,0.0,0.0,0.0,0.0,0.0,0.0,0.0,0.0,0.0,0.0,0.0,0.0,0.0,0.0,0.0,0.0,0.0,0.0,0.0,0.0,0.0,0.0,0.0,0.0,0.0,0.0,0.0,0.0,0.0,0.0,0.0,0.0,0.0,0.0,0.0,0.0,0.0,0.0,0.0,0.0,0.0,0.0,0.0,0.0,0.0,0.0,0.0,0.0,0.0,0.0,0.0,0.0,0.0,0.0,0.0,0.0,0.0,0.0,0.0,0.0,0.0,0.0,0.0,0.0,0.0,0.0,0.0,0.0,0.0,0.0,0.0,0.0,0.0,0.0,0.0,0.0,0.0,0.0,0.0,0.0,0.0,0.0,0.0,0.0,0.0,0.0,0.0,0.0,0.0,0.0,0.0,0.0,-1.2981,-1.5052,-1.6501,-1.7579,-1.7686,-1.6466,-1.5114,-1.3273,-1.0757,-0.9023,0.0,0.0,0.0,0.0,0.0,0.0,0.0,0.0,0.0,0.0,0.0,0.0,0.0,0.0,0.0,0.0,0.0,0.0,0.0,0.0,0.0,0.0,0.0,0.0,0.0,0.0,0.0,0.0,0.0,0.0,0.0,0.0,0.0,0.0,0.0,0.0,0.0,0.0,0.0,0.0,0.0,0.0,0.0,0.0,0.0,0.0,0.0,0.0,0.0,0.0,0.0,0.0,0.0,0.0,0.0,0.0,0.0,0.0,0.0,0.0,0.0,0.0,0.0,0.0,0.0,0.0,0.0,0.0,0.0,0.0,0.0,0.0,0.0,0.0,0.0,0.0,0.0,0.0,0.0,0.0,0.0,0.0,0.0,0.0,0.0,0.0,0.0,0.0,0.0,0.0,0.0,0.0,0.0,0.0,0.0,0.0,0.0,0.0,0.0,0.0,0.0,0.0,-1.2747,-1.4711,0.0,-1.7712,-1.7897,-1.6687,-1.5691,-1.3877,-1.0906,0.0,0.0,0.0,0.0,0.0,0.0,0.0,0.0,0.0,0.0,0.0,0.0,0.0,0.0,0.0,0.0,0.0,0.0,0.0,0.0,0.0,0.0,0.0,0.0,0.0,0.0,0.0,0.0,0.0,0.0,0.0,0.0,0.0,0.0,0.0,0.0,0.0,0.0,0.0,0.0,0.0,0.0,0.0,0.0,0.0,0.0,0.0,0.0,0.0,0.0,0.0,0.0,0.0,0.0,0.0,0.0,0.0,0.0,0.0,0.0,0.0,0.0,0.0,0.0,0.0,0.0,0.0,0.0,0.0,0.0,0.0,0.0,0.0,0.0,0.0,0.0,0.0,0.0,0.0,0.0,0.0,0.0,0.0,0.0,0.0,0.0,0.0,0.0,0.0,0.0,0.0,0.0,0.0,0.0,0.0,0.0,0.0,0.0,0.0,0.0,0.0,0.0,-1.0777,-1.2647,-1.4553,0.0,-1.7472,-1.7623,-1.6779,-1.5553,-1.3696,-1.1024,0.0,0.0,0.0,0.0,0.0,0.0,0.0,0.0,0.0,0.0,0.0,0.0,0.0,0.0,0.0,0.0,0.0,0.0,0.0,0.0,0.0,0.0,0.0,0.0,0.0,0.0,0.0,0.0,0.0,0.0,0.0,0.0,0.0,0.0,0.0,0.0,0.0,0.0,0.0,0.0,0.0,0.0,0.0,0.0,0.0,0.0,0.0,0.0,0.0,0.0,0.0,0.0,0.0,0.0,0.0,0.0,0.0,0.0,0.0,0.0,0.0,0.0,0.0,0.0,0.0,0.0,0.0,0.0,0.0,0.0,0.0,0.0,0.0,0.0,0.0,0.0,0.0,0.0,0.0,0.0,0.0,0.0,0.0,0.0,0.0,0.0,0.0,0.0,0.0,0.0,0.0,0.0,0.0,0.0,0.0,0.0,0.0,0.0,0.0,0.0,0.0,0.0,-1.0846,-1.2796,-1.4719,-1.6584,-1.6799,-1.6764,-1.6694,-1.4416,-1.2448,0.0,0.0,0.0,0.0,0.0,0.0,0.0,0.0,0.0,0.0,0.0,0.0,0.0,0.0,0.0,0.0,0.0,0.0,0.0,0.0,0.0,0.0,0.0,0.0,0.0,0.0,0.0,0.0,0.0,0.0,0.0,0.0,0.0,0.0,0.0,0.0,0.0,0.0,0.0,0.0,0.0,0.0,0.0,0.0,0.0,0.0,0.0,0.0,0.0,0.0,0.0,0.0,0.0,0.0,0.0,0.0,0.0,0.0,0.0,0.0,0.0,0.0,0.0,0.0,0.0,0.0,0.0,0.0,0.0,0.0,0.0,0.0,0.0,0.0,0.0,0.0,0.0,0.0,0.0,0.0,0.0,0.0,0.0,0.0,0.0,0.0,0.0,0.0,0.0,0.0,0.0,0.0,0.0,0.0,0.0,0.0,0.0,0.0,0.0,0.0,0.0,0.0,0.0,-1.1053,-1.3245,-1.5095,-1.6137,-1.6619,-1.667,-1.6174,-1.4647,-1.2925,-1.1115,0.0,0.0,0.0,0.0,0.0,0.0,0.0,0.0,0.0,0.0,0.0,0.0,0.0,0.0,0.0,0.0,0.0,0.0,0.0,0.0,0.0,0.0,0.0,0.0,0.0,0.0,0.0,0.0,0.0,0.0,0.0,0.0,0.0,0.0,0.0,0.0,0.0,0.0,0.0,0.0,0.0,0.0,0.0,0.0,0.0,0.0,0.0,0.0,0.0,0.0,0.0,0.0,0.0,0.0,0.0,0.0,0.0,0.0,0.0,0.0,0.0,0.0,0.0,0.0,0.0,0.0,0.0,0.0,0.0,0.0,0.0,0.0,0.0,0.0,0.0,0.0,0.0,0.0,0.0,0.0,0.0,0.0,0.0,0.0,0.0,0.0,0.0,0.0,0.0,0.0,0.0,0.0,0.0,0.0,0.0,0.0,0.0,0.0,0.0,0.0,0.0,0.0,-1.117,-1.3497,-1.5417,-1.6334,-1.6517,-1.6513,-1.6315,-1.4908,-1.3303,-1.1599,0.0,0.0,0.0,0.0,0.0,0.0,0.0,0.0,0.0,0.0,0.0,0.0,0.0,0.0,0.0,0.0,0.0,0.0,0.0,0.0,0.0,0.0,0.0,0.0,0.0,0.0,0.0,0.0,0.0,0.0,0.0,0.0,0.0,0.0,0.0,0.0,0.0,0.0,0.0,0.0,0.0,0.0,0.0,0.0,0.0,0.0,0.0,0.0,0.0,0.0,0.0,0.0,0.0,0.0,0.0,0.0,0.0,0.0,0.0,0.0,0.0,0.0,0.0,0.0,0.0,0.0,0.0,0.0,0.0,0.0,0.0,0.0,0.0,0.0,0.0,0.0,0.0,0.0,0.0,0.0,0.0,0.0,0.0,0.0,0.0,0.0,0.0,0.0,0.0,0.0,0.0,0.0,0.0,0.0,0.0,0.0,0.0,0.0,0.0,0.0,0.0,0.0,-1.133,-1.3722,-1.5755,-1.6977,-1.6574,-1.6367,-1.6798,-1.5214,-1.3627,-1.2286,0.0,0.0,0.0,0.0,0.0,0.0,0.0,0.0,0.0,0.0,0.0,0.0,0.0,0.0,0.0,0.0,0.0,0.0,0.0,0.0,0.0,0.0,0.0,0.0,0.0,0.0,0.0,0.0,0.0,0.0,0.0,0.0,0.0,0.0,0.0,0.0,0.0,0.0,0.0,0.0,0.0,0.0,0.0,0.0,0.0,0.0,0.0,0.0,0.0,0.0,0.0,0.0,0.0,0.0,0.0,0.0,0.0,0.0,0.0,0.0,-0.9619,-0.8727,0.0,0.0,0.0,0.0,0.0,0.0,0.0,0.0,0.0,0.0,0.0,0.0,0.0,0.0,0.0,0.0,0.0,0.0,0.0,0.0,0.0,0.0,0.0,0.0,0.0,0.0,0.0,0.0,0.0,0.0,0.0,0.0,0.0,0.0,0.0,0.0,0.0,0.0,0.0,0.0,-1.2089,-1.4414,-1.6282,-1.7093,-1.705,-1.6768,-1.6309,-1.5479,-1.417,-1.2327,-1.0417,0.0,0.0,0.0,0.0,0.0,0.0,0.0,0.0,0.0,0.0,0.0,0.0,0.0,0.0,0.0,0.0,0.0,0.0,0.0,0.0,0.0,0.0,0.0,0.0,0.0,0.0,0.0,0.0,0.0,0.0,0.0,0.0,0.0,0.0,0.0,0.0,0.0,0.0,0.0,0.0,0.0,0.0,0.0,0.0,0.0,0.0,0.0,0.0,0.0,0.0,0.0,0.0,0.0,0.0,0.0,0.0,0.0,0.0,0.0,-1.1939,-1.0793,0.0,0.0,0.0,0.0,0.0,0.0,0.0,0.0,0.0,0.0,0.0,0.0,0.0,0.0,0.0,0.0,0.0,0.0,0.0,0.0,0.0,0.0,0.0,0.0,0.0,0.0,0.0,0.0,0.0,0.0,0.0,0.0,0.0,0.0,0.0,0.0,0.0,0.0,0.0,0.0,-1.2762,-1.5095,-1.6938,-1.7621,-1.7679,-1.7383,-1.6682,-1.6048,-1.4977,-1.3307,-1.1722,0.0,0.0,0.0,0.0,0.0,0.0,0.0,0.0,0.0,0.0,0.0,0.0,0.0,0.0,0.0,0.0,0.0,0.0,0.0,0.0,0.0,0.0,0.0,0.0,0.0,0.0,0.0,0.0,0.0,0.0,0.0,0.0,0.0,0.0,0.0,0.0,0.0,0.0,0.0,0.0,0.0,0.0,0.0,0.0,0.0,0.0,0.0,0.0,0.0,0.0,0.0,0.0,0.0,-1.419,-1.4884,-1.5856,-1.5408,-1.5864,-1.6903,-1.46,-1.3406,-1.3007,-1.1522,0.0,0.0,0.0,0.0,0.0,0.0,0.0,0.0,0.0,0.0,0.0,0.0,0.0,0.0,0.0,0.0,0.0,0.0,0.0,0.0,0.0,0.0,-1.4008,-1.4238,-1.4847,-1.4813,-1.2726,0.0,0.0,0.0,0.0,0.0,0.0,0.0,0.0,0.0,0.0,0.0,-1.3608,-1.5927,-1.7687,-1.8342,-1.8397,-1.8153,-1.7483,-1.6814,-1.5866,-1.4572,-1.3297,-1.2055,0.0,0.0,0.0,0.0,0.0,0.0,0.0,0.0,0.0,0.0,0.0,0.0,0.0,0.0,0.0,0.0,0.0,0.0,0.0,0.0,0.0,0.0,0.0,0.0,0.0,0.0,0.0,0.0,0.0,0.0,0.0,0.0,-0.6764,-0.7969,0.0,0.0,0.0,0.0,0.0,0.0,0.0,0.0,0.0,0.0,0.0,0.0,0.0,-1.3131,-1.3429,-1.532,-1.6627,-1.7362,-1.8647,-1.9704,-2.0504,-2.0436,-2.0529,-2.0661,-1.9901,0.0,-1.5883,-1.4992,0.0,0.0,0.0,0.0,0.0,0.0,0.0,0.0,0.0,0.0,0.0,0.0,0.0,0.0,0.0,0.0,0.0,0.0,0.0,0.0,0.0,0.0,-1.6478,-1.6344,-1.6448,-1.6589,-1.6582,-1.4862,-1.3077,-1.2305,-1.2164,-1.1707,0.0,0.0,0.0,0.0,0.0,0.0,-1.5138,-1.7069,-1.8555,-1.9167,-1.924,-1.8994,-1.8381,-1.7716,-1.6741,-1.5345,-1.4072,-1.2983,-1.2175,-1.0915,0.0,0.0,0.0,0.0,0.0,0.0,0.0,0.0,0.0,0.0,0.0,0.0,0.0,0.0,0.0,0.0,0.0,0.0,0.0,0.0,0.0,0.0,0.0,0.0,0.0,0.0,0.0,0.0,0.0,-0.6563,-0.7981,-0.8585,-0.893,-0.9038,0.0,0.0,0.0,0.0,0.0,0.0,0.0,0.0,0.0,-1.5184,-1.5921,-1.6578,-1.716,-1.8417,-1.919,-1.9521,-2.0445,-2.1079,-2.146,-2.146,-2.1505,-2.1625,-2.1415,-2.062,-1.9334,-1.7469,-1.5841,-1.4418,0.0,0.0,0.0,0.0,-1.3177,-1.3565,-1.4426,-1.4713,-1.4623,-1.3971,0.0,0.0,0.0,0.0,0.0,0.0,0.0,-1.4605,-1.5658,-1.6701,-1.7622,-1.8086,-1.8241,-1.8331,-1.859,-1.7741,-1.6409,-1.4662,-1.459,-1.4033,-1.1623,-1.1837,0.0,0.0,0.0,-1.5196,-1.6495,-1.7737,-1.8723,-1.9336,-1.9395,-1.9163,-1.8549,-1.7882,-1.7084,-1.6081,-1.4829,-1.3977,-1.3646,-1.2339,-1.1169,0.0,0.0,0.0,0.0,0.0,0.0,0.0,0.0,0.0,0.0,0.0,0.0,0.0,0.0,0.0,0.0,0.0,0.0,0.0,0.0,0.0,0.0,0.0,0.0,0.0,0.0,0.0,0.0,-0.8039,-0.9172,-0.9568,-1.043,-1.0824,0.0,0.0,0.0,0.0,0.0,0.0,-1.4538,-1.5704,-1.6913,-1.8185,-1.8893,-1.9593,-2.0297,-2.0788,-2.1114,-2.1295,-2.1626,-2.1928,-2.2133,-2.2133,-2.2214,-2.236,-2.236,-2.2269,-2.1943,-1.9721,-1.8119,-1.6966,-1.6171,-1.595,-1.6063,-1.5976,-1.621,-1.6722,-1.7673,-1.8015,-1.7876,-1.7028,-1.622,-1.5318,-1.3948,0.0,0.0,0.0,0.0,-1.5921,-1.7325,-1.798,-1.8459,-1.9222,-1.9431,-1.9483,-1.9574,-1.9611,-1.8989,-1.6813,-1.6736,-1.6172,-1.3448,-1.3799,0.0,-1.3799,-1.5104,-1.6544,-1.7668,-1.8379,-1.8989,-1.9427,-1.9487,-1.9294,-1.8856,-1.8187,-1.7504,-1.6822,-1.5728,-1.5033,-1.4842,-1.3669,-1.2651,-1.1797,0.0,0.0,0.0,0.0,0.0,0.0,0.0,0.0,0.0,0.0,0.0,0.0,0.0,0.0,0.0,0.0,0.0,0.0,0.0,0.0,0.0,0.0,0.0,0.0,0.0,0.0,0.0,0.0,0.0,-1.1985,-1.256,0.0,0.0,0.0,0.0,-1.3451,-1.474,-1.6291,-1.8138,-1.9439,-2.0484,-2.1258,-2.1436,-2.158,-2.1703,-2.1866,-2.2238,-2.2879,-2.2915,-2.3248,-2.3876,-2.3876,-2.3876,-2.3876,-2.3876,-2.3527,-2.2874,-2.1973,-2.0941,-1.9895,-1.9822,-1.9253,-1.8484,-1.8919,-1.9123,-1.929,-1.9789,-1.9955,-1.9955,-1.9886,-1.8743,-1.7232,-1.6519,-1.5887,0.0,0.0,-1.7323,-1.7989,-1.9024,-1.9303,-1.9332,-1.9395,-1.9501,-1.9593,-1.9593,-1.965,-1.9465,-1.8702,-1.8531,-1.8063,-1.668,0.0,-1.647,-1.6486,-1.7113,-1.7847,-1.8551,-1.9226,-1.9645,-1.969,-1.969,-1.9675,-1.9645,-1.9031,-1.8323,-1.7586,-1.6886,-1.6187,-1.5492,-1.4828,-1.3869,-1.2567,-1.1204,0.0,0.0,0.0,0.0,0.0,0.0,0.0,0.0,0.0,0.0,0.0,0.0,0.0,0.0,0.0,0.0,0.0,0.0,0.0,0.0,0.0,0.0,0.0,0.0,0.0,0.0,0.0,0.0,-1.3348,-1.455,0.0,-1.528,-1.5122,-1.5629,-1.707,-1.7791,-1.8698,-1.9982,-2.0916,-2.1542,-2.1803,-2.2712,-2.3186,-2.3228,-2.4119,-2.4702,-2.493,-2.493,-2.4824,-2.4657,-2.5082,-2.5096,-2.4765,-2.4765,-2.4872,-2.4963,-2.3823,-2.2551,-2.1306,-2.1306,-2.1098,-2.0803,-2.0887,-2.0921,-2.0965,-2.1079,-2.1126,-2.1105,-2.0876,-2.0367,-1.9791,-1.9701,-1.9435,-1.9342,-2.0057,-2.0333,-2.0499,-2.0959,-2.1,-2.0961,-2.1053,-2.0779,-2.0496,-2.0496,-2.0168,-1.9808,-1.9582,-1.9416,-1.8892,-1.7576,-1.8041,-1.8308,-1.7472,-1.8281,-1.9076,-1.9301,-1.9558,-1.9708,-1.9708,-1.9708,-1.9708,-1.9708,-1.8687,-1.7936,-1.7681,-1.6666,-1.5965,-1.5697,-1.5029,-1.4244,-1.3329,-1.1951,-1.046,0.0,0.0,0.0,0.0,0.0,0.0,0.0,0.0,0.0,0.0,0.0,0.0,0.0,0.0,0.0,0.0,0.0,0.0,0.0,0.0,0.0,0.0,0.0,0.0,0.0,-1.2692,-1.39,-1.4683,-1.6401,-1.7432,-1.7202,-1.7722,-1.8359,-1.901,-1.9735,-2.0524,-2.1439,-2.2244,-2.2874,-2.335,-2.413,-2.4606,-2.4752,-2.5508,-2.5971,-2.6123,-2.6108,-2.5879,-2.5482,-2.5925,-2.5939,-2.5615,-2.5615,-2.586,-2.619,-2.5323,-2.4376,-2.3422,-2.2884,-2.2662,-2.2662,-2.2581,-2.2546,-2.2526,-2.244,-2.2379,-2.2273,-2.1836,-2.1674,-2.1604,-2.1313,-2.13,-2.1441,-2.163,-2.1783,-2.1881,-2.1974,-2.192,-2.1881,-2.1974,-2.166,-2.1341,-2.1341,-2.0992,-2.0613,-2.0385,-2.0053,-1.9527,-1.8637,-1.9208,-1.9479,-1.8557,-1.9206,-1.978,-1.9744,-1.9762,-1.9797,-1.9797,-1.9797,-1.978,-1.9744,-1.8721,-1.8002,-1.7728,-1.6697,-1.6009,-1.5814,-1.5114,-1.4415,-1.3748,-1.2363,-1.111,-0.9956,0.0,0.0,0.0,0.0,0.0,0.0,0.0,0.0,0.0,0.0,0.0,0.0,0.0,0.0,0.0,0.0,0.0,0.0,0.0,0.0,0.0,0.0,0.0,-1.347,-1.4379,-1.5369,-1.6096,-1.8038,-1.8963,-1.8087,-1.9496,-2.0077,-1.9239,-2.0631,-2.1856,-2.2644,-2.3553,-2.4626,-2.5918,-2.574,-2.5824,-2.6206,-2.5932,-2.6008,-2.6441,-2.6388,-2.6395,-2.6426,-2.6464,-2.6464,-2.6433,-2.6433,-2.6449,-2.6441,-2.6433,-2.6418,-2.6265,-2.4682,-2.4064,-2.4064,-2.4064,-2.4049,-2.4013,-2.3861,-2.3717,-2.3526,-2.2948,-2.2753,-2.2515,-2.1374,-2.1414,-2.1769,-2.1327,-2.1625,-2.2074,-2.2074,-2.2074,-2.2074,-2.2074,-2.2059,-2.2044,-2.2044,-2.2028,-2.1816,-2.1178,-2.0524,-2.0051,-2.0005,-2.0005,-1.9955,-1.983,-1.9919,0.0,-1.9815,-1.9919,-2.0005,-2.0005,-1.9988,-1.9937,-1.9797,-1.923,-1.855,-1.7758,-1.707,-1.6443,-1.5858,-1.517,-1.4483,-1.3812,-1.2503,-1.1487,-1.0777,0.0,0.0,0.0,0.0,0.0,0.0,0.0,0.0,0.0,0.0,0.0,0.0,0.0,0.0,0.0,0.0,0.0,0.0,0.0,0.0,0.0,-1.4565,-1.5517,-1.5344,-1.659,-1.7658,-1.8024,-1.8879,-1.9722,-2.044,-2.1009,-2.1812,-2.2966,-2.3822,-2.4349,-2.4465,-2.4781,-2.4994,-2.5055,-2.5773,-2.6244,-2.6335,-2.7233,-2.7708,-2.7857,-2.7842,-2.758,-2.7134,-2.7626,-2.758,-2.7119,-2.7119,-2.7396,-2.7765,-2.6765,-2.6641,-2.7026,-2.6067,-2.5707,-2.5722,-2.5633,-2.5224,-2.4657,-2.4128,-2.3903,-2.3888,-2.3806,-2.3724,-2.3616,-2.3425,-2.3441,-2.3518,-2.3441,-2.3503,-2.3616,-2.3662,-2.3621,-2.3616,-2.3662,-2.3299,-2.2946,-2.2946,-2.2562,-2.2164,-2.198,-2.178,-2.1314,-2.019,-2.0005,-1.9988,-1.9937,-1.9988,-1.9988,-1.9937,-1.9884,-1.9884,-1.9988,-1.9866,-1.978,-1.9797,-1.9161,-1.8452,-1.7743,-1.707,-1.6637,-1.6458,-1.5396,-1.4483,-1.3812,-1.2909,-1.2373,0.0,0.0,0.0,0.0,0.0,0.0,0.0,0.0,0.0,0.0,0.0,0.0,0.0,0.0,0.0,0.0,0.0,0.0,0.0,0.0,0.0,0.0,-1.6136,-1.7277,-1.7413,-1.8118,-1.8654,-1.8759,-1.9804,-2.0854,-2.1755,-2.2732,-2.3553,-2.4065,-2.4881,-2.5317,-2.5263,-2.5568,-2.5915,-2.6237,-2.6717,-2.7063,-2.7226,-2.7828,-2.8226,-2.8411,-2.8411,-2.8211,-2.7827,-2.8227,-2.8196,-2.7827,-2.7827,-2.8042,-2.835,-2.7511,-2.7442,-2.7719,0.0,0.0,0.0,0.0,-2.5946,-2.5438,-2.5063,-2.4883,-2.4839,-2.4941,-2.4898,-2.4756,-2.4388,-2.4435,-2.4533,-2.4049,-2.4073,-2.4234,-2.4297,-2.4276,-2.4234,-2.4297,-2.401,-2.3717,-2.3717,-2.3409,-2.304,-2.2763,-2.2717,0.0,-2.1173,-2.0724,-2.0416,-2.0091,-2.0078,-2.0113,-2.0043,-2.0025,-2.0043,-2.0113,-2.0025,-1.994,-1.9922,-1.9282,0.0,0.0,0.0,-1.7057,-1.6711,-1.5994,0.0,0.0,0.0,0.0,0.0,-1.443,0.0,0.0,-1.2905,-1.2851,0.0,0.0,0.0,0.0,0.0,0.0,0.0,0.0,0.0,0.0,0.0,0.0,0.0,0.0,0.0,0.0,-1.7583,-1.9091,-1.9488,-1.9347,-1.9189,-1.9184,-2.0932,-2.2236,-2.2553,-2.4405,-2.5094,-2.387,-2.4904,-2.5583,-2.5589,-2.619,0.0,0.0,0.0,-2.8054,-2.8411,-2.8063,-2.8039,-2.8323,-2.8396,-2.8396,-2.8323,-2.8372,-2.8411,-2.8411,-2.8411,-2.8411,-2.8411,-2.8411,-2.8411,-2.8288,-2.7088,-2.6633,-2.6633,-2.6556,-2.6442,-2.6321,-2.626,0.0,0.0,-2.6054,-2.6054,-2.5864,-2.476,-2.4859,-2.5101,-2.3938,-2.3994,-2.441,-2.4333,-2.4302,-2.4302,-2.4302,-2.4302,-2.4302,-2.4302,-2.4302,-2.4133,-2.3533,-2.3409,-2.3194,-2.2536,-2.1797,-2.1052,-2.0349,-2.0266,-2.027,-2.015,-2.0202,-2.0287,-2.0304,-2.027,0.0,-2.01,-1.9548,-1.9148,-1.9019,-1.8377,-1.7677,-1.6861,-1.6921,-1.6906,-1.6801,-1.6801,-1.7115,-1.7713,-1.7713,-1.7743,-1.7743,-1.4686,-1.4185,0.0,0.0,0.0,0.0,0.0,0.0,0.0,0.0,0.0,0.0,0.0,0.0,0.0,0.0,0.0,-1.8201,-1.929,-2.0211,-2.0955,-2.1442,-2.1822,-2.2134,-2.2914,-2.3659,-2.4259,-2.5085,-2.5734,-2.6042,-2.6838,-2.7312,-2.7325,-2.7463,-2.7658,-2.7915,-2.8152,-2.8323,-2.8411,-2.8486,-2.8317,-2.7915,-2.8414,0.0,-2.7915,-2.825,-2.8411,-2.8411,-2.8411,-2.8411,-2.8411,-2.8411,-2.8411,-2.8381,-2.8119,-2.8011,-2.795,-2.7396,-2.7196,-2.7095,-2.6557,-2.6335,-2.6312,-2.6312,-2.6312,-2.6282,-2.6053,-2.6015,0.0,-2.5151,-2.501,-2.4973,-2.4441,-2.4302,-2.4302,-2.4302,-2.4302,-2.4302,-2.4302,-2.4302,-2.4271,-2.4133,-2.4117,-2.3887,-2.3225,-2.2105,-2.1257,-2.1083,-2.0641,-2.0287,-2.027,-2.0185,-2.0185,-2.0287,-2.0148,-2.0061,-2.0098,-1.9939,-1.9598,-1.9017,-1.8865,-1.8437,-1.7708,-1.819,-1.8171,-1.7518,-1.7503,-1.7563,-1.7713,-1.7713,-1.7983,-1.8493,-1.7294,-1.6935,0.0,0.0,0.0,0.0,0.0,0.0,0.0,0.0,0.0,0.0,0.0,-1.5562,-1.6271,0.0,-1.8812,-1.9987,-2.0684,-2.1287,-2.1868,-2.2588,-2.2951,-2.2646,-2.3289,-2.4128,-2.5114,-2.5903,-2.6594,-2.7223,-2.7767,-2.8014,-2.7815,-2.7989,-2.8156,-2.8247,-2.844,-2.8591,-2.8692,-2.9037,-2.9037,-2.8744,-2.9281,-2.9396,-2.9093,-2.9446,-2.9336,-2.8904,-2.9036,-2.8826,-2.8411,-2.8411,-2.8411,-2.8411,-2.8411,-2.8411,-2.8365,-2.8027,-2.7904,-2.7857,-2.7519,-2.7396,-2.7396,-2.7396,-2.7396,-2.7334,-2.6995,-2.6872,-2.6718,-2.6041,-2.5841,-2.565,-2.4958,-2.4789,-2.4733,-2.4379,-2.4302,-2.4302,-2.4302,-2.4302,-2.4302,-2.4302,-2.4302,-2.4194,-2.3871,-2.2963,-2.2074,-2.1396,-2.1011,-2.069,-2.035,-2.0252,-2.022,-2.0287,-2.02,-2.0166,-2.02,-2.0166,-1.9993,-1.9573,-1.9558,-1.9372,-1.8968,-1.9271,-1.9235,-1.8768,-1.8736,-1.8719,-1.8702,-1.8702,-1.8867,-1.9181,-1.8867,-1.8702,0.0,0.0,0.0,0.0,0.0,0.0,0.0,0.0,-1.4378,-1.4704,-1.6456,-1.8157,-1.8865,-2.0083,-2.1059,-2.1465,-2.197,-2.2461,-2.285,-2.3614,-2.3858,-2.311,-2.3758,-2.4668,-2.5782,-2.6708,-2.7393,-2.7765,-2.8014,-2.8039,-2.7815,-2.8061,-2.8364,-2.8703,-2.8839,-2.9037,-2.929,-2.9696,-2.9856,-2.9738,-3.0215,-3.0412,-3.0282,-3.0577,-3.0309,-2.9612,-2.9807,-2.9487,-2.8796,-2.8796,-2.8719,-2.8596,-2.8596,-2.8519,-2.8411,-2.8411,-2.8411,-2.8411,-2.8411,-2.8411,-2.8411,-2.8411,-2.8411,-2.8304,-2.7765,-2.7596,-2.7442,-2.678,-2.6565,-2.6357,-2.5703,-2.5496,-2.5327,-2.4587,-2.446,-2.4451,-2.425,-2.424,-2.4302,-2.4302,-2.4302,-2.4302,-2.4302,-2.3856,-2.3086,-2.1874,-2.1581,-2.1304,-2.0749,-2.0564,-2.0487,-2.0487,-2.0381,-2.0304,-2.0304,-2.0304,-2.0252,-2.015,-2.015,-2.0098,-2.0008,-2.0008,-1.9955,-1.9848,-1.9848,-1.9797,-1.9726,-1.9744,-1.9744,-1.9726,-1.9744,-1.9744,-1.2282,-1.2045,-1.2187,-1.389,-1.3483,-1.3648,0.0,0.0,-1.7209,-1.862,-2.0028,-2.1054,-2.1145,-2.1534,-2.2082,-2.2838,-2.3284,-2.3776,-2.4581,-2.525,-2.5734,-2.6002,-2.6129,-2.6373,-2.6876,-2.7394,-2.774,-2.779,-2.7458,-2.7418,-2.779,-2.7604,-2.7888,-2.8744,-2.9316,-2.9796,-3.023,-3.0526,-3.0381,-2.9791,-3.0449,-3.0433,-2.9872,-3.0282,-3.0381,-3.0279,-3.033,-3.0258,-3.0171,-3.0171,-2.9817,-2.9279,-2.9279,-2.8935,-2.8411,-2.8411,-2.8411,-2.8411,-2.8411,-2.8411,-2.8411,-2.8411,-2.8411,-2.8396,-2.8319,-2.8288,-2.815,-2.7473,-2.7272,-2.7119,-2.6441,-2.6272,-2.6021,-2.4992,-2.4979,-2.4955,-2.4046,-2.4094,-2.4302,-2.4302,-2.4302,-2.4302,-2.4302,-2.4241,-2.3948,-2.3179,-2.2563,-2.2166,-2.2089,-2.1565,-2.118,-2.118,-2.0659,-2.0304,-2.0304,-2.0304,-2.0287,-2.0287,-2.0287,-2.022,-2.0098,-2.0098,-2.0045,-1.9988,-1.9988,-1.9919,-1.978,-1.9902,-1.9902,-1.978,-1.9902,-1.9866,-1.4387,-1.4813,-1.5289,0.0,-1.6995,-1.7405,-1.9439,-1.9802,-1.9788,-2.018,-2.1326,-2.2313,-2.251,-2.2923,-2.3378,0.0,-2.4076,-2.4304,-2.4647,-2.5297,-2.569,-2.5637,-2.6136,-2.6669,-2.7071,-2.7291,-2.7393,-2.7393,-2.7458,-2.7764,-2.8348,-2.8241,-2.8571,-2.9478,-2.9733,-3.0032,-3.0332,-3.1006,-3.1253,-3.1156,-3.1727,-3.1971,-3.1834,-3.2175,-3.2126,-3.1716,-3.113,-3.0867,-3.0842,-3.0705,-3.0473,-3.021,-3.0048,-2.9802,-2.9464,-2.8704,-2.8411,-2.8411,-2.8411,-2.8411,-2.8411,-2.8411,-2.8411,-2.8411,-2.8411,-2.8411,-2.835,-2.8057,-2.798,-2.7827,-2.7149,-2.698,-2.6773,-2.5946,-2.5501,-2.5182,-2.4756,-2.4474,-2.4302,-2.4302,-2.4302,-2.4302,-2.4302,-2.4302,-2.421,-2.3933,-2.3302,-2.2732,-2.2351,-2.1889,-2.1455,-2.1059,-2.0581,-2.0304,-2.0304,-2.0304,-2.0304,-2.0304,-2.0304,-2.0185,-1.9945,-2.01,-2.008,-1.983,-1.9975,-1.9957,-1.9797,-1.9866,-1.983,-1.9744,-1.9848,-1.9848,-1.5795,0.0,0.0,-1.877,-1.9533,-2.0255,-2.1001,-2.1537,-2.1799,-2.1575,-2.2512,-2.3434,-2.3513,-2.4055,-2.4422,-2.4268,-2.461,-2.4816,-2.4649,-2.5238,-2.5614,-2.5431,-2.6052,-2.6616,-2.6916,-2.7019,-2.7097,-2.7097,-2.7586,-2.812,-2.8625,-2.88,-2.9317,-3.0196,-3.0375,-3.0644,-3.1014,-3.1695,-3.2176,-3.2437,-3.2812,-3.3096,-3.3309,-3.3503,-3.332,-3.2809,-3.2108,-3.1785,-3.176,-3.1573,-3.1387,-3.1189,-3.1,-3.0763,-3.0392,-2.9404,-2.8916,-2.8658,-2.8473,-2.8411,-2.8411,-2.8411,-2.8411,-2.8411,-2.8411,-2.8411,-2.8411,-2.8411,-2.8411,-2.8288,-2.7796,-2.7673,-2.7456,-2.6558,-2.6016,-2.5543,-2.4985,-2.4552,-2.4222,-2.4061,-2.403,-2.403,-2.403,-2.403,-2.403,-2.403,-2.3619,-2.3193,-2.2882,-2.2491,-2.1955,-2.1288,-2.0839,-2.0547,-2.0444,-2.036,-2.027,-2.0168,-2.0252,-2.0185,-1.9945,-2.0083,-2.008,-1.9869,-1.996,-1.9977,-1.9887,-1.9922,-1.9887,-1.9815,-2.0101,-2.0194,0.0,0.0,-1.8917,-1.922,-1.9977,-2.0962,-2.21,-2.255,-2.2911,-2.3484,-2.4307,-2.4746,-2.4177,-2.4819,-2.5053,-2.3826,-2.488,-2.5655,-2.5064,-2.5513,-2.6014,-2.6402,-2.6469,-2.651,-2.651,-2.6864,-2.7097,-2.7097,-2.7715,-2.8125,-2.8219,-2.8969,-2.9797,-3.0759,-3.1334,-3.2035,-3.2816,-3.2843,-3.3005,-3.3266,-3.3282,-3.3309,-3.3309,-3.3309,-3.3293,-3.3277,-3.3245,-3.3245,-3.3245,-3.3245,-3.2835,-3.226,-3.2234,-3.1656,-3.0791,-3.0744,-3.0148,-2.9289,-2.8642,-2.8411,-2.8411,-2.8411,-2.8411,-2.8411,-2.8411,-2.8411,-2.8411,-2.8411,-2.8411,-2.8411,-2.8381,-2.8381,-2.7987,-2.6545,-2.6439,-2.6114,-2.4161,-2.3987,-2.4035,-2.3437,-2.3341,-2.3341,-2.3341,-2.3341,-2.3341,-2.3341,-2.3326,-2.3537,-2.4158,-2.3651,-2.299,-2.2332,-2.1673,-2.1148,-2.0808,-2.0482,-2.0168,-1.9841,-2.0133,-2.0304,-2.0287,-1.998,-1.9962,-2.027,-1.9962,-1.9909,-2.0083,-2.022,-2.0218,-2.0098,-2.0896,-2.1185,0.0,0.0,-2.0328,-2.1637,-2.2463,-2.3165,-2.3956,-2.4186,-2.4202,-2.3999,-2.4327,-2.4477,-2.3887,-2.4206,-2.4289,-2.3412,-2.4072,-2.4627,-2.443,-2.5142,-2.5645,-2.5514,-2.6081,-2.6337,-2.5946,-2.6396,-2.6707,-2.6707,-2.7624,-2.8492,-2.9217,-2.9905,-3.0604,-3.1364,-3.1773,-3.2104,-3.2355,-3.2893,-3.3309,-3.3581,-3.3761,-3.3822,-3.3822,-3.3822,-3.3822,-3.3822,-3.3822,-3.3822,-3.3822,-3.3658,-3.3437,-3.3204,-3.3023,-3.2751,-3.2405,-3.1974,-3.1608,-3.1174,-3.0109,-2.9433,-2.9048,-2.9048,-2.8765,-2.8411,-2.8411,-2.8201,-2.8054,-2.8323,-2.7974,-2.761,-2.7915,-2.7775,-2.7409,-2.6933,-2.6534,-2.6179,-2.5773,-2.5437,-2.5227,-2.5341,-2.4784,-2.429,-2.429,-2.3733,-2.3297,-2.3297,-2.3494,-2.3631,-2.3646,-2.3437,-2.313,-2.2682,-2.2233,-2.1929,-2.18,-2.1081,-2.0579,-2.0454,-1.9969,-1.9705,-1.9705,-1.9581,-1.9581,-1.9705,-1.9581,-1.9734,-2.0165,-2.0426,-2.0722,-2.1045,-2.163,-2.1869,-1.9606,-2.0848,-2.1795,-2.2838,-2.3742,-2.4476,-2.4652,-2.4735,-2.4655,-2.4068,-2.3966,-2.3747,-2.2915,-2.3115,-2.3206,-2.2559,-2.3375,-2.4177,-2.4388,-2.5355,-2.6019,-2.6004,-2.6713,-2.6989,0.0,0.0,0.0,-2.7111,-2.8196,-2.9228,-3.0096,-3.0674,-3.13,-3.2092,-3.2398,-3.2559,-3.2668,-3.3182,-3.3581,-3.3848,-3.4025,-3.4101,-3.4101,-3.4101,-3.4101,-3.4101,-3.3866,-3.3892,-3.4075,-3.3662,-3.3652,-3.3822,-3.3642,-3.3529,-3.3403,-3.2958,-3.2681,-3.2337,-3.0996,-3.0324,-2.9956,-2.9539,-2.9169,-2.8826,-2.8497,-2.8226,-2.8079,-2.8323,-2.7999,-2.7635,-2.794,-2.78,-2.7519,-2.7367,-2.703,-2.6634,-2.6357,-2.5972,-2.5655,-2.5589,-2.5023,-2.4475,-2.424,-2.3485,-2.2904,-2.2904,-2.3194,-2.3392,-2.3319,-2.3293,-2.3211,-2.3002,-2.2561,-2.2233,-2.2134,-2.1404,-2.0899,-2.0803,-2.0317,-2.0053,-2.0053,-1.9957,-1.9957,-2.0053,-1.9957,-2.0123,-2.0558,-2.0774,-2.1055,-2.1405,-2.1964,-2.2284,-2.0854,-2.2168,-2.3221,-2.2851,-2.3902,-2.4829,-2.4245,-2.4285,-2.4294,-2.3659,-2.325,-2.2634,-2.142,0.0,-2.1926,-2.1378,-2.2865,-2.4275,-2.495,-2.6062,-2.7045,0.0,0.0,0.0,0.0,0.0,0.0,-2.8367,-2.9363,-3.0254,-3.0815,-3.1247,-3.1921,-3.2897,-3.3176,-3.3424,-3.3642,-3.3642,-3.3771,-3.4025,-3.4025,-3.4025,-3.4025,-3.4025,-3.4025,-3.4009,-3.3449,-3.3527,-3.4009,-3.3449,-3.3527,-3.4025,-3.4025,-3.3873,-3.3617,-3.3617,-3.3319,-3.2683,-3.1342,-3.1021,-3.1013,-2.9881,-2.9648,-2.9666,-2.8731,-2.8409,-2.8394,-2.8363,-2.8339,-2.8275,-2.8299,-2.8275,-2.8177,-2.779,-2.7715,-2.7335,-2.5952,-2.5643,-2.5368,-2.4442,-2.4199,-2.3963,-2.3266,-2.2686,-2.2292,-2.225,-2.2514,-2.2851,-2.3231,-2.3297,-2.3297,-2.3297,-2.2715,-2.2219,-2.1903,-2.1485,-2.112,-2.0865,-2.105,-2.1178,-2.1184,-2.0912,-2.0926,-2.1164,-2.0926,-2.092,-2.1222,-2.1208,-2.1257,-2.1301,-2.1945,-2.2464,-2.2109,-2.2864,-2.3247,-2.3644,-2.4375,-2.4838,-2.4225,-2.4138,-2.3881,-2.279,-2.2147,-2.1378,-2.0133,-2.0428,0.0,-2.1237,-2.2461,0.0,-2.5444,-2.6315,0.0,-2.7735,0.0,-2.8197,-2.8722,-2.9343,0.0,-3.0544,-3.0257,-3.0507,-3.1504,-3.2153,-3.273,-3.3176,-3.345,-3.3393,-3.3018,-3.2819,-3.278,-3.2846,-3.2846,-3.2846,-3.2846,-3.2846,-3.3044,-3.3423,-3.3277,-3.3303,-3.3423,-3.3277,-3.3055,-3.2846,-3.2846,-3.2792,-3.2726,-3.2726,-3.2645,-3.2449,-3.1833,-3.1509,-3.13,-3.0988,-3.0603,-3.0079,-2.9134,-2.8657,-2.831,-2.779,-2.7192,-2.6736,-2.693,-2.6747,-2.6498,-2.6392,-2.6392,-2.6375,-2.6282,-2.6265,-2.6275,-2.6334,-2.5723,-2.494,-2.3988,-2.3713,-2.3445,-2.2943,-2.2955,-2.2961,-2.2857,-2.3105,-2.3297,-2.3297,-2.315,-2.3003,-2.2937,-2.2149,-2.1621,-2.1549,-2.0941,-2.0684,-2.0891,-2.0641,-2.0635,-2.0891,-2.0656,-2.0755,-2.1282,-2.1528,-2.1888,-2.233,-2.279,-2.3075,-2.3168,-2.3741,-2.3966,-2.4064,-2.4345,-2.4444,-2.3811,-2.3051,-2.2194,-2.1173,-2.0274,0.0,-1.8405,-1.8967,0.0,0.0,0.0,0.0,-2.5598,-2.6427,-2.7328,0.0,-2.9069,0.0,-2.9896,-3.0448,-3.0956,0.0,-3.0884,-3.1012,-3.1844,-3.206,-3.2315,-3.2672,-3.2969,-3.2953,-3.2614,-3.2465,-3.2398,-3.2398,-3.2398,-3.252,-3.2734,-3.2734,-3.3055,-3.3594,-3.3303,-3.3355,-3.3578,-3.3303,-3.3108,-3.2969,-3.2803,-3.2668,-3.2574,-3.2437,-3.2315,-3.216,-3.1964,-3.1693,-3.1384,-3.0998,-3.0664,-3.0224,-2.9267,-2.8654,-2.8187,-2.7817,-2.7138,-2.6563,-2.6707,-2.659,-2.6431,-2.6431,-2.6431,-2.6431,-2.6484,-2.651,-2.651,-2.6563,-2.5902,-2.5166,-2.4594,-2.4275,-2.3966,-2.36,-2.328,-2.3044,-2.289,-2.285,-2.2814,-2.2814,-2.2814,-2.2814,-2.2814,-2.2302,-2.199,-2.199,-2.149,-2.1248,-2.1396,-2.127,-2.1248,-2.1418,-2.127,-2.1364,-2.1687,-2.1877,-2.2138,-2.2495,-2.2723,-2.2904,-2.4036,-2.4542,-2.4753,-2.4219,-2.4092,-2.3895,-2.314,-2.1566,-2.0063,-1.9312,0.0,-1.7169,-1.6568,-1.7506,-1.8596,-1.9277,0.0,-2.2981,-2.5528,-2.6427,-2.764,-2.9921,-3.0555,-3.0881,-3.1029,-3.135,-3.1509,-3.1336,-3.1278,-3.1481,-3.1953,-3.1537,-3.1493,-3.1964,-3.216,-3.2287,-3.2287,-3.2188,-3.2132,-3.2132,-3.2132,-3.2379,-3.2891,-3.2917,-3.3319,-3.3908,-3.3423,-3.3501,-3.3933,-3.3423,-3.3266,-3.3393,-3.3108,-3.2772,-3.2489,-3.2201,-3.1936,-3.168,-3.168,-3.1508,-3.1173,-3.058,-3.0456,-3.0378,-2.9435,-2.875,-2.8294,-2.8152,-2.7612,-2.7073,-2.7059,-2.7,-2.6941,-2.6941,-2.6941,-2.6837,-2.651,-2.6431,-2.6324,-2.5975,-2.5472,-2.5133,-2.5133,-2.4683,-2.4303,-2.4219,-2.3727,-2.3308,-2.3238,-2.2644,-2.2208,-2.2208,-2.2208,-2.2208,-2.2208,-2.2208,-2.2208,-2.2208,-2.2208,-2.2208,-2.2208,-2.2208,-2.2208,-2.2208,-2.2208,-2.2208,-2.2208,-2.2208,-2.2208,-2.2208,-2.2208,-2.2356,-2.4683,-2.4556,-2.4219,-2.412,-2.4092,-2.3783,-2.263,-2.092,0.0,0.0,-1.6898,-1.5845,-1.5244,-1.6578,-1.8105,-1.9228,0.0,0.0,0.0,0.0,-2.7484,0.0,0.0,0.0,0.0,-3.0984,0.0,0.0,-3.1204,-3.1321,-3.1894,-3.1823,-3.1921,-3.2299,-3.1879,-3.1652,-3.1652,-3.1175,-3.0822,-3.0658,-3.0658,-3.0866,-3.1219,-3.145,-3.2086,-3.3029,-3.3145,-3.3251,-3.3355,-3.3251,-3.2691,-3.1879,-3.1807,-3.1465,-3.097,-3.0748,-3.0643,-3.0553,-3.0447,-3.0251,-3.0238,-3.1027,-3.1271,-3.1123,-3.0199,-2.972,-2.9316,-2.8439,-2.7639,-2.7,-2.6889,-2.6479,-2.6096,-2.6096,-2.6096,-2.6096,-2.6029,-2.5988,-2.5961,-2.5921,-2.5809,-2.5725,-2.5725,-2.5655,-2.5428,-2.4922,-2.4739,-2.45,-2.398,-2.2911,-2.2208,-2.2208,-2.2208,-2.2208,-2.2208,-2.2208,-2.2208,-2.2208,-2.2208,-2.2208,-2.2208,-2.2208,-2.2208,-2.2208,-2.2208,-2.2208,-2.2208,-2.2208,-2.2208,-2.2208,-2.2208,-2.2217,-2.4838,-2.4795,-2.457,-2.457,-2.3825,-2.2869,-2.194,0.0,0.0,0.0,-1.5159,-1.4288,-1.4331,0.0,0.0,0.0,0.0,0.0,0.0,0.0,0.0,0.0,0.0,0.0,0.0,-3.1161,-3.1117,-3.1219,-3.1087,-3.1146,-3.1422,-3.1306,-3.1306,-3.1451,-3.1073,-3.0881,-3.0881,-3.0583,-3.0417,-3.0282,-3.0417,-3.0881,-3.1638,-3.1766,-3.2434,-3.3481,-3.3277,-3.3182,-3.3198,-3.2895,-3.2544,-3.2173,-3.202,-3.168,-3.1248,-3.1014,-3.0673,-3.0326,-3.0341,-3.0235,-3.016,-3.0688,-3.0748,-3.054,-3.0205,-2.9797,-2.9348,-2.8739,-2.7826,-2.7018,-2.6835,-2.6357,-2.5893,-2.5893,-2.5893,-2.5893,-2.5893,-2.5893,-2.5893,-2.5893,-2.5893,-2.5893,-2.5893,-2.5893,-2.5795,-2.55,-2.5203,-2.4908,-2.4613,-2.3755,-2.3066,-2.2714,-2.2405,-2.2208,-2.2208,-2.2208,-2.2208,-2.2208,-2.2208,-2.2208,-2.2208,-2.2208,-2.2208,-2.2208,-2.2208,-2.2208,-2.2208,-2.2208,-2.2208,-2.2208,-2.2208,-2.2208,-2.45,-2.4711,-2.4838,-2.4978,-2.36,-2.2053,-2.1434,-1.8391,0.0,0.0,-1.3642,-1.2967,-1.3586,0.0,0.0,0.0,0.0,0.0,0.0,0.0,0.0,0.0,0.0,0.0,0.0,-3.1204,0.0,-3.094,-3.0911,-3.0911,-3.0911,-3.0717,-3.0568,-3.0538,-3.0417,-3.0357,-3.0282,-3.0357,-3.0357,-3.0282,-3.0447,-3.1058,-3.2064,-3.2104,-3.2695,-3.361,-3.3214,-3.3013,-3.3002,-3.2559,-3.2465,-3.2489,-3.2299,-3.1964,-3.1595,-3.1335,-3.0837,-3.0312,-3.0462,-3.0387,-3.0266,-3.0282,-3.0129,-2.9946,-3.008,-2.9738,-2.9309,-2.916,-2.8292,-2.7414,-2.7243,-2.6652,-2.6062,-2.5921,-2.5893,-2.5893,-2.5893,-2.5893,-2.5893,-2.5893,-2.5893,-2.5893,-2.5893,-2.5893,-2.5893,-2.5893,-2.5486,-2.5203,-2.5203,-2.4669,-2.4092,-2.3561,-2.2981,-2.2545,-2.2419,-2.2405,-2.2348,-2.2208,-2.2208,-2.2208,-2.2208,-2.2208,-2.2208,-2.2208,-2.2208,-2.2208,-2.2208,-2.2208,-2.2278,-2.2405,-2.2405,-2.2475,-2.3407,-2.3727,-2.4303,-2.4866,-2.36,-2.2053,-2.144,0.0,0.0,-1.4218,-1.2968,-1.2293,-1.2967,-1.4078,0.0,0.0,0.0,-1.9635,0.0,0.0,0.0,0.0,0.0,0.0,0.0,-3.0538,-3.0341,-3.0612,-3.0628,-3.0628,-3.0628,-3.0598,-3.0507,-3.0312,-3.0477,-3.0477,-3.0282,-3.0477,-3.0477,-3.0282,-3.0312,-3.0538,-3.0969,-3.119,-3.1608,-3.2132,-3.2355,-3.2465,-3.2465,-3.2425,-3.2076,-3.1623,-3.1595,-3.1234,-3.0687,-3.0493,-3.0342,-3.0296,-3.0158,-3.0142,-3.0142,-3.0266,-3.0282,-3.0235,-3.0142,-2.9931,-2.9723,-2.9723,-2.9165,-2.8551,-2.8521,-2.7636,-2.6582,-2.602,-2.5893,-2.5893,-2.5893,-2.5893,-2.5893,-2.5893,-2.5893,-2.5893,-2.5893,-2.5893,-2.5893,-2.5893,-2.5837,-2.5809,-2.5809,-2.5302,-2.4894,-2.4838,-2.4289,-2.367,-2.3055,-2.3013,-2.2774,-2.2236,-2.2208,-2.2208,-2.2208,-2.2208,-2.2208,-2.2208,-2.2208,-2.2208,-2.2208,-2.2208,-2.2489,-2.3013,-2.3013,-2.3347,-2.412,-2.4711,-2.5161,-2.5035,-2.36,-2.1833,-2.0463,0.0,-1.4822,-1.3614,-1.2631,-1.2195,-1.2882,-1.3685,-1.4864,-1.6747,-1.7253,-1.8236,-2.0547,0.0,0.0,0.0,0.0,0.0,0.0,0.0,-3.0189,-3.0417,-3.0793,-3.1009,-3.1009,-3.1087,-3.123,-3.1432,-3.1555,-3.1572,-3.151,-3.1572,-3.1385,-3.0917,-3.0995,-3.1082,-3.1234,-3.1335,-3.168,-3.2188,-3.1964,-3.1851,-3.1823,-3.1451,-3.1408,-3.1508,-3.1508,-3.1335,-3.1146,-3.1043,-3.0732,-3.0312,-3.0371,-3.031,-3.0249,-3.0296,-3.0235,-3.0189,-3.0219,-3.0127,-2.9974,-2.9822,-2.9339,-2.8796,-2.8719,-2.8043,-2.7228,-2.6596,-2.6441,-2.6343,-2.5978,-2.5893,-2.5893,-2.5893,-2.5893,-2.5893,-2.5893,-2.5893,-2.5893,-2.5893,-2.5893,-2.5893,-2.5893,-2.5683,-2.5528,-2.5528,-2.4683,-2.398,-2.3727,-2.3698,-2.36,-2.3361,-2.3333,-2.3333,-2.3333,-2.3333,-2.3333,-2.3333,-2.3333,-2.3333,-2.3333,-2.3333,-2.3473,-2.3698,-2.3698,-2.3839,-2.3445,-2.4334,-2.4966,-2.4556,-2.3051,-2.1271,0.0,-1.701,-1.4513,-1.3474,-1.2588,-1.2265,-1.3108,-1.3614,-1.4514,-1.6399,-1.6708,-1.745,-1.9635,0.0,0.0,0.0,0.0,-2.8267,0.0,-3.0004,-3.0249,-3.0235,-3.09,-3.1329,-3.1406,-3.1784,-3.2064,-3.2145,-3.2288,-3.2352,-3.232,-3.2352,-3.2121,-3.1642,-3.1565,-3.1493,-3.1471,-3.1323,-3.1451,-3.1851,-3.1422,-3.1234,-3.1204,-3.0777,-3.0851,-3.1234,-3.1234,-3.1234,-3.1234,-3.1234,-3.0881,-3.0417,-3.0538,-3.0507,-3.0387,-3.0387,-3.0249,-3.0111,-3.0219,-3.0097,-2.9927,-2.9775,-2.945,-2.9052,-2.8762,-2.8366,-2.7918,-2.7242,-2.7102,-2.6933,-2.6301,-2.6174,-2.6104,-2.5921,-2.5893,-2.5893,-2.5893,-2.5893,-2.5893,-2.5893,-2.5893,-2.5893,-2.5893,-2.5893,-2.5893,-2.5893,-2.5147,-2.4556,-2.4374,-2.4359,-2.4289,-2.4092,-2.4092,-2.4092,-2.4092,-2.4092,-2.4092,-2.4092,-2.4092,-2.4092,-2.4092,-2.4092,-2.4177,-2.4359,-2.4359,-2.4458,-2.0597,-2.1763,-2.3126,-2.3112,-2.1763,-2.0245,0.0,-1.701,-1.4626,-1.4022,-1.2883,-1.2392,-1.3671,-1.391,-1.4514,-1.6399,-1.6708,-1.7777,-2.0843,-2.1814,0.0,0.0,0.0,-2.761,-2.8425,-2.9769,-3.0462,-3.0111,-3.0852,-3.1421,-3.1664,-3.2653,-3.2824,-3.2029,-3.232,-3.2417,-3.232,-3.2417,-3.2481,-3.2466,-3.1814,-3.1511,-3.1482,-3.0888,-3.0598,-3.0612,-3.0598,-3.0598,-3.0598,-3.0598,-3.0598,-3.0598,-3.0598,-3.0598,-3.0598,-3.0598,-3.0598,-3.0598,-3.0598,-3.0598,-3.0598,-3.0598,-3.0371,-3.008,-3.008,-2.9865,-2.9602,-2.9602,-2.9602,-2.9462,-2.8844,-2.8689,-2.8535,-2.7932,-2.7791,-2.7622,-2.6947,-2.6793,-2.661,-2.602,-2.5893,-2.5893,-2.5893,-2.5893,-2.5893,-2.5893,-2.5893,-2.5893,-2.5893,-2.5893,-2.5893,-2.5893,-2.5879,-2.5626,-2.5049,-2.4992,-2.4739,-2.4134,-2.4092,-2.4092,-2.4092,-2.4092,-2.4092,-2.4092,-2.4092,-2.4092,-2.4092,-2.4092,-2.4402,-2.4992,-2.4992,-2.5316,-1.9663,-2.0765,-2.1659,-2.0785,-2.014,-1.934,-1.7885,-1.6129,-1.4626,-1.4022,-1.3249,-1.2925,-1.3755,-1.4232,-1.4991,-1.6469,-1.6708,-1.7464,0.0,0.0,0.0,0.0,0.0,-2.9253,0.0,0.0,-3.0833,-3.0723,-3.1628,-3.2312,-3.2497,-3.283,-3.3092,-3.3282,-3.3619,-3.3786,-3.3738,-3.3786,-3.3587,-3.3198,-3.298,-3.2382,-3.148,-3.1308,-3.0988,-3.0598,-3.0598,-3.0598,-3.0598,-3.0598,-3.0598,-3.0598,-3.0598,-3.0598,-3.0598,-3.0598,-3.0598,-3.0598,-3.0598,-3.0598,-3.0598,-3.0598,-3.0462,-3.0235,-3.0235,-2.9943,-2.9602,-2.9602,-2.9602,-2.956,-2.9364,-2.9321,-2.9167,-2.8549,-2.8408,-2.8226,-2.7607,-2.7467,-2.7284,-2.6638,-2.6526,-2.6385,-2.5964,-2.5893,-2.5893,-2.5893,-2.5893,-2.5893,-2.5893,-2.5893,-2.5893,-2.5893,-2.5893,-2.5809,-2.5626,-2.5612,-2.5514,-2.5358,-2.5344,-2.5344,-2.5344,-2.5344,-2.5344,-2.5344,-2.5344,-2.5344,-2.5344,-2.5344,-2.5442,-2.5612,-2.5612,-2.5711,0.0,-1.929,-2.0049,-1.9256,-1.8891,-1.8301,-1.6691,-1.5356,-1.4288,-1.3685,-1.3263,-1.3178,-1.3797,-1.4387,-1.5216,-1.6497,-1.6708,0.0,0.0,0.0,0.0,0.0,0.0,0.0,0.0,-3.0297,-3.0782,-3.093,-3.1606,-3.2146,-3.244,-3.2554,-3.282,-3.3269,-3.3537,-3.3819,-3.4051,-3.4051,-3.3978,-3.3819,-3.362,-3.3067,-3.2251,-3.2004,-3.1671,-3.1293,-3.1047,-3.093,0.0,-3.0699,-3.0598,-3.0598,-3.0598,-3.0598,-3.0598,-3.0598,-3.0598,-3.0598,-3.0598,-3.0598,-3.0598,-3.0598,-3.0447,-3.0282,-3.0235,-2.996,-2.9651,-2.9602,-2.9602,-2.9602,-2.9602,-2.9602,-2.9518,-2.9125,-2.904,-2.8872,-2.8283,-2.8157,-2.786,-2.6975,-2.6807,-2.661,-2.5992,-2.5893,-2.5893,-2.5893,-2.5893,-2.5893,-2.5893,-2.5893,-2.5893,-2.5893,-2.5893,-2.5893,-2.5893,-2.5893,-2.5893,-2.5893,-2.5893,-2.5893,-2.5893,-2.5893,-2.5893,-2.5893,-2.5893,-2.5893,-2.5893,-2.5893,-2.5893,-2.5893,-2.5893,-2.5893,0.0,-1.7253,-1.8161,-1.8119,-1.7731,-1.7028,-1.5789,-1.464,0.0,-1.3122,-1.2995,-1.322,-1.391,-1.4485,-1.53,-1.6624,-1.6793,0.0,0.0,0.0,0.0,0.0,-2.7954,0.0,-2.939,-2.9994,-3.0444,-3.0775,-3.0956,-3.124,-3.1711,-3.1972,-3.2166,-3.2209,-3.2341,-3.2742,-3.3489,-3.3547,-3.3833,-3.4366,-3.3819,-3.3514,-3.3456,-3.2814,-3.2492,-3.242,-3.1828,-3.1538,-3.1406,-3.0887,-3.0611,-3.0568,-3.0598,-3.0598,-3.0598,-3.0598,-3.0598,-3.0598,-3.0598,-3.0598,-3.0598,-3.0598,-3.0477,-3.0296,-3.0172,-2.9974,-2.9792,-2.9651,-2.9602,-2.9602,-2.9602,-2.9602,-2.9602,-2.9602,-2.9602,-2.9462,-2.8886,-2.8759,-2.8394,-2.7172,-2.6947,-2.675,-2.6132,-2.6034,-2.6006,-2.5964,-2.595,-2.595,-2.5907,-2.5893,-2.5893,-2.5893,-2.5893,-2.5893,-2.5893,-2.5893,-2.5893,-2.5893,-2.5893,-2.5893,-2.5893,-2.5893,-2.5893,-2.5893,-2.5893,-2.5893,-2.5893,-2.5893,-2.5893,-2.5893,-2.5893,-2.5893,-1.2885,0.0,-1.4864,-1.4402,-1.4528,-1.4571,0.0,-1.3417,-1.3178,0.0,0.0,-1.346,-1.5005,-1.5382,-1.6056,-1.7782,0.0,0.0,0.0,0.0,0.0,-2.8308,-2.9061,-2.9576,-2.9899,-3.0392,-3.0725,-3.0804,-3.1257,-3.1649,-3.1903,-3.1653,-3.1784,-3.2402,-3.189,-3.2197,-3.3489,-3.3949,-3.4201,-3.4162,-3.4018,-3.3619,-3.3044,-3.2868,-3.2538,-3.2033,-3.2051,-3.1674,-3.112,-3.1242,-3.0911,-3.0387,-3.0538,-3.0598,-3.0598,-3.0598,-3.0598,-3.0598,-3.0598,-3.0598,-3.0598,-3.0598,-3.0568,-3.0477,-3.0296,-3.0158,-3.0005,-2.9806,-2.9761,-2.973,-2.9634,-2.9602,-2.9602,-2.9602,-2.9602,-2.956,-2.942,-2.9392,-2.9167,-2.8394,-2.8254,-2.8057,-2.7468,-2.7369,-2.7172,-2.6666,-2.6596,-2.6427,-2.595,-2.5893,-2.5893,-2.5893,-2.5893,-2.5893,-2.5893,-2.5893,-2.5893,-2.5893,-2.5893,-2.5893,-2.5893,-2.5893,-2.5893,-2.5893,-2.5893,-2.5893,-2.5893,-2.5893,-2.5893,-2.5893,-2.5893,-2.5893,-1.1355,-1.283,-1.4218,-1.391,-1.4274,-1.4569,-1.3966,0.0,0.0,0.0,0.0,-1.3797,-1.5059,-1.5747,0.0,0.0,-1.8545,0.0,0.0,0.0,0.0,-2.9098,-2.961,-2.9853,-2.996,-3.0196,-3.046,-3.0772,-3.0892,-3.1176,-3.1636,-3.1236,-3.1317,-3.2002,-3.183,-3.2277,-3.3489,-3.3638,-3.384,-3.4094,-3.4094,-3.3873,-3.3441,-3.3557,-3.3403,-3.3025,-3.2883,-3.2551,-3.2126,-3.1678,-3.1246,-3.0821,-3.0654,-3.0598,-3.0598,-3.0507,-3.0447,-3.0447,-3.0447,-3.0447,-3.0447,-3.0401,-3.0371,-3.0371,-3.0312,-3.0235,-3.0158,-2.9991,-2.9884,-2.9777,-2.9699,-2.9665,-2.9602,-2.9602,-2.9602,-2.9602,-2.9602,-2.9602,-2.942,-2.8816,-2.8689,-2.8493,-2.7904,-2.7805,-2.7693,-2.7298,-2.7256,-2.713,-2.6807,-2.6764,-2.6764,-2.6764,-2.6764,-2.6764,-2.6764,-2.6764,-2.6512,-2.5936,-2.5893,-2.5893,-2.5893,-2.5893,-2.5893,-2.5893,-2.5893,-2.5893,-2.5893,-2.5893,-2.5893,-2.5893,-2.5893,-2.6048,-1.0897,-1.2844,-1.4738,-1.4428,-1.4961,-1.5396,-1.4808,0.0,0.0,0.0,0.0,0.0,0.0,-1.6255,0.0,0.0,0.0,0.0,0.0,-2.6652,-2.7764,-2.9579,-2.9777,-2.9777,-2.9808,-2.9808,-3.0035,-3.0587,-3.0318,-3.0401,-3.107,-3.0751,-3.0871,-3.1548,-3.1921,-3.2601,-3.3535,-3.3236,-3.3393,-3.4074,-3.4074,-3.4074,-3.4074,-3.4244,-3.4312,-3.4283,-3.3815,-3.3525,-3.3318,-3.2234,-3.1727,-3.155,-3.1076,-3.0845,-3.0713,-3.0561,-3.0429,-3.0357,-3.0357,-3.0312,-3.0266,-3.0158,-3.0111,-3.0111,-3.0249,-3.0282,-3.0266,-3.0158,-2.9991,-2.987,-2.9853,-2.9744,-2.9634,-2.9634,-2.9602,-2.9602,-2.9602,-2.9602,-2.9462,-2.8942,-2.883,-2.8675,-2.8171,-2.8087,-2.8044,-2.796,-2.7946,-2.7904,-2.7819,-2.7805,-2.7805,-2.7805,-2.7805,-2.7805,-2.7805,-2.7805,-2.7341,-2.6245,-2.609,-2.6034,-2.6034,-2.6034,-2.6076,-2.6174,-2.6174,-2.6174,-2.6174,-2.6174,-2.6174,-2.6174,-2.6174,-2.6455,-1.1818,-1.3438,-1.4429,-1.2841,-1.3684,-1.478,-1.4176,0.0,0.0,0.0,0.0,0.0,0.0,0.0,0.0,0.0,0.0,-2.4866,0.0,0.0,-2.875,-2.9692,-2.9713,-2.9682,-2.9777,-2.9808,-2.9851,-2.995,-3.0156,-3.0278,-3.0285,-3.0323,-3.0828,-3.1894,-3.1828,-3.244,-3.3842,-3.3774,-3.3831,-3.3917,-3.3917,-3.3917,-3.3917,-3.3951,-3.4,-3.3985,-3.4007,-3.3614,-3.2997,-3.314,-3.2782,-3.2193,-3.2188,-3.1874,-3.135,-3.135,-3.1002,-3.0538,-3.0538,-3.0371,-3.0142,-3.0235,-3.0189,-3.0111,-3.0111,-3.0219,-3.0296,-3.0266,-3.0266,-3.0205,-3.0066,-2.9898,-2.9761,-2.9761,-2.9682,-2.9602,-2.9602,-2.9602,-2.9574,-2.949,-2.9462,-2.9434,-2.935,-2.9321,-2.9153,-2.8633,-2.8549,-2.8366,-2.7876,-2.7805,-2.7805,-2.7805,-2.7805,-2.7805,-2.7805,-2.7805,-2.7721,-2.7538,-2.6975,-2.6666,-2.6666,-2.6666,-2.6933,-2.751,-2.751,-2.751,-2.751,-2.751,-2.751,-2.751,-2.751,-2.7566,-1.1044,-1.2731,-1.4121,-1.3235,-1.4935,-1.6733,-1.6452,0.0,0.0,0.0,0.0,0.0,0.0,0.0,-2.1159,-2.3431,0.0,-2.602,-2.7607,-2.8324,-2.8944,-2.9611,-2.9634,-2.9634,-2.9682,-2.9761,-2.9853,-2.996,-3.0097,-3.0189,-3.0219,-3.0189,-3.0745,-3.1972,-3.1805,-3.2416,-3.3882,-3.3793,-3.3793,-3.3896,-3.3896,-3.3896,-3.3896,-3.3985,-3.4005,-3.4005,-3.4176,-3.4071,-3.3701,-3.3568,-3.3296,-3.2898,-3.222,-3.1756,-3.1451,-3.1011,-3.0663,-3.0417,-3.0221,-3.0158,-3.008,-2.9974,-2.9882,-2.982,-2.9898,-2.9976,-3.0038,-3.0144,-3.0235,-3.0296,-3.0205,-3.0097,-2.996,-2.996,-2.9837,-2.9713,-2.9713,-2.9651,-2.9602,-2.9602,-2.9602,-2.9602,-2.9602,-2.9602,-2.9518,-2.9237,-2.9195,-2.9083,-2.8802,-2.8759,-2.8759,-2.8759,-2.8759,-2.8759,-2.8759,-2.8759,-2.8478,-2.7847,-2.7495,-2.734,-2.734,-2.734,-2.7481,-2.7791,-2.7805,-2.7805,-2.7805,-2.7805,-2.7805,-2.7805,-2.7805,-2.7974,-1.0444,-1.2141,-1.3863,-1.4157,0.0,-1.8189,-1.861,0.0,0.0,0.0,0.0,0.0,0.0,-2.0864,0.0,-2.5823,-2.6329,-2.6933,-2.8661,-2.89,-2.9083,-2.956,-2.9602,-2.9602,-2.9602,-2.9775,-2.9929,-3.008,-3.0142,-3.0189,-3.0235,-3.0097,-3.0517,-3.1628,-3.1494,-3.2033,-3.3337,-3.32,-3.334,-3.3736,-3.3702,-3.3631,-3.3522,-3.3738,-3.3758,-3.3696,-3.3989,-3.4076,-3.3949,-3.3649,-3.3503,-3.3402,-3.2367,-3.1787,-3.1408,-3.0648,-3.0357,-3.0251,-3.0007,-2.9991,-3.005,-2.9758,-2.9665,-2.9651,-2.973,-2.9792,-2.9822,-3.0005,-3.0158,-3.0266,-3.0266,-3.0158,-3.0036,-3.0036,-2.9898,-2.9761,-2.9761,-2.9682,-2.9602,-2.9602,-2.9602,-2.9602,-2.9602,-2.9602,-2.9602,-2.9602,-2.9602,-2.9602,-2.9602,-2.9602,-2.9602,-2.9602,-2.9602,-2.9602,-2.9602,-2.9602,-2.9209,-2.8268,-2.8101,-2.8016,-2.8016,-2.8016,-2.8087,-2.8227,-2.8227,-2.8227,-2.8227,-2.8227,-2.8227,-2.8227,-2.8227,-2.8464,-1.1206,-1.2481,-1.3799,-1.4916,-1.6031,0.0,-1.8961,-1.9333,0.0,-2.1566,0.0,0.0,0.0,-2.2151,-2.3997,-2.7158,-2.7665,-2.8085,-2.9364,-2.9546,-2.956,-2.9602,-2.9602,-2.9602,-2.9602,-2.9896,-3.008,-3.008,-3.0219,-3.0249,-3.0111,-2.9929,-3.0072,-3.0604,-3.0586,-3.0923,-3.1678,-3.1797,-3.2312,-3.3264,-3.3049,-3.2782,-3.2447,-3.2811,-3.2768,-3.2447,-3.3038,-3.3031,-3.2669,-3.3271,-3.3503,-3.3489,-3.3402,-3.2585,-3.1438,-3.0814,-3.0447,-3.0282,-3.0251,-3.0174,-3.008,-2.9853,-2.9777,-2.9747,-2.9665,-2.9713,-2.9808,-2.9822,-2.996,-3.0111,-3.0111,-2.996,-2.9822,-2.9822,-2.9713,-2.9602,-2.9602,-2.9602,-2.9602,-2.9602,-2.9602,-2.9602,-2.9602,-2.9602,-2.9602,-2.9602,-2.9602,-2.9602,-2.9602,-2.9602,-2.9602,-2.9602,-2.9602,-2.9602,-2.9602,-2.9602,-2.956,-2.949,-2.8942,-2.8633,-2.8633,-2.8633,-2.89,-2.9462,-2.9476,-2.9476,-2.9476,-2.9476,-2.9476,-2.9476,-2.9476,-2.949,-1.0543,-1.2359,-1.4212,-1.4828,-1.6425,0.0,0.0,-2.0611,-2.1664,-2.3558,-2.3642,0.0,0.0,0.0,-2.5486,-2.7482,-2.8129,-2.8647,-2.949,-2.9602,-2.9602,-2.9602,-2.9602,-2.9602,-2.9602,-2.9775,-2.9915,-2.9915,-2.9976,-2.9976,-2.9929,-2.9775,-2.9946,-3.0469,-3.0498,-3.0857,-3.1622,-3.1674,-3.1767,-3.1897,-3.2074,-3.2065,-3.1917,-3.208,-3.2065,-3.1964,-3.2291,-3.236,-3.2234,-3.2998,-3.3093,-3.2735,-3.2379,-3.1714,-3.0901,-3.0685,-3.0538,-3.0477,-3.0357,-3.0266,-3.0174,-2.9884,-2.9808,-2.9777,-2.9634,-2.9634,-2.9682,-2.9682,-2.9727,-2.9834,-3.005,-3.0036,-3.0005,-3.0005,-2.9837,-2.973,-2.973,-2.9651,-2.9602,-2.9602,-2.9602,-2.9602,-2.9602,-2.9602,-2.9602,-2.9602,-2.9602,-2.9602,-2.9602,-2.9602,-2.9602,-2.9602,-2.9602,-2.9602,-2.9602,-2.9602,-2.9602,-2.9602,-2.9392,-2.9265,-2.9265,-2.9265,-2.9378,-2.9602,-2.9602,-2.9602,-2.9602,-2.9602,-2.9602,-2.9602,-2.9602,-2.9602,-1.0595,-1.2567,-1.4615,-1.5149,0.0,0.0,-2.0386,-2.1476,-2.2841,-2.5093,-2.5091,0.0,-2.5738,0.0,0.0,0.0,-2.8422,-2.89,-2.9532,-2.9602,-2.9602,-2.9602,-2.9602,-2.9602,-2.9602,-2.9699,-2.9808,-2.9808,-2.9808,-2.9808,-2.9808,-2.9682,-2.9799,-3.0189,-3.0203,-3.0463,-3.1015,-3.1029,-3.0913,-3.0628,-3.0928,-3.1047,-3.1126,-3.1259,-3.1231,-3.1126,-3.1468,-3.1536,-3.1472,-3.2231,-3.231,-3.1878,-3.1512,-3.098,-3.0462,-3.0477,-3.0507,-3.0477,-3.0357,-3.0357,-3.0357,-3.0007,-2.9915,-2.9915,-2.9713,-2.9651,-2.9651,-2.9602,-2.9602,-2.9634,-2.9896,-2.9927,-2.9927,-2.9927,-2.9851,-2.973,-2.973,-2.9651,-2.9602,-2.9602,-2.9602,-2.9602,-2.9602,-2.9602,-2.9602,-2.9602,-2.9602,-2.9602,-2.9602,-2.9602,-2.9602,-2.9602,-2.9602,-2.9602,-2.9602,-2.9602,-2.9602,-2.9602,-2.9602,-2.9602,-2.9602,-2.9602,-2.9602,-2.9602,-2.9602,-2.9602,-2.9602,-2.9602,-2.9602,-2.9602,-2.9602,-2.9602,-1.165,-1.321,-1.4972,0.0,0.0,0.0,-2.1026,-2.1786,-2.3108,-2.6188,-2.6343,-2.6301,-2.758,-2.6779,0.0,-2.8394,-2.8689,-2.89,-2.9532,-2.9602,-2.9602,-2.9602,-2.9602,-2.9602,-2.9602,-2.9699,-2.9808,-2.9808,-2.9808,-2.9808,-2.9808,-2.9682,-2.9602,-2.9602,-2.9602,-2.9602,-2.9602,-2.9602,-2.9602,-2.9602,-2.9602,-2.9651,-2.9806,-3.0284,-3.0228,-2.9851,-3.0488,-3.0526,-3.0138,-3.0814,-3.1071,-3.1117,-3.1103,-3.0685,-3.0111,-3.0235,-3.0282,-3.0282,-3.0282,-3.0447,-3.0552,-3.0203,-3.0189,-3.0251,-2.9901,-2.9808,-2.9777,-2.9634,-2.9602,-2.9602,-2.9602,-2.9602,-2.9602,-2.9602,-2.9602,-2.9602,-2.9602,-2.9602,-2.9602,-2.9602,-2.9602,-2.9602,-2.9602,-2.9602,-2.9602,-2.9602,-2.9602,-2.9602,-2.9602,-2.9602,-2.9602,-2.9602,-2.9602,-2.9602,-2.9602,-2.9602,-2.9602,-2.9602,-2.9602,-2.9602,-2.9602,-2.9602,-2.9602,-2.9602,-2.9602,-2.9602,-2.9602,-2.9602,-2.9602,-2.9602,-2.9602,-2.9602,-1.1495,-1.3213,0.0,0.0,0.0,0.0,0.0,-2.3403,0.0,0.0,-2.7692,-2.7846,-2.7819,-2.7496,0.0,-2.8535,-2.8689,-2.89,-2.9532,-2.9602,-2.9602,-2.9602,-2.9602,-2.9602,-2.9602,-2.9634,-2.9651,-2.9651,-2.9651,-2.9651,-2.9651,-2.9634,-2.9602,-2.9602,-2.9602,-2.9602,-2.9602,-2.9602,-2.9602,-2.9602,-2.9602,-2.9634,-2.9665,-2.9785,-2.9771,-2.9665,-2.9862,-2.9865,-2.9772,-3.0066,-3.0563,-3.1028,-3.0599,-3.0283,-3.0111,-3.0127,-3.0158,-3.0158,-3.0266,-3.0357,-3.0387,-3.0266,-3.0266,-3.0251,-2.9901,-2.9808,-2.9777,-2.9634,-2.9602,-2.9602,-2.9602,-2.9602,-2.9602,-2.9602,-2.9602,-2.9602,-2.9602,-2.9602,-2.9602,-2.9602,-2.9602,-2.9602,-2.9602,-2.9602,-2.9602,-2.9602,-2.9602,-2.9602,-2.9602,-2.9602,-2.9602,-2.9602,-2.9602,-2.9602,-2.9602,-2.9602,-2.9602,-2.9602,-2.9602,-2.9602,-2.9602,-2.9602,-2.9602,-2.9602,-2.9602,-2.9602,-2.9602,-2.9602,-2.9602,-2.9602,-2.9602,-2.9602,-1.2584,-1.4349,0.0,0.0,0.0,0.0,-2.4147,0.0,0.0,0.0,-2.8268,-2.8647,-2.8535,-2.831,-2.8352,-2.8956,-2.9055,-2.9181,-2.956,-2.9602,-2.9602,-2.9602,-2.9602,-2.9602,-2.9602,-2.9602,-2.9602,-2.9602,-2.9602,-2.9602,-2.9602,-2.9602,-2.9602,-2.9602,-2.9602,-2.9602,-2.9602,-2.9602,-2.9602,-2.9602,-2.9602,-2.9602,-2.9602,-2.9602,-2.9602,-2.9602,-2.9602,-2.9602,-2.9602,-2.9682,-3.0032,-3.0452,-3.0069,-2.9896,-2.9927,-2.9974,-2.9974,-2.9991,-3.0144,-3.0219,-3.0219,-3.0219,-3.0219,-3.0174,-2.9884,-2.9808,-2.9777,-2.9634,-2.9602,-2.9602,-2.9602,-2.9602,-2.9602,-2.9602,-2.9602,-2.9602,-2.9602,-2.9602,-2.9602,-2.9602,-2.9602,-2.9602,-2.9602,-2.9602,-2.9602,-2.9602,-2.9602,-2.9602,-2.9602,-2.9602,-2.9602,-2.9602,-2.9602,-2.9602,-2.9602,-2.9602,-2.9602,-2.9602,-2.9602,-2.9602,-2.9602,-2.9602,-2.9602,-2.9602,-2.9602,-2.9602,-2.9602,-2.9602,-2.9602,-2.9602,-2.9602,-2.9602,-1.4163,0.0,0.0,0.0,0.0,0.0,-2.6064,0.0,-2.6947,-2.7735,0.0,-2.8872,-2.949,-2.9153,-2.8956,-2.9518,-2.9602,-2.9602,-2.9602,-2.9602,-2.9602,-2.9602,-2.9602,-2.9602,-2.9602,-2.9602,-2.9602,-2.9602,-2.9602,-2.9602,-2.9602,-2.9602,-2.9602,-2.9602,-2.9602,-2.9602,-2.9602,-2.9602,-2.9602,-2.9602,-2.9602,-2.9602,-2.9602,-2.9602,-2.9602,-2.9602,-2.9602,-2.9602,-2.9602,-2.9602,-2.9602,-2.9602,-2.9602,-2.9602,-2.9602,-2.973,-2.9777,-2.9822,-3.0005,-3.008,-3.008,-3.008,-3.008,-3.005,-2.9853,-2.9808,-2.9777,-2.9634,-2.9602,-2.9602,-2.9602,-2.9602,-2.9602,-2.9602,-2.9602,-2.9602,-2.9602,-2.9602,-2.9602,-2.9602,-2.9602,-2.9602,-2.9602,-2.9602,-2.9602,-2.9602,-2.9602,-2.9602,-2.9602,-2.9602,-2.9602,-2.9602,-2.9602,-2.9602,-2.9602,-2.9602,-2.9602,-2.9602,-2.9602,-2.9602,-2.9602,-2.9602,-2.9602,-2.9602,-2.9602,-2.9602,-2.9602,-2.9602,-2.9602,-2.9602,-2.9602,-2.9602,0.0,-1.4264,0.0,0.0,0.0,0.0,-2.5715,-2.609,-2.654,-2.8169,-2.8605,-2.8872,-2.949,-2.949,-2.9462,-2.9588,-2.9602,-2.9602,-2.9602,-2.9602,-2.9602,-2.9602,-2.9602,-2.9602,-2.9602,-2.9602,-2.9602,-2.9602,-2.9602,-2.9602,-2.9602,-2.9602,-2.9602,-2.9602,-2.9602,-2.9602,-2.9602,-2.9602,-2.9602,-2.9602,-2.9602,-2.9602,-2.9602,-2.9602,-2.9602,-2.9602,-2.9602,-2.9602,-2.9602,-2.9602,-2.9602,-2.9602,-2.9602,-2.9602,-2.9602,-2.9634,-2.9634,-2.9651,-2.9792,-2.9853,-2.9884,-3.0036,-3.008,-3.005,-2.9853,-2.9808,-2.9777,-2.9634,-2.9602,-2.9602,-2.9602,-2.9602,-2.9602,-2.9602,-2.9602,-2.9602,-2.9602,-2.9602,-2.9602,-2.9602,-2.9602,-2.9602,-2.9602,-2.9602,-2.9602,-2.9602,-2.9602,-2.9602,-2.9602,-2.9602,-2.9602,-2.9602,-2.9602,-2.9602,-2.9602,-2.9602,-2.9602,-2.9602,-2.9602,-2.9602,-2.9602,-2.9602,-2.9602,-2.9602,-2.9602,-2.9602,-2.9602,-2.9602,-2.9602,-2.9602,-2.9602,-2.9602,0.0,0.0,0.0,0.0,0.0,0.0,-2.5673,-2.5893,-2.6259,-2.7523,-2.8282,-2.8872,-2.949,-2.9602,-2.9602,-2.9602,-2.9602,-2.9602,-2.9602,-2.9602,-2.9602,-2.9602,-2.9602,-2.9602,-2.9602,-2.9602,-2.9602,-2.9602,-2.9602,-2.9602,-2.9602,-2.9602,-2.9602,-2.9602,-2.9602,-2.9602,-2.9602,-2.9602,-2.9602,-2.9602,-2.9602,-2.9602,-2.9602,-2.9602,-2.9602,-2.9602,-2.9602,-2.9602,-2.9602,-2.9602,-2.9602,-2.9602,-2.9602,-2.9602,-2.9602,-2.9602,-2.9602,-2.9602,-2.9682,-2.9699,-2.9713,-2.982,-2.9865,-2.982,-2.9744,-2.9699,-2.9738,-2.9954,-3.0052,-3.0091,-3.0431,-3.0502,-3.0502,-3.0502,-3.0052,-2.9602,-2.9602,-2.9602,-2.9602,-2.9602,-2.9602,-2.9602,-2.9602,-2.9602,-2.9602,-2.9602,-2.9602,-2.9602,-2.9602,-2.9602,-2.9602,-2.9602,-2.9602,-2.9602,-2.9602,-2.9602,-2.9602,-2.9602,-2.9602,-2.9602,-2.9602,-2.9602,-2.9602,-2.9602,-2.9602,-2.9602,-2.9602,-2.9602,-2.9602,-2.9602,-2.9602,-2.9602,0.0,0.0,0.0,0.0,0.0,0.0,-2.5564,-2.5729,-2.5966,-2.6652,-2.7636,-2.8549,-2.9181,-2.9378,-2.9448,-2.9448,-2.9532,-2.9602,-2.9602,-2.9602,-2.9602,-2.9602,-2.9602,-2.9602,-2.9602,-2.9602,-2.9602,-2.9602,-2.9602,-2.9602,-2.9602,-2.9602,-2.9602,-2.9602,-2.9602,-2.9602,-2.9602,-2.9602,-2.9602,-2.9602,-2.9602,-2.9602,-2.9602,-2.9602,-2.9602,-2.9602,-2.9602,-2.9602,-2.9602,-2.9602,-2.9602,-2.9602,-2.9602,-2.9602,-2.9602,-2.9602,-2.9602,-2.9602,-2.9602,-2.9602,-2.9631,-2.9729,-2.9687,-2.9645,-2.9869,-2.9855,-2.9897,-3.0484,-3.0652,-3.0811,-3.1359,-3.1485,-3.1485,-3.1485,-3.0698,-2.9897,-2.9785,-2.9855,-2.9869,-2.9645,-2.9602,-2.9602,-2.9602,-2.9602,-2.9602,-2.9602,-2.9602,-2.9602,-2.9602,-2.9602,-2.9645,-2.9757,-2.9771,-2.9771,-2.9771,-2.9771,-2.9715,-2.9617,-2.9602,-2.9602,-2.9602,-2.9602,-2.9602,-2.9602,-2.9602,-2.9602,-2.9602,-2.9602,-2.9602,-2.9602,-2.9602,-2.9602,0.0,0.0,0.0,0.0,0.0,0.0,0.0,0.0,-2.5451,0.0,-2.6947,-2.7256,-2.7932,-2.8464,-2.8816,-2.8816,-2.9265,-2.9602,-2.9602,-2.9602,-2.9602,-2.9602,-2.9602,-2.9602,-2.9602,-2.9602,-2.9602,-2.9602,-2.9602,-2.9602,-2.9602,-2.9602,-2.9602,-2.9602,-2.9602,-2.9602,-2.9602,-2.9602,-2.9602,-2.9602,-2.9602,-2.9602,-2.9602,-2.9602,-2.9602,-2.9602,-2.9602,-2.9602,-2.9602,-2.9602,-2.9602,-2.9602,-2.9602,-2.9602,-2.9602,-2.9602,-2.9602,-2.9602,-2.9602,-2.9602,-2.9701,-3.0203,-3.0052,-2.9813,-3.0909,-3.0839,-3.0512,-3.1176,-3.1359,-3.1387,-3.1471,-3.1485,-3.1485,-3.1485,-3.1359,-3.1092,-3.053,-3.0839,-3.0909,-2.9813,-2.9602,-2.9602,-2.9602,-2.9602,-2.9602,-2.9602,-2.9602,-2.9602,-2.9602,-2.9602,-2.9813,-3.0315,-3.0371,-3.0371,-3.0371,-3.0371,-3.0147,-2.9645,-2.9602,-2.9602,-2.9602,-2.9602,-2.9602,-2.9602,-2.9602,-2.9602,-2.9602,-2.9602,-2.9602,-2.9602,-2.9602,-2.9602,-1.1143,0.0,0.0,0.0,0.0,0.0,-2.4066,0.0,-2.4874,-2.605,-2.6301,-2.6596,-2.7622,-2.803,-2.8213,-2.8213,-2.8408,-2.8577,-2.8577,-2.8872,-2.9097,-2.9097,-2.9392,-2.9602,-2.9602,-2.9602,-2.9602,-2.9602,-2.9602,-2.9602,-2.9602,-2.9602,-2.9602,-2.9602,-2.9602,-2.9602,-2.9602,-2.9602,-2.9602,-2.9602,-2.9602,-2.9602,-2.9602,-2.9602,-2.9602,-2.9602,-2.9602,-2.9602,-2.9602,-2.9602,-2.9602,-2.9602,-2.9602,-2.9602,-2.9602,-2.9602,-2.9602,-2.9602,-2.9602,-2.9602,-2.9715,-3.0287,-3.0315,-3.0291,-3.1218,-3.1288,-3.119,-3.1822,-3.2005,-3.2075,-3.2426,-3.2511,-3.2511,-3.2511,-3.2511,-3.244,-3.2112,-3.178,-3.1316,-3.0769,-3.0656,-3.0656,-3.0656,-3.0656,-3.0656,-3.0656,-3.0656,-3.0656,-3.0656,-3.0656,-3.0769,-3.1036,-3.1064,-3.1064,-3.1064,-3.1064,-3.0797,-3.0119,-3.0091,-2.9968,-2.9617,-2.9602,-2.9602,-2.9602,-2.9602,-2.9602,-2.9602,-2.9602,-2.9602,-2.9602,-2.9602,-2.9602,0.0,0.0,0.0,0.0,0.0,0.0,0.0,0.0,-2.3838,0.0,-2.5466,-2.5953,-2.6915,-2.7338,-2.7566,-2.7566,-2.7693,-2.7805,-2.7805,-2.8199,-2.8464,-2.8464,-2.8998,-2.9378,-2.9378,-2.9518,-2.9602,-2.9602,-2.9602,-2.9602,-2.9602,-2.9602,-2.9602,-2.9602,-2.9602,-2.9602,-2.9602,-2.9602,-2.9602,-2.9602,-2.9602,-2.9602,-2.9602,-2.9602,-2.9602,-2.9602,-2.9602,-2.9602,-2.9602,-2.9602,-2.9602,-2.9602,-2.9602,-2.9602,-2.9602,-2.9602,-2.9602,-2.9602,-2.9602,-2.9602,-2.9729,-3.0516,-3.0656,-3.0666,-3.1668,-3.185,-3.185,-3.2469,-3.2637,-3.2736,-3.3164,-3.329,-3.329,-3.329,-3.329,-3.329,-3.329,-3.2356,-3.1541,-3.1696,-3.1597,-3.1485,-3.1485,-3.1485,-3.1485,-3.1485,-3.1485,-3.1485,-3.1485,-3.1485,-3.1555,-3.171,-3.1724,-3.1724,-3.1724,-3.1724,-3.1443,-3.0811,-3.0736,-3.0558,-3.0108,-3.008,-3.008,-3.008,-2.9926,-2.9757,-2.9602,-2.9602,-2.9602,-2.9602,-2.9771,-2.9715,0.0,0.0,0.0,0.0,0.0,0.0,0.0,0.0,-2.1967,-2.3093,-2.4236,-2.5075,-2.5115,-2.6076,-2.6863,-2.6863,-2.7383,-2.7805,-2.7805,-2.7833,-2.7862,-2.7862,-2.8366,-2.8745,-2.8745,-2.9265,-2.9602,-2.9602,-2.9602,-2.9602,-2.9602,-2.9602,-2.9602,-2.9602,-2.9602,-2.9602,-2.9602,-2.9602,-2.9602,-2.9602,-2.9602,-2.9602,-2.9602,-2.9602,-2.9602,-2.9602,-2.9602,-2.9602,-2.9602,-2.9602,-2.9602,-2.9602,-2.9602,-2.9602,-2.9602,-2.9602,-2.9602,-2.9602,-2.9602,-2.9602,-2.9799,-3.105,-3.1021,-3.0834,-3.2645,-3.282,-3.2483,-3.3066,-3.3234,-3.3248,-3.3276,-3.329,-3.329,-3.329,-3.329,-3.329,-3.329,-3.2356,-3.1668,-3.2244,-3.1893,-3.1485,-3.1485,-3.1485,-3.1485,-3.1485,-3.1485,-3.1485,-3.1485,-3.1485,-3.171,-3.23,-3.2356,-3.2356,-3.2356,-3.2356,-3.2089,-3.1485,-3.1443,-3.1429,-3.1387,-3.1387,-3.1387,-3.1387,-3.0783,-3.0161,-2.9602,-2.9602,-2.9602,-2.9617,-3.0175,-3.0039,0.0,0.0,0.0,0.0,0.0,-1.6442,-1.8705,-1.9876,-2.0805,-2.1995,-2.3092,-2.3824,-2.3824,-2.5148,-2.6217,-2.6217,-2.6413,-2.6596,-2.6596,-2.6905,-2.7158,-2.7158,-2.772,-2.8129,-2.8129,-2.8661,-2.9012,-2.9012,-2.9378,-2.9602,-2.9602,-2.9602,-2.9602,-2.9602,-2.9602,-2.9602,-2.9602,-2.9602,-2.9602,-2.9602,-2.9602,-2.9602,-2.9602,-2.9602,-2.9602,-2.9602,-2.9602,-2.9602,-2.9602,-2.9602,-2.9602,-2.9602,-2.9602,-2.9602,-2.9602,-2.9602,-2.9602,-2.9602,-2.9602,-2.9602,-2.9813,-3.1078,-3.1331,-3.1415,-3.2841,-3.3136,-3.3031,-3.322,-3.329,-3.329,-3.329,-3.329,-3.329,-3.329,-3.329,-3.329,-3.329,-3.2974,-3.2736,-3.296,-3.2806,-3.2665,-3.2665,-3.2665,-3.2665,-3.2665,-3.2665,-3.2665,-3.2665,-3.2665,-3.275,-3.296,-3.3002,-3.3002,-3.3002,-3.3002,-3.2736,-3.2117,-3.2075,-3.1893,-3.1513,-3.1485,-3.1238,-3.0753,-3.1015,-3.0825,-3.0161,-2.9799,-2.9813,-3.0161,-2.9872,-2.9826,-0.8068,0.0,0.0,0.0,0.0,-1.4401,-1.7182,0.0,-1.897,-2.0476,-2.1622,-2.24,-2.2594,-2.3795,-2.4942,-2.5522,-2.5784,-2.5893,-2.5893,-2.6245,-2.6512,-2.6512,-2.7059,-2.7453,-2.7453,-2.8015,-2.8394,-2.8394,-2.8759,-2.8998,-2.8998,-2.9195,-2.9392,-2.9602,-2.9602,-2.9602,-2.9602,-2.9602,-2.9602,-2.9602,-2.9602,-2.9602,-2.9602,-2.9602,-2.9602,-2.9602,-2.9602,-2.9634,-2.9651,-2.9634,-2.9634,-2.9651,-2.9634,-2.9602,-2.9602,-2.9602,-2.9602,-2.9602,-2.9602,-2.9602,-2.9785,-3.0825,-3.1316,-3.1682,-3.2707,-3.3122,-3.329,-3.329,-3.329,-3.329,-3.329,-3.329,-3.329,-3.329,-3.329,-3.329,-3.329,-3.329,-3.329,-3.329,-3.329,-3.329,-3.329,-3.329,-3.329,-3.329,-3.329,-3.329,-3.329,-3.329,-3.329,-3.329,-3.329,-3.329,-3.329,-3.329,-3.3108,-3.2736,-3.2707,-3.2525,-3.2117,-3.2103,-3.1735,-3.0899,-3.124,-3.1174,-3.0724,-3.0401,-3.0445,-3.082,-3.0227,-3.0158,0.0,0.0,0.0,0.0,0.0,0.0,-1.5658,0.0,-1.6343,-1.847,-1.9807,-2.0756,-2.1307,-2.1997,-2.2974,-2.4621,-2.5439,-2.5852,-2.5866,-2.5893,-2.5893,-2.5893,-2.6427,-2.6778,-2.6778,-2.7369,-2.7777,-2.7777,-2.7791,-2.7805,-2.7805,-2.8352,-2.897,-2.956,-2.9602,-2.9602,-2.9602,-2.9602,-2.9602,-2.9602,-2.9602,-2.9602,-2.9602,-2.9602,-2.9602,-2.9602,-2.9602,-2.9682,-2.9777,-2.9665,-2.9682,-2.9777,-2.9651,-2.9602,-2.9602,-2.9602,-2.9602,-2.9602,-2.9602,-2.9602,-2.9715,-3.0287,-3.0951,-3.1583,-3.2216,-3.282,-3.3262,-3.3276,-3.329,-3.329,-3.329,-3.329,-3.329,-3.329,-3.329,-3.329,-3.329,-3.329,-3.329,-3.329,-3.329,-3.329,-3.329,-3.329,-3.329,-3.329,-3.329,-3.329,-3.329,-3.329,-3.329,-3.329,-3.329,-3.329,-3.329,-3.329,-3.329,-3.329,-3.329,-3.329,-3.329,-3.3241,-3.286,-3.2074,-3.1482,-3.1184,-3.1148,-3.1348,-3.1499,-3.1527,-3.1281,-3.1078,-0.7888,0.0,0.0,0.0,0.0,0.0,0.0,0.0,-1.463,-1.6331,-1.7242,-1.8129,-1.9446,-2.0536,-2.1487,-2.2315,-2.37,-2.4819,-2.5189,-2.5619,-2.5893,-2.5893,-2.6048,-2.6146,-2.6146,-2.6708,-2.7074,-2.7074,-2.7538,-2.7805,-2.7805,-2.8352,-2.8774,-2.8942,-2.9378,-2.9602,-2.9602,-2.9602,-2.9602,-2.9602,-2.9602,-2.9602,-2.9602,-2.9602,-2.9602,-2.9602,-2.9602,-2.9682,-2.9777,-2.9665,-2.9634,-2.9651,-2.9602,-2.9602,-2.9602,-2.9602,-2.9602,-2.9602,-2.9602,-2.9602,-2.9715,-3.0287,-3.0642,-3.0993,-3.2075,-3.2525,-3.275,-3.3164,-3.329,-3.329,-3.329,-3.329,-3.329,-3.329,-3.329,-3.329,-3.329,-3.329,-3.329,-3.329,-3.329,-3.329,-3.329,-3.329,-3.329,-3.329,-3.329,-3.329,-3.329,-3.329,-3.329,-3.329,-3.329,-3.329,-3.329,-3.329,-3.329,-3.329,-3.2739,-3.2704,-3.329,-3.2187,-3.1466,-3.123,-3.1072,-3.0697,-3.0098,-3.0454,-3.1157,-3.2126,-3.137,-3.0639,0.0,0.0,0.0,0.0,0.0,0.0,-1.2975,-1.3095,-1.3402,-1.5394,-1.6054,-1.6691,-1.8085,-1.8888,-1.9563,-2.033,-2.1557,-2.2844,-2.4087,-2.4542,-2.497,-2.5467,-2.5536,-2.5536,-2.5536,-2.6078,-2.6316,-2.6063,-2.6637,-2.713,-2.7355,-2.772,-2.8141,-2.8675,-2.904,-2.935,-2.9602,-2.9602,-2.9602,-2.9602,-2.9602,-2.9602,-2.9602,-2.9602,-2.9602,-2.9602,-2.9602,-2.962,-2.9699,-2.9634,-2.9634,-2.9682,-2.9634,-2.9602,-2.9602,-2.9602,-2.9602,-2.9602,-2.9602,-2.9602,-2.9673,-3.0024,-3.0273,-3.0624,-3.1368,-3.1808,-3.2103,-3.2455,-3.2736,-3.3002,-3.322,-3.329,-3.329,-3.329,-3.329,-3.329,-3.329,-3.329,-3.329,-3.329,-3.329,-3.329,-3.329,-3.329,-3.329,-3.329,-3.329,-3.329,-3.329,-3.329,-3.329,-3.329,-3.329,-3.329,-3.329,-3.329,-3.329,-3.329,-3.2547,-3.2304,-3.2775,-3.1905,-3.1068,-3.0405,-3.0745,-3.0519,-2.9704,-3.0278,-3.0784,-3.1276,-3.0664,-2.9961,0.0,0.0,0.0,0.0,-1.1668,0.0,-1.3457,-1.2938,-1.2626,-1.4902,-1.5382,-1.5718,-1.6859,-1.7111,-1.7471,-1.8554,-1.9275,-2.0485,-2.2693,-2.308,-2.3528,-2.4594,-2.4773,-2.4829,-2.4896,-2.537,-2.5508,-2.502,-2.5508,-2.6077,-2.668,-2.6764,-2.7326,-2.845,-2.8619,-2.8956,-2.949,-2.9574,-2.9602,-2.9602,-2.9602,-2.9602,-2.9602,-2.9602,-2.9602,-2.9602,-2.9602,-2.9602,-2.9602,-2.9602,-2.9682,-2.9761,-2.9665,-2.9602,-2.9602,-2.9602,-2.9602,-2.9602,-2.9602,-2.9602,-2.9602,-2.9602,-2.9968,-3.0399,-3.0469,-3.0923,-3.1387,-3.1471,-3.1935,-3.2525,-3.3073,-3.3234,-3.329,-3.329,-3.329,-3.329,-3.329,-3.329,-3.329,-3.329,-3.329,-3.329,-3.329,-3.329,-3.329,-3.329,-3.329,-3.329,-3.329,-3.329,-3.329,-3.3171,-3.3241,-3.3241,-3.3051,-3.3206,-3.3206,-3.3051,-3.2354,-3.1965,-3.1965,-3.1783,-3.1068,-2.9742,-3.0291,-3.0304,-2.9549,-3.0443,-3.0481,-2.9704,-2.9704,-2.9263,-1.2487,-1.295,-1.3409,-1.2318,0.0,0.0,-1.1993,-1.215,-1.2559,-1.2638,-1.2662,-1.3125,-1.4639,-1.5202,-1.5816,-1.6895,-1.7896,-1.931,-2.1534,-2.2313,-2.272,-2.2948,-2.3353,-2.381,-2.4314,-2.4368,-2.4545,-2.4964,-2.5118,-2.5439,-2.6034,-2.654,-2.6919,-2.7172,-2.8169,-2.8759,-2.8872,-2.9364,-2.9602,-2.9602,-2.9602,-2.9602,-2.9602,-2.9602,-2.9602,-2.9602,-2.9602,-2.9602,-2.9602,-2.9602,-2.9602,-2.9634,-2.9602,-2.9602,-2.9602,-2.9602,-2.9602,-2.9602,-2.9602,-2.9602,-2.9602,-2.9602,-2.9687,-2.9883,-3.0343,-3.0582,-3.0825,-3.1345,-3.1935,-3.244,-3.2553,-3.296,-3.329,-3.329,-3.329,-3.329,-3.329,-3.329,-3.329,-3.329,-3.329,-3.329,-3.329,-3.329,-3.329,-3.329,-3.329,-3.329,-3.329,-3.329,-3.3051,-3.239,-3.2895,-3.2789,-3.1502,-3.2561,-3.2753,-3.1466,-3.123,-3.1119,-3.1119,-2.9896,-2.9367,-2.9704,-2.9223,-2.8882,-2.8736,-3.019,-3.0481,-2.9704,-2.9704,-2.9263,-1.4081,-1.4249,-1.4526,-1.3985,0.0,0.0,0.0,-1.2866,-1.292,-1.3696,-1.3227,-1.3173,-1.4775,-1.5022,-1.5265,-1.6056,-1.6883,-1.7787,-1.8905,-2.0034,-2.0955,-2.1518,-2.1837,-2.2247,-2.2804,-2.3111,-2.3471,-2.4058,-2.466,-2.5118,-2.5425,-2.6022,-2.6497,-2.6793,-2.7425,-2.8057,-2.8675,-2.8998,-2.9307,-2.9602,-2.9602,-2.9602,-2.9602,-2.9602,-2.9602,-2.9602,-2.9602,-2.9602,-2.9602,-2.9602,-2.9602,-2.9602,-2.9602,-2.9602,-2.9602,-2.9602,-2.9602,-2.9602,-2.9602,-2.9602,-2.9602,-2.9602,-2.9602,-2.9673,-2.9968,-3.0066,-3.0161,-3.0825,-3.1471,-3.2019,-3.2328,-3.2862,-3.329,-3.329,-3.329,-3.329,-3.329,-3.329,-3.329,-3.329,-3.329,-3.329,-3.329,-3.329,-3.329,-3.329,-3.329,-3.329,-3.329,-3.2931,-3.2547,-3.2146,-3.2101,-3.1759,-3.097,-3.1649,-3.1759,-3.097,-3.0519,-3.0291,-3.0291,-2.9523,-2.9289,-2.9704,-2.8922,-2.851,-2.851,-2.9289,-2.9484,-2.9106,-2.9106,-2.8882,0.0,0.0,0.0,0.0,0.0,-1.4979,0.0,0.0,0.0,-1.4938,-1.4285,0.0,0.0,0.0,-1.4902,-1.543,-1.6042,-1.6415,-1.6319,-1.7399,-1.8663,-1.9782,-2.0075,-2.0461,-2.1121,-2.1681,-2.2242,-2.2838,-2.3692,-2.4389,-2.4815,-2.5287,-2.5883,-2.6582,-2.6623,-2.7239,-2.8507,-2.8633,-2.8998,-2.9602,-2.9602,-2.9602,-2.9602,-2.9463,-2.9477,-2.9571,-2.9463,-2.9477,-2.9602,-2.9602,-2.9602,-2.9602,-2.9602,-2.9602,-2.9602,-2.9602,-2.9602,-2.9602,-2.9602,-2.9602,-2.9602,-2.9602,-2.9602,-2.9602,-2.9602,-2.9602,-2.9715,-3.0175,-3.0895,-3.1597,-3.2103,-3.2778,-3.329,-3.329,-3.3171,-3.3122,-3.329,-3.3171,-3.3122,-3.329,-3.329,-3.329,-3.329,-3.329,-3.329,-3.329,-3.329,-3.3241,-3.3086,-3.2511,-3.1965,-3.1673,-3.1193,-3.0782,-3.0443,-3.0707,-3.0782,-3.0443,-2.9961,-2.9626,-2.9484,-2.9484,-2.9484,-2.9484,-2.8843,-2.851,-2.851,-2.851,-2.851,-2.851,-2.851,-2.851,0.0,0.0,0.0,0.0,-1.6787,0.0,0.0,0.0,-1.4986,-1.339,0.0,0.0,0.0,0.0,0.0,-1.4385,-1.5271,-1.572,-1.5253,-1.5336,-1.586,-1.6929,-1.7904,-1.8917,-1.9978,-2.0156,-2.0599,-2.1622,-2.1388,-2.2083,-2.4177,-2.4231,-2.4751,-2.5964,-2.6005,-2.6596,-2.7904,-2.8422,-2.8998,-2.9602,-2.9602,-2.9602,-2.9571,-2.8903,-2.898,-2.9571,-2.8917,-2.9012,-2.9602,-2.9602,-2.9602,-2.9602,-2.9602,-2.9602,-2.9602,-2.9602,-2.9602,-2.9602,-2.9602,-2.9602,-2.9602,-2.9602,-2.9602,-2.9602,-2.9602,-2.9602,-2.9617,-2.9687,-3.0572,-3.1513,-3.1569,-3.2455,-3.329,-3.329,-3.2775,-3.2426,-3.3136,-3.2739,-3.2461,-3.3171,-3.329,-3.329,-3.329,-3.329,-3.329,-3.329,-3.329,-3.3051,-3.2318,-3.216,-3.1563,-3.0114,-3.0519,-3.0329,-2.8882,-3.0075,-3.0291,-2.8843,-2.9367,-2.9367,-2.8657,-2.863,-2.863,-2.863,-2.855,-2.851,-2.851,-2.851,-2.851,-2.851,-2.851,-2.851,0.0,0.0,0.0,0.0,0.0,0.0,-1.5668,-1.5322,-1.5253,-1.4998,0.0,0.0,0.0,0.0,0.0,0.0,-1.4642,-1.4622,-1.378,-1.3937,-1.4514,-1.554,-1.5828,-1.648,-1.7859,-1.8534,-1.9096,-1.9543,-1.9982,-2.0934,-2.2554,-2.321,-2.391,-2.4768,-2.478,-2.5412,-2.6681,-2.7288,-2.8091,-2.9083,-2.8986,-2.8949,-2.8949,-2.826,-2.8097,-2.8371,-2.8065,-2.8097,-2.8371,-2.8371,-2.8371,-2.8371,-2.8371,-2.8881,-2.9602,-2.9602,-2.9602,-2.9602,-2.9602,-2.9602,-2.9602,-2.9602,-2.9602,-2.9602,-2.9602,-2.9602,-2.9579,-2.9467,-3.041,-3.1455,-3.1371,-3.2326,-3.3171,-3.2704,-3.2354,-3.2037,-3.1955,-3.1636,-3.1489,-3.1833,-3.1919,-3.1919,-3.1919,-3.2282,-3.2583,-3.2583,-3.2209,-3.1942,-3.2074,-3.1267,-3.0443,-2.9768,-2.9588,-2.9223,-2.855,-2.9106,-2.9223,-2.855,-2.8803,-2.8843,-2.851,-2.851,-2.851,-2.851,-2.851,-2.851,-2.851,-2.851,-2.851,-2.851,-2.851,-2.851,-1.7929,-1.8229,-1.8434,-1.7616,-1.7387,-1.7219,-1.6547,-1.6018,-1.5814,-1.6283,-1.5716,0.0,0.0,0.0,0.0,0.0,0.0,-1.3915,-1.2854,-1.2914,-1.339,-1.4277,-1.4442,-1.4923,-1.6054,-1.6753,-1.7314,-1.7737,-1.84,-1.9433,-2.097,-2.1964,-2.2899,-2.3744,-2.3768,-2.4354,-2.5641,-2.6088,-2.6921,-2.8143,-2.8039,-2.8085,-2.8214,-2.7504,-2.7317,-2.7484,-2.7284,-2.7317,-2.7517,-2.7517,-2.7517,-2.7517,-2.7517,-2.8111,-2.904,-2.923,-2.9432,-2.9602,-2.9602,-2.9602,-2.9602,-2.9602,-2.9602,-2.9602,-2.9602,-2.9729,-2.9782,-2.9419,-3.0335,-3.1322,-3.0978,-3.176,-3.2475,-3.1905,-3.1599,-3.1328,-3.097,-3.0745,-3.0632,-3.0857,-3.0895,-3.082,-3.0594,-3.123,-3.1783,-3.1783,-3.1267,-3.1044,-3.1415,-3.0405,-2.9626,-2.9406,-2.8843,-2.851,-2.851,-2.851,-2.851,-2.851,-2.851,-2.851,-2.851,-2.851,-2.851,-2.851,-2.851,-2.851,-2.851,-2.851,-2.851,-2.851,-2.851,-2.851,-1.9227,-1.9324,-1.9387,-1.7796,-1.7387,-1.7111,-1.6078,-1.6607,-1.7039,-1.602,-1.6607,-1.6991,-1.5994,0.0,0.0,0.0,0.0,0.0,0.0,-1.227,-1.215,-1.2704,-1.4073,-1.5001,-1.5061,-1.4666,-1.5037,-1.6535,-1.6199,-1.7115,-1.9812,-2.0434,-2.1444,-2.3184,-2.3153,-2.3743,-2.503,-2.5056,-2.5634,-2.675,-2.6763,-2.7033,-2.7517,-2.6778,-2.6812,-2.7451,-2.6756,-2.6845,-2.7517,-2.7517,-2.7517,-2.7517,-2.7517,-2.7517,-2.7637,-2.8312,-2.898,-2.9602,-2.9602,-2.9602,-2.9602,-2.9602,-2.9602,-2.9602,-2.9602,-3.0024,-3.0294,-2.9528,-3.0235,-3.1023,-3.025,-3.0501,-3.097,-3.0932,-3.0329,-2.9999,-3.0745,-3.0291,-2.9961,-3.0745,-3.0895,-3.0632,-2.9884,-3.0405,-3.0932,-3.0932,-3.0932,-3.0632,-2.9884,-2.9742,-2.9406,-2.8618,-2.851,-2.851,-2.851,-2.851,-2.851,-2.851,-2.851,-2.851,-2.851,-2.851,-2.851,-2.851,-2.851,-2.851,-2.851,-2.851,-2.851,-2.851,-2.851,-2.851,-2.0069,-2.0454,-2.0466,-1.8855,-1.8458,-1.8085,-1.6655,-1.6883,-1.7087,-1.6008,-1.6655,-1.7063,-1.5984,0.0,0.0,0.0,0.0,0.0,0.0,-1.1399,-1.1039,0.0,0.0,0.0,-1.348,-1.3662,-1.4132,-1.5004,-1.519,-1.6144,-1.8142,-1.9422,-2.0495,-2.146,-2.2156,-2.2898,-2.3726,-2.4126,-2.4937,-2.6091,-2.6,-2.6243,-2.6744,-2.6,-2.5826,-2.6022,-2.5791,-2.5826,-2.6057,-2.6057,-2.6057,-2.6057,-2.6057,-2.6333,-2.6845,-2.7571,-2.7999,-2.8208,-2.8208,-2.8208,-2.8274,-2.8712,-2.8871,-2.8922,-2.9282,-2.9542,-2.9591,-2.9106,-2.9673,-3.0306,-2.992,-3.0339,-3.0782,-3.0215,-2.9884,-2.9626,-2.9367,-2.9106,-2.9,-2.925,-2.9289,-2.9223,-2.8949,-2.9145,-2.9471,-3.0037,-2.9665,-2.9406,-2.9665,-2.9223,-2.8803,-2.855,-2.851,-2.851,-2.851,-2.851,-2.851,-2.851,-2.851,-2.851,-2.851,-2.851,-2.851,-2.851,-2.851,-2.851,-2.851,-2.851,-2.851,-2.851,-2.851,-2.851,-2.0622,-2.1007,-2.1067,-1.9636,-1.9275,-1.8855,-1.7243,-1.746,-1.7651,-1.6595,-1.6919,-1.7327,-1.6991,-1.5876,0.0,0.0,0.0,0.0,0.0,-1.1183,0.0,0.0,0.0,0.0,0.0,-1.2782,-1.3173,-1.4462,-1.4313,-1.5034,-1.7003,-1.8277,-1.936,-2.0286,-2.1175,-2.2001,-2.2781,-2.3158,-2.3854,-2.4798,-2.4916,-2.5231,-2.5716,-2.5426,-2.5312,-2.5312,-2.5312,-2.5312,-2.5312,-2.5312,-2.5312,-2.5312,-2.5312,-2.5581,-2.6104,-2.6845,-2.7271,-2.7517,-2.7517,-2.7517,-2.7571,-2.7986,-2.8149,-2.8224,-2.8772,-2.9093,-2.9191,-2.8884,-2.9314,-2.9805,-2.9384,-2.9665,-2.9922,-2.9406,-2.925,-2.9145,-2.8618,-2.851,-2.851,-2.851,-2.851,-2.851,-2.851,-2.851,-2.8657,-2.9184,-2.8843,-2.8697,-2.9223,-2.8803,-2.851,-2.851,-2.851,-2.851,-2.851,-2.851,-2.851,-2.851,-2.851,-2.851,-2.851,-2.851,-2.851,-2.851,-2.851,-2.851,-2.851,-2.851,-2.851,-2.851,-2.851,-2.851]},{"header":{"parameterUnit":"m.s-1","parameterCategory":1,"la1":30.6,"la2":29.2853,"lo1":-89.7004,"lo2":-87.6739,"dy":0.0162,"dx":0.0183,"nx":112,"ny":82,"refTime":"2024-08-24T18:00:00:Z","depth":0,"parameterNumber":3,"parameterNumberName":"V-component_of_WINDS"},"data":[0.0,0.0,0.0,0.0,0.0,0.0,0.0,0.0,0.0,0.0,0.0,0.0,0.0,0.0,0.0,0.0,0.0,0.0,0.0,0.0,0.0,0.0,0.0,0.0,0.0,0.0,0.0,0.0,0.0,0.0,0.0,0.0,0.0,0.0,0.0,0.0,0.0,0.0,0.0,0.0,0.0,0.0,0.0,0.0,0.0,0.0,0.0,0.0,0.0,0.0,0.0,0.0,0.0,0.0,0.0,0.0,0.0,0.0,0.0,0.0,0.0,0.0,0.0,0.0,0.0,0.0,0.0,0.0,0.0,0.0,0.0,0.0,0.0,0.0,0.0,0.0,0.0,0.0,0.0,0.0,0.0,0.0,0.0,0.0,0.0,0.0,0.0,0.0,0.0,0.0,1.0705,1.2701,1.5349,1.6814,1.6482,1.6547,1.5047,1.1395,0.0,0.0,0.0,0.0,0.0,0.0,0.0,0.0,0.0,0.0,0.0,0.0,0.0,0.0,0.0,0.0,0.0,0.0,0.0,0.0,0.0,0.0,0.0,0.0,0.0,0.0,0.0,0.0,0.0,0.0,0.0,0.0,0.0,0.0,0.0,0.0,0.0,0.0,0.0,0.0,0.0,0.0,0.0,0.0,0.0,0.0,0.0,0.0,0.0,0.0,0.0,0.0,0.0,0.0,0.0,0.0,0.0,0.0,0.0,0.0,0.0,0.0,0.0,0.0,0.0,0.0,0.0,0.0,0.0,0.0,0.0,0.0,0.0,0.0,0.0,0.0,0.0,0.0,0.0,0.0,0.0,0.0,0.0,0.0,0.0,0.0,0.0,0.0,0.0,0.0,0.0,0.0,0.0,0.0,0.0,0.0,0.0,0.0,0.0,0.0,0.0,0.0,0.0,0.0,1.0869,1.4043,1.5798,1.6493,1.5895,1.632,1.4999,1.1264,0.0,0.0,0.0,0.0,0.0,0.0,0.0,0.0,0.0,0.0,0.0,0.0,0.0,0.0,0.0,0.0,0.0,0.0,0.0,0.0,0.0,0.0,0.0,0.0,0.0,0.0,0.0,0.0,0.0,0.0,0.0,0.0,0.0,0.0,0.0,0.0,0.0,0.0,0.0,0.0,0.0,0.0,0.0,0.0,0.0,0.0,0.0,0.0,0.0,0.0,0.0,0.0,0.0,0.0,0.0,0.0,0.0,0.0,0.0,0.0,0.0,0.0,0.0,0.0,0.0,0.0,0.0,0.0,0.0,0.0,0.0,0.0,0.0,0.0,0.0,0.0,0.0,0.0,0.0,0.0,0.0,0.0,0.0,0.0,0.0,0.0,0.0,0.0,0.0,0.0,0.0,0.0,0.0,0.0,0.0,0.0,0.0,0.0,0.0,0.0,0.0,0.0,0.0,1.0971,1.294,1.5459,1.6912,1.726,1.6263,1.6445,1.5031,1.1336,1.125,0.0,0.0,0.0,0.0,0.0,0.0,0.0,0.0,0.0,0.0,0.0,0.0,0.0,0.0,0.0,0.0,0.0,0.0,0.0,0.0,0.0,0.0,0.0,0.0,0.0,0.0,0.0,0.0,0.0,0.0,0.0,0.0,0.0,0.0,0.0,0.0,0.0,0.0,0.0,0.0,0.0,0.0,0.0,0.0,0.0,0.0,0.0,0.0,0.0,0.0,0.0,0.0,0.0,0.0,0.0,0.0,0.0,0.0,0.0,0.0,0.0,0.0,0.0,0.0,0.0,0.0,0.0,0.0,0.0,0.0,0.0,0.0,0.0,0.0,0.0,0.0,0.0,0.0,0.0,0.0,0.0,0.0,0.0,0.0,0.0,0.0,0.0,0.0,0.0,0.0,0.0,0.0,0.0,0.0,0.0,0.0,0.0,0.0,0.0,0.0,0.0,0.0,1.3205,1.4738,1.6309,1.766,1.7902,1.6641,1.6333,1.4769,1.1417,1.0804,0.0,0.0,0.0,0.0,0.0,0.0,0.0,0.0,0.0,0.0,0.0,0.0,0.0,0.0,0.0,0.0,0.0,0.0,0.0,0.0,0.0,0.0,0.0,0.0,0.0,0.0,0.0,0.0,0.0,0.0,0.0,0.0,0.0,0.0,0.0,0.0,0.0,0.0,0.0,0.0,0.0,0.0,0.0,0.0,0.0,0.0,0.0,0.0,0.0,0.0,0.0,0.0,0.0,0.0,0.0,0.0,0.0,0.0,0.0,0.0,0.0,0.0,0.0,0.0,0.0,0.0,0.0,0.0,0.0,0.0,0.0,0.0,0.0,0.0,0.0,0.0,0.0,0.0,0.0,0.0,0.0,0.0,0.0,0.0,0.0,0.0,0.0,0.0,0.0,0.0,0.0,0.0,0.0,0.0,0.0,0.0,0.0,0.0,0.0,0.0,0.0,0.0,1.3066,1.4889,1.6005,1.7389,1.7725,1.6431,1.5515,1.3926,1.136,0.9612,0.0,0.0,0.0,0.0,0.0,0.0,0.0,0.0,0.0,0.0,0.0,0.0,0.0,0.0,0.0,0.0,0.0,0.0,0.0,0.0,0.0,0.0,0.0,0.0,0.0,0.0,0.0,0.0,0.0,0.0,0.0,0.0,0.0,0.0,0.0,0.0,0.0,0.0,0.0,0.0,0.0,0.0,0.0,0.0,0.0,0.0,0.0,0.0,0.0,0.0,0.0,0.0,0.0,0.0,0.0,0.0,0.0,0.0,0.0,0.0,0.0,0.0,0.0,0.0,0.0,0.0,0.0,0.0,0.0,0.0,0.0,0.0,0.0,0.0,0.0,0.0,0.0,0.0,0.0,0.0,0.0,0.0,0.0,0.0,0.0,0.0,0.0,0.0,0.0,0.0,0.0,0.0,0.0,0.0,0.0,0.0,0.0,0.0,0.0,0.0,0.0,0.0,1.2636,1.4456,0.0,1.7254,1.7511,1.6291,1.5521,1.3938,1.1244,0.0,0.0,0.0,0.0,0.0,0.0,0.0,0.0,0.0,0.0,0.0,0.0,0.0,0.0,0.0,0.0,0.0,0.0,0.0,0.0,0.0,0.0,0.0,0.0,0.0,0.0,0.0,0.0,0.0,0.0,0.0,0.0,0.0,0.0,0.0,0.0,0.0,0.0,0.0,0.0,0.0,0.0,0.0,0.0,0.0,0.0,0.0,0.0,0.0,0.0,0.0,0.0,0.0,0.0,0.0,0.0,0.0,0.0,0.0,0.0,0.0,0.0,0.0,0.0,0.0,0.0,0.0,0.0,0.0,0.0,0.0,0.0,0.0,0.0,0.0,0.0,0.0,0.0,0.0,0.0,0.0,0.0,0.0,0.0,0.0,0.0,0.0,0.0,0.0,0.0,0.0,0.0,0.0,0.0,0.0,0.0,0.0,0.0,0.0,0.0,0.0,0.0,1.0545,1.232,1.4115,0.0,1.6799,1.6981,1.6168,1.5019,1.3371,1.1073,0.0,0.0,0.0,0.0,0.0,0.0,0.0,0.0,0.0,0.0,0.0,0.0,0.0,0.0,0.0,0.0,0.0,0.0,0.0,0.0,0.0,0.0,0.0,0.0,0.0,0.0,0.0,0.0,0.0,0.0,0.0,0.0,0.0,0.0,0.0,0.0,0.0,0.0,0.0,0.0,0.0,0.0,0.0,0.0,0.0,0.0,0.0,0.0,0.0,0.0,0.0,0.0,0.0,0.0,0.0,0.0,0.0,0.0,0.0,0.0,0.0,0.0,0.0,0.0,0.0,0.0,0.0,0.0,0.0,0.0,0.0,0.0,0.0,0.0,0.0,0.0,0.0,0.0,0.0,0.0,0.0,0.0,0.0,0.0,0.0,0.0,0.0,0.0,0.0,0.0,0.0,0.0,0.0,0.0,0.0,0.0,0.0,0.0,0.0,0.0,0.0,0.0,1.0474,1.2223,1.3998,1.5806,1.5977,1.6013,1.6086,1.3891,1.2021,0.0,0.0,0.0,0.0,0.0,0.0,0.0,0.0,0.0,0.0,0.0,0.0,0.0,0.0,0.0,0.0,0.0,0.0,0.0,0.0,0.0,0.0,0.0,0.0,0.0,0.0,0.0,0.0,0.0,0.0,0.0,0.0,0.0,0.0,0.0,0.0,0.0,0.0,0.0,0.0,0.0,0.0,0.0,0.0,0.0,0.0,0.0,0.0,0.0,0.0,0.0,0.0,0.0,0.0,0.0,0.0,0.0,0.0,0.0,0.0,0.0,0.0,0.0,0.0,0.0,0.0,0.0,0.0,0.0,0.0,0.0,0.0,0.0,0.0,0.0,0.0,0.0,0.0,0.0,0.0,0.0,0.0,0.0,0.0,0.0,0.0,0.0,0.0,0.0,0.0,0.0,0.0,0.0,0.0,0.0,0.0,0.0,0.0,0.0,0.0,0.0,0.0,0.0,1.0512,1.2487,1.4169,1.5114,1.5599,1.5716,1.5416,1.396,1.2427,1.0898,0.0,0.0,0.0,0.0,0.0,0.0,0.0,0.0,0.0,0.0,0.0,0.0,0.0,0.0,0.0,0.0,0.0,0.0,0.0,0.0,0.0,0.0,0.0,0.0,0.0,0.0,0.0,0.0,0.0,0.0,0.0,0.0,0.0,0.0,0.0,0.0,0.0,0.0,0.0,0.0,0.0,0.0,0.0,0.0,0.0,0.0,0.0,0.0,0.0,0.0,0.0,0.0,0.0,0.0,0.0,0.0,0.0,0.0,0.0,0.0,0.0,0.0,0.0,0.0,0.0,0.0,0.0,0.0,0.0,0.0,0.0,0.0,0.0,0.0,0.0,0.0,0.0,0.0,0.0,0.0,0.0,0.0,0.0,0.0,0.0,0.0,0.0,0.0,0.0,0.0,0.0,0.0,0.0,0.0,0.0,0.0,0.0,0.0,0.0,0.0,0.0,0.0,1.0416,1.2532,1.4282,1.5132,1.5336,1.5398,1.5381,1.4054,1.2596,1.1128,0.0,0.0,0.0,0.0,0.0,0.0,0.0,0.0,0.0,0.0,0.0,0.0,0.0,0.0,0.0,0.0,0.0,0.0,0.0,0.0,0.0,0.0,0.0,0.0,0.0,0.0,0.0,0.0,0.0,0.0,0.0,0.0,0.0,0.0,0.0,0.0,0.0,0.0,0.0,0.0,0.0,0.0,0.0,0.0,0.0,0.0,0.0,0.0,0.0,0.0,0.0,0.0,0.0,0.0,0.0,0.0,0.0,0.0,0.0,0.0,0.0,0.0,0.0,0.0,0.0,0.0,0.0,0.0,0.0,0.0,0.0,0.0,0.0,0.0,0.0,0.0,0.0,0.0,0.0,0.0,0.0,0.0,0.0,0.0,0.0,0.0,0.0,0.0,0.0,0.0,0.0,0.0,0.0,0.0,0.0,0.0,0.0,0.0,0.0,0.0,0.0,0.0,1.0359,1.2519,1.4405,1.5557,1.5188,1.5096,1.5665,1.4156,1.2679,1.1482,0.0,0.0,0.0,0.0,0.0,0.0,0.0,0.0,0.0,0.0,0.0,0.0,0.0,0.0,0.0,0.0,0.0,0.0,0.0,0.0,0.0,0.0,0.0,0.0,0.0,0.0,0.0,0.0,0.0,0.0,0.0,0.0,0.0,0.0,0.0,0.0,0.0,0.0,0.0,0.0,0.0,0.0,0.0,0.0,0.0,0.0,0.0,0.0,0.0,0.0,0.0,0.0,0.0,0.0,0.0,0.0,0.0,0.0,0.0,0.0,1.0498,0.9908,0.0,0.0,0.0,0.0,0.0,0.0,0.0,0.0,0.0,0.0,0.0,0.0,0.0,0.0,0.0,0.0,0.0,0.0,0.0,0.0,0.0,0.0,0.0,0.0,0.0,0.0,0.0,0.0,0.0,0.0,0.0,0.0,0.0,0.0,0.0,0.0,0.0,0.0,0.0,0.0,1.1005,1.3064,1.4725,1.5459,1.5419,1.5265,1.5043,1.4215,1.307,1.1495,0.9735,0.0,0.0,0.0,0.0,0.0,0.0,0.0,0.0,0.0,0.0,0.0,0.0,0.0,0.0,0.0,0.0,0.0,0.0,0.0,0.0,0.0,0.0,0.0,0.0,0.0,0.0,0.0,0.0,0.0,0.0,0.0,0.0,0.0,0.0,0.0,0.0,0.0,0.0,0.0,0.0,0.0,0.0,0.0,0.0,0.0,0.0,0.0,0.0,0.0,0.0,0.0,0.0,0.0,0.0,0.0,0.0,0.0,0.0,0.0,1.2418,1.1727,0.0,0.0,0.0,0.0,0.0,0.0,0.0,0.0,0.0,0.0,0.0,0.0,0.0,0.0,0.0,0.0,0.0,0.0,0.0,0.0,0.0,0.0,0.0,0.0,0.0,0.0,0.0,0.0,0.0,0.0,0.0,0.0,0.0,0.0,0.0,0.0,0.0,0.0,0.0,0.0,1.1542,1.3621,1.5251,1.5866,1.5918,1.5721,1.5186,1.4577,1.3634,1.222,1.0741,0.0,0.0,0.0,0.0,0.0,0.0,0.0,0.0,0.0,0.0,0.0,0.0,0.0,0.0,0.0,0.0,0.0,0.0,0.0,0.0,0.0,0.0,0.0,0.0,0.0,0.0,0.0,0.0,0.0,0.0,0.0,0.0,0.0,0.0,0.0,0.0,0.0,0.0,0.0,0.0,0.0,0.0,0.0,0.0,0.0,0.0,0.0,0.0,0.0,0.0,0.0,0.0,0.0,1.3703,1.388,1.5014,1.4463,1.4633,1.532,1.4568,1.3852,1.3178,1.2383,0.0,0.0,0.0,0.0,0.0,0.0,0.0,0.0,0.0,0.0,0.0,0.0,0.0,0.0,0.0,0.0,0.0,0.0,0.0,0.0,0.0,0.0,1.4411,1.3962,1.409,1.3784,1.1841,0.0,0.0,0.0,0.0,0.0,0.0,0.0,0.0,0.0,0.0,0.0,1.2119,1.4215,1.5821,1.6407,1.6492,1.6238,1.5639,1.504,1.4224,1.3092,1.1999,1.0926,0.0,0.0,0.0,0.0,0.0,0.0,0.0,0.0,0.0,0.0,0.0,0.0,0.0,0.0,0.0,0.0,0.0,0.0,0.0,0.0,0.0,0.0,0.0,0.0,0.0,0.0,0.0,0.0,0.0,0.0,0.0,0.0,0.9353,1.0576,0.0,0.0,0.0,0.0,0.0,0.0,0.0,0.0,0.0,0.0,0.0,0.0,0.0,1.3247,1.3197,1.4698,1.5676,1.612,1.6827,1.7433,1.7942,1.7843,1.7885,1.8,1.8236,0.0,1.4176,1.3648,0.0,0.0,0.0,0.0,0.0,0.0,0.0,0.0,0.0,0.0,0.0,0.0,0.0,0.0,0.0,0.0,0.0,0.0,0.0,0.0,0.0,0.0,1.6804,1.5887,1.5609,1.5402,1.48,1.3178,1.157,1.0673,1.0597,1.0289,0.0,0.0,0.0,0.0,0.0,0.0,1.316,1.4838,1.6165,1.6772,1.6836,1.6584,1.5979,1.5434,1.465,1.3576,1.245,1.1588,1.1084,0.9915,0.0,0.0,0.0,0.0,0.0,0.0,0.0,0.0,0.0,0.0,0.0,0.0,0.0,0.0,0.0,0.0,0.0,0.0,0.0,0.0,0.0,0.0,0.0,0.0,0.0,0.0,0.0,0.0,0.0,0.8992,1.064,1.1088,1.1612,1.1726,0.0,0.0,0.0,0.0,0.0,0.0,0.0,0.0,0.0,1.4159,1.5341,1.601,1.6107,1.7136,1.7739,1.7927,1.8128,1.8323,1.845,1.845,1.8367,1.8226,1.8412,1.7689,1.6368,1.5626,1.4772,1.3832,0.0,0.0,0.0,0.0,1.3856,1.4295,1.5336,1.5709,1.5579,1.4852,0.0,0.0,0.0,0.0,0.0,0.0,0.0,1.4701,1.5022,1.6023,1.6869,1.6573,1.6461,1.6361,1.6125,1.5286,1.4139,1.2606,1.2599,1.2199,1.0148,1.0289,0.0,0.0,0.0,1.3123,1.4308,1.5351,1.624,1.6845,1.6897,1.6658,1.6053,1.5511,1.4851,1.404,1.292,1.2203,1.2047,1.0989,1.0013,0.0,0.0,0.0,0.0,0.0,0.0,0.0,0.0,0.0,0.0,0.0,0.0,0.0,0.0,0.0,0.0,0.0,0.0,0.0,0.0,0.0,0.0,0.0,0.0,0.0,0.0,0.0,0.0,1.0596,1.1819,1.2055,1.3141,1.3577,0.0,0.0,0.0,0.0,0.0,0.0,1.4381,1.4805,1.5396,1.6231,1.7312,1.7993,1.8235,1.8595,1.8845,1.8965,1.8676,1.8563,1.8654,1.8654,1.8557,1.835,1.835,1.8276,1.8088,1.7295,1.6422,1.5512,1.4528,1.4393,1.4849,1.5227,1.5688,1.6254,1.7405,1.7781,1.7644,1.6696,1.6291,1.5862,1.4224,0.0,0.0,0.0,0.0,1.4944,1.5668,1.6225,1.6657,1.6857,1.6854,1.6825,1.6718,1.6675,1.6111,1.4328,1.4357,1.3935,1.1562,1.1812,0.0,1.1812,1.29,1.4161,1.5191,1.5802,1.629,1.674,1.6791,1.6625,1.6176,1.5636,1.5082,1.4527,1.3552,1.2953,1.2845,1.1961,1.1168,1.0483,0.0,0.0,0.0,0.0,0.0,0.0,0.0,0.0,0.0,0.0,0.0,0.0,0.0,0.0,0.0,0.0,0.0,0.0,0.0,0.0,0.0,0.0,0.0,0.0,0.0,0.0,0.0,0.0,0.0,1.4571,1.5338,0.0,0.0,0.0,0.0,1.348,1.4454,1.5292,1.5871,1.6935,1.7728,1.8236,1.8147,1.8067,1.801,1.7905,1.8129,1.861,1.8597,1.8868,1.9334,1.9334,1.9334,1.9334,1.9334,1.9052,1.8523,1.8113,1.7885,1.7835,1.777,1.7642,1.7579,1.831,1.8548,1.8628,1.9404,1.9653,1.9653,1.9584,1.8378,1.6823,1.6127,1.5544,0.0,0.0,1.5874,1.6448,1.6757,1.6854,1.6879,1.6897,1.6803,1.6697,1.6697,1.6599,1.6333,1.5693,1.5653,1.536,1.4183,0.0,1.4067,1.4049,1.4487,1.5041,1.56,1.6132,1.6484,1.6522,1.6522,1.6509,1.6484,1.5969,1.5477,1.4987,1.4422,1.3917,1.3467,1.2862,1.203,1.0997,0.9826,0.0,0.0,0.0,0.0,0.0,0.0,0.0,0.0,0.0,0.0,0.0,0.0,0.0,0.0,0.0,0.0,0.0,0.0,0.0,0.0,0.0,0.0,0.0,0.0,0.0,0.0,0.0,0.0,1.5978,1.7417,0.0,1.6675,1.7054,1.7282,1.707,1.7256,1.7551,1.7913,1.7824,1.7837,1.8013,1.8598,1.8944,1.8893,1.9531,1.9959,2.0143,2.0143,2.0057,1.9922,2.0266,2.0186,1.9787,1.9787,1.9873,1.9946,1.912,1.8425,1.7877,1.7877,1.7821,1.7806,1.8157,1.8267,1.8305,1.8649,1.8773,1.8796,1.8963,1.8622,1.8095,1.77,1.7499,1.734,1.7055,1.7213,1.747,1.747,1.7543,1.7589,1.751,1.7167,1.6896,1.6896,1.6588,1.6256,1.607,1.6148,1.5923,1.4847,1.5205,1.5464,1.4758,1.5374,1.6007,1.6195,1.6375,1.65,1.65,1.65,1.65,1.65,1.568,1.5117,1.4935,1.4078,1.3486,1.3318,1.2808,1.2193,1.146,1.0366,0.9193,0.0,0.0,0.0,0.0,0.0,0.0,0.0,0.0,0.0,0.0,0.0,0.0,0.0,0.0,0.0,0.0,0.0,0.0,0.0,0.0,0.0,0.0,0.0,0.0,0.0,1.5431,1.6713,1.7229,1.8868,1.9574,1.8569,1.9046,1.9304,1.9052,1.8728,1.8683,1.9009,1.8582,1.8523,1.8866,1.9672,2.0015,1.9866,2.0702,2.1031,2.0872,2.086,2.0677,2.036,2.0714,2.0633,2.0193,2.0193,2.0387,2.0693,1.9963,1.9303,1.8714,1.8449,1.8351,1.8351,1.845,1.8462,1.8487,1.8622,1.8695,1.873,1.8732,1.88,1.8821,1.865,1.8516,1.8353,1.819,1.8037,1.7918,1.7834,1.787,1.7918,1.7834,1.754,1.7282,1.7282,1.6999,1.6692,1.6507,1.642,1.6168,1.5466,1.594,1.6165,1.5502,1.5973,1.6414,1.6457,1.6436,1.6392,1.6392,1.6392,1.6414,1.6457,1.564,1.5039,1.4909,1.4011,1.3403,1.321,1.2738,1.2203,1.1691,1.0606,0.9637,0.8731,0.0,0.0,0.0,0.0,0.0,0.0,0.0,0.0,0.0,0.0,0.0,0.0,0.0,0.0,0.0,0.0,0.0,0.0,0.0,0.0,0.0,0.0,0.0,1.5876,1.6872,1.7876,1.8435,1.9685,2.0425,2.022,1.9753,1.9388,1.9155,1.874,1.8708,1.9169,1.9329,1.9897,2.0941,2.1313,2.1241,2.0799,2.114,2.1108,2.0658,2.0663,2.0622,2.0646,2.0629,2.0629,2.0605,2.0605,2.0617,2.0658,2.0605,2.0593,2.0567,1.9765,1.9443,1.9443,1.9443,1.9431,1.9445,1.9539,1.9682,1.9697,1.9171,1.9008,1.9018,1.8993,1.8533,1.8145,1.8662,1.8347,1.7835,1.7835,1.7835,1.7835,1.7835,1.7823,1.7811,1.7811,1.7798,1.7627,1.7111,1.6583,1.6237,1.62,1.62,1.6231,1.6383,1.6275,0.0,1.6371,1.6275,1.62,1.62,1.6222,1.6253,1.6392,1.5852,1.5326,1.4934,1.4387,1.3828,1.3248,1.2701,1.2153,1.1615,1.0562,0.9767,0.9245,0.0,0.0,0.0,0.0,0.0,0.0,0.0,0.0,0.0,0.0,0.0,0.0,0.0,0.0,0.0,0.0,0.0,0.0,0.0,0.0,0.0,1.6867,1.7851,1.769,1.8466,1.9397,2.0328,2.0423,2.0378,2.0218,2.0781,2.088,2.023,2.0526,2.0842,2.1127,2.0202,1.997,2.0608,2.0778,2.0782,2.0668,2.1517,2.1892,2.1765,2.1753,2.1548,2.1199,2.1584,2.1548,2.1187,2.1187,2.1404,2.1692,2.0911,2.0815,2.1115,2.0503,2.0266,2.0278,2.039,2.0245,1.9922,1.9582,1.9486,1.9474,1.9235,1.9211,1.9252,1.9054,1.894,1.8875,1.894,1.8863,1.8785,1.8695,1.8747,1.8785,1.8695,1.8367,1.8089,1.8089,1.7787,1.7472,1.7327,1.717,1.6878,1.6313,1.62,1.6222,1.6253,1.6222,1.6222,1.6253,1.6318,1.6318,1.6222,1.634,1.6414,1.6392,1.5936,1.5414,1.4921,1.4387,1.4022,1.3871,1.2918,1.2153,1.1615,1.0929,1.0474,0.0,0.0,0.0,0.0,0.0,0.0,0.0,0.0,0.0,0.0,0.0,0.0,0.0,0.0,0.0,0.0,0.0,0.0,0.0,0.0,0.0,0.0,1.8399,1.9528,1.9381,1.9902,2.0312,2.0427,2.0733,2.0854,2.06,2.1244,2.1535,2.1198,2.097,2.1149,2.1816,2.0751,2.0475,2.1199,2.1443,2.1479,2.1272,2.2086,2.2402,2.2197,2.2197,2.2041,2.174,2.2053,2.2029,2.174,2.174,2.1909,2.2149,2.1542,2.144,2.1656,0.0,0.0,0.0,0.0,2.0592,2.0416,2.0071,2.0015,2.0069,1.9973,2.0027,2.0047,1.9881,1.9699,1.9514,1.9431,1.9277,1.9105,1.9025,1.9052,1.9105,1.9025,1.8758,1.853,1.853,1.8289,1.8001,1.7784,1.7748,0.0,1.6804,1.6522,1.6313,1.6125,1.6078,1.6035,1.6122,1.6144,1.6122,1.6035,1.6144,1.6219,1.6241,1.5789,0.0,0.0,0.0,1.4281,1.4116,1.3451,0.0,0.0,0.0,0.0,0.0,1.2216,0.0,0.0,1.1144,1.1147,0.0,0.0,0.0,0.0,0.0,0.0,0.0,0.0,0.0,0.0,0.0,0.0,0.0,0.0,0.0,0.0,1.9701,2.1156,2.0898,2.116,2.0987,1.9866,2.0887,2.1567,2.1263,2.1403,2.1623,2.1969,2.0851,2.0671,2.1855,2.1256,0.0,0.0,0.0,2.2616,2.2197,2.2574,2.2604,2.2278,2.2185,2.2185,2.2278,2.2216,2.2197,2.2197,2.2197,2.2197,2.2197,2.2197,2.2197,2.2101,2.1163,2.0762,2.0762,2.0701,2.0752,2.0843,2.0795,0.0,0.0,2.0958,2.0958,2.0945,2.0961,2.0538,2.0055,1.9997,1.956,1.9071,1.9011,1.8987,1.8987,1.8987,1.8987,1.8987,1.8987,1.8987,1.8855,1.8386,1.8289,1.8121,1.7567,1.6991,1.6485,1.6114,1.5905,1.5836,1.5957,1.5891,1.5814,1.5792,1.5836,0.0,1.5988,1.5584,1.5334,1.5401,1.5014,1.4604,1.418,1.423,1.4249,1.4191,1.4191,1.4425,1.4896,1.4896,1.4921,1.4921,1.2488,1.2142,0.0,0.0,0.0,0.0,0.0,0.0,0.0,0.0,0.0,0.0,0.0,0.0,0.0,0.0,0.0,1.9906,2.0868,2.1532,2.1795,2.2301,2.245,2.1894,2.1649,2.168,2.2036,2.1663,2.1594,2.2046,2.2222,2.2414,2.2675,2.2538,2.2547,2.2757,2.2494,2.2278,2.2197,2.2006,2.2223,2.2757,2.2099,0.0,2.2757,2.2371,2.2197,2.2197,2.2197,2.2197,2.2197,2.2197,2.2197,2.2173,2.1969,2.1885,2.1837,2.1404,2.1247,2.1217,2.0795,2.0668,2.0696,2.0696,2.0696,2.0672,2.0677,2.0601,0.0,1.9961,1.9761,1.9555,1.9095,1.8987,1.8987,1.8987,1.8987,1.8987,1.8987,1.8987,1.8963,1.8855,1.8843,1.8662,1.8145,1.7231,1.6571,1.6509,1.609,1.5814,1.5836,1.5913,1.5913,1.5814,1.5991,1.61,1.6022,1.6003,1.5835,1.5434,1.5311,1.5064,1.4597,1.4995,1.5079,1.4765,1.4752,1.4802,1.4896,1.4896,1.5123,1.5517,1.4576,1.4305,0.0,0.0,0.0,0.0,0.0,0.0,0.0,0.0,0.0,0.0,0.0,1.7474,1.7992,0.0,2.0802,2.1527,2.2132,2.253,2.2596,2.2986,2.2901,2.2013,2.2246,2.2352,2.1928,2.227,2.2513,2.2491,2.2536,2.2635,2.2878,2.2665,2.2801,2.3337,2.3133,2.3256,2.381,2.3357,2.3357,2.3748,2.3083,2.2967,2.335,2.2903,2.2663,2.2582,2.2381,2.2269,2.2197,2.2197,2.2197,2.2197,2.2197,2.2197,2.2161,2.1897,2.1801,2.1765,2.15,2.1404,2.1404,2.1404,2.1404,2.1356,2.1091,2.0995,2.0875,2.0346,2.0189,2.0085,1.9543,1.9411,1.9324,1.9047,1.8987,1.8987,1.8987,1.8987,1.8987,1.8987,1.8987,1.8903,1.865,1.7941,1.7207,1.6679,1.6379,1.6092,1.5828,1.5859,1.5869,1.5814,1.5925,1.5969,1.5925,1.5969,1.5903,1.5709,1.5697,1.5617,1.5463,1.571,1.5785,1.5644,1.5652,1.5673,1.5693,1.5693,1.5831,1.6095,1.5831,1.5693,0.0,0.0,0.0,0.0,0.0,0.0,0.0,0.0,1.6252,1.6693,1.856,2.021,2.0543,2.1917,2.2982,2.2818,2.3202,2.3463,2.3303,2.3563,2.3344,2.2123,2.2943,2.3205,2.202,2.2861,2.3292,2.2939,2.2635,2.2604,2.2878,2.2825,2.3071,2.3766,2.3879,2.4311,2.5071,2.4589,2.4394,2.4569,2.398,2.3761,2.3926,2.3516,2.3257,2.3135,2.282,2.2626,2.2498,2.2498,2.2438,2.2342,2.2342,2.2282,2.2197,2.2197,2.2197,2.2197,2.2197,2.2197,2.2197,2.2197,2.2197,2.2113,2.1692,2.156,2.144,2.0923,2.0754,2.0639,2.0081,1.9965,1.9832,1.9383,1.9197,1.9146,1.9117,1.9066,1.8987,1.8987,1.8987,1.8987,1.8987,1.8638,1.8037,1.7051,1.6823,1.6607,1.6175,1.603,1.597,1.597,1.5852,1.5792,1.5792,1.5792,1.5859,1.5957,1.5957,1.6022,1.6166,1.6166,1.6231,1.6362,1.6362,1.6392,1.6479,1.6457,1.6457,1.6479,1.6457,1.6457,1.4348,1.3856,1.3835,1.5562,1.514,1.5359,0.0,0.0,1.9197,2.1,2.244,2.3383,2.3432,2.3448,2.3525,2.3805,2.3643,2.3621,2.3946,2.449,2.4635,2.4036,2.4101,2.4008,2.3414,2.314,2.2969,2.2909,2.3245,2.3263,2.2909,2.4154,2.4511,2.3748,2.422,2.4344,2.3992,2.3582,2.3737,2.4504,2.3682,2.367,2.4406,2.3926,2.3737,2.371,2.3643,2.364,2.3625,2.3625,2.3348,2.2927,2.2927,2.2606,2.2197,2.2197,2.2197,2.2197,2.2197,2.2197,2.2197,2.2197,2.2197,2.2185,2.2125,2.2101,2.1993,2.1464,2.1308,2.1187,2.0658,2.0526,2.0467,2.0283,1.9958,1.9673,1.9559,1.9251,1.8987,1.8987,1.8987,1.8987,1.8987,1.8939,1.871,1.8109,1.7628,1.7279,1.7219,1.6811,1.6511,1.6511,1.6068,1.5792,1.5792,1.5792,1.5814,1.5814,1.5814,1.5869,1.6022,1.6022,1.6088,1.6222,1.6222,1.6275,1.6414,1.6297,1.6297,1.6414,1.6297,1.634,1.6478,1.678,1.7167,0.0,1.8916,1.9415,2.1684,2.204,2.2026,2.2461,2.3427,2.4138,2.3981,2.4155,2.4315,0.0,2.4234,2.4199,2.438,2.4216,2.4114,2.417,2.4266,2.4118,2.3636,2.3412,2.3292,2.3292,2.3245,2.3246,2.3368,2.4014,2.4619,2.5121,2.5394,2.5706,2.6136,2.5333,2.5027,2.5117,2.4455,2.4201,2.4317,2.3863,2.3502,2.3202,2.3141,2.3102,2.3136,2.3349,2.333,2.3128,2.337,2.3336,2.3071,2.2426,2.2197,2.2197,2.2197,2.2197,2.2197,2.2197,2.2197,2.2197,2.2197,2.2197,2.2149,2.1921,2.1861,2.174,2.1211,2.1079,2.0964,2.0592,2.0148,1.9763,1.9736,1.9337,1.8987,1.8987,1.8987,1.8987,1.8987,1.8987,1.8915,1.8698,1.8205,1.776,1.7423,1.7411,1.7296,1.6978,1.6262,1.5792,1.5792,1.5792,1.5792,1.5792,1.5792,1.5913,1.6151,1.5988,1.6044,1.6383,1.6175,1.6197,1.6392,1.634,1.6383,1.6457,1.6362,1.6362,1.7658,0.0,0.0,2.0709,2.1599,2.2446,2.3273,2.3762,2.3947,2.3649,2.4247,2.4694,2.4348,2.4693,2.4907,2.4428,2.4556,2.4654,2.4489,2.4108,2.3938,2.4133,2.4241,2.4176,2.3813,2.3695,2.3607,2.3607,2.3457,2.3491,2.386,2.4381,2.5039,2.5904,2.6115,2.6463,2.696,2.6186,2.5594,2.5229,2.4838,2.449,2.42,2.3897,2.3548,2.3187,2.3061,2.304,2.3075,2.3363,2.3385,2.329,2.3573,2.3659,2.3532,2.2767,2.244,2.239,2.2246,2.2197,2.2197,2.2197,2.2197,2.2197,2.2197,2.2197,2.2197,2.2197,2.2197,2.2101,2.1716,2.162,2.1548,2.1267,2.0787,2.0409,2.0323,1.9927,1.9527,1.9354,1.933,1.933,1.933,1.933,1.933,1.933,1.8999,1.8532,1.7918,1.7971,1.7858,1.7316,1.6502,1.6053,1.6153,1.5943,1.5836,1.5935,1.5859,1.5913,1.6151,1.601,1.6044,1.6306,1.6163,1.6141,1.6284,1.6241,1.6284,1.6371,1.6423,1.6463,0.0,0.0,2.0918,2.0747,2.1801,2.3229,2.4544,2.4609,2.4569,2.5183,2.5615,2.5682,2.5091,2.5256,2.5107,2.3931,2.445,2.4774,2.4204,2.4584,2.4794,2.4352,2.4308,2.4292,2.4292,2.3872,2.3607,2.3607,2.4145,2.4448,2.4369,2.5913,2.6362,2.5356,2.5887,2.5769,2.4897,2.4861,2.4646,2.4225,2.4236,2.42,2.42,2.42,2.4189,2.4177,2.4154,2.4154,2.4154,2.4154,2.3856,2.3384,2.342,2.3317,2.3203,2.3167,2.3081,2.2883,2.2378,2.2197,2.2197,2.2197,2.2197,2.2197,2.2197,2.2197,2.2197,2.2197,2.2197,2.2197,2.2173,2.2173,2.2262,2.2571,2.2333,2.1961,2.1707,2.1316,2.0847,2.0284,2.0156,2.0156,2.0156,2.0156,2.0156,2.0156,2.0144,1.9837,1.9044,1.852,1.8002,1.7448,1.6895,1.671,1.7039,1.6292,1.5935,1.6247,1.5979,1.5792,1.5814,1.6107,1.6129,1.5836,1.6129,1.6194,1.601,1.5869,1.5903,1.6022,1.6399,1.6663,0.0,0.0,2.1421,2.2602,2.3568,2.4464,2.5355,2.5487,2.5337,2.518,2.5082,2.4853,2.4255,2.4048,2.3713,2.2906,2.3348,2.373,2.354,2.3755,2.4019,2.4159,2.4268,2.4134,2.3723,2.3924,2.4047,2.4047,2.4279,2.4442,2.4462,2.5373,2.5908,2.5912,2.5844,2.5652,2.5335,2.473,2.42,2.3787,2.353,2.3409,2.3409,2.3409,2.3409,2.3409,2.3409,2.3409,2.3409,2.3677,2.3686,2.3575,2.3828,2.3904,2.3815,2.3444,2.3282,2.3279,2.326,2.3047,2.2746,2.2746,2.2474,2.2197,2.2197,2.2432,2.2616,2.2278,2.2653,2.3065,2.2757,2.2896,2.3152,2.3258,2.2914,2.2458,2.2061,2.1582,2.1074,2.0567,2.0385,2.0337,2.0337,2.027,2.0207,2.0207,1.9978,1.9785,1.9798,1.8852,1.8234,1.8326,1.7606,1.7171,1.7302,1.6919,1.6702,1.6824,1.6645,1.6534,1.6534,1.665,1.665,1.6534,1.665,1.6892,1.726,1.695,1.7082,1.7581,1.736,1.7279,2.0083,2.1354,2.2422,2.3342,2.4425,2.5291,2.5528,2.5502,2.5253,2.4653,2.4123,2.354,2.2715,2.2567,2.2361,2.1738,2.2524,2.3296,2.3499,2.3956,2.4477,2.5003,2.4965,2.4839,0.0,0.0,0.0,2.4357,2.4782,2.4963,2.4809,2.5398,2.5744,2.5699,2.5312,2.504,2.4898,2.4274,2.3787,2.3372,2.3113,2.3001,2.3001,2.3001,2.3001,2.3001,2.3276,2.3239,2.3038,2.357,2.3618,2.3409,2.3666,2.3861,2.3936,2.3618,2.3635,2.3874,2.3676,2.3268,2.2882,2.2975,2.2687,2.2269,2.2214,2.2402,2.2586,2.2278,2.2622,2.3035,2.2726,2.2866,2.3143,2.3322,2.3086,2.2798,2.2611,2.228,2.196,2.1615,2.1466,2.1323,2.1118,2.0823,2.0623,2.0623,2.0296,2.0067,2.0182,1.9459,1.9006,1.9259,1.8598,1.8166,1.8287,1.7881,1.7693,1.7806,1.7622,1.7509,1.7509,1.7618,1.7618,1.7509,1.7618,1.7843,1.8148,1.79,1.8022,1.8484,1.8308,1.8166,2.0854,2.2412,2.3733,2.3001,2.4323,2.5656,2.5052,2.4713,2.4347,2.3711,2.2848,2.1857,2.064,0.0,2.1128,2.0599,2.1984,2.3391,2.4042,2.5168,2.6117,0.0,0.0,0.0,0.0,0.0,0.0,2.4497,2.5525,2.5897,2.5289,2.5931,2.5849,2.479,2.4381,2.4007,2.3666,2.3666,2.3482,2.3113,2.3113,2.3113,2.3113,2.3113,2.3113,2.3102,2.3804,2.3694,2.3102,2.3804,2.3694,2.3113,2.3113,2.3335,2.3703,2.3703,2.4152,2.4684,2.3672,2.3059,2.274,2.298,2.2801,2.2456,2.2296,2.2296,2.2283,2.2259,2.229,2.234,2.2309,2.234,2.2463,2.2909,2.3,2.3089,2.3367,2.3446,2.3399,2.3245,2.3216,2.304,2.2468,2.186,2.148,2.144,2.1133,2.0711,2.0283,2.0207,2.0207,2.0207,1.9746,1.9571,1.9895,1.9134,1.8809,1.912,1.8829,1.8655,1.8619,1.8953,1.8966,1.8642,1.8966,1.9002,1.8693,1.8681,1.8683,1.8722,1.9203,1.9229,2.1585,2.2321,2.2795,2.3032,2.3849,2.4409,2.3806,2.3617,2.3264,2.2201,2.1434,2.0599,1.9442,1.9727,0.0,2.0464,2.1643,0.0,2.4571,2.5412,0.0,2.6725,0.0,2.6352,2.5749,2.5903,0.0,2.4569,2.5501,2.5598,2.4393,2.4895,2.4945,2.4381,2.397,2.3984,2.4432,2.4731,2.4814,2.4695,2.4695,2.4695,2.4695,2.4695,2.4396,2.3841,2.4011,2.3975,2.3841,2.4011,2.4348,2.4695,2.4695,2.4767,2.4886,2.4886,2.4993,2.5182,2.5208,2.4673,2.4017,2.4102,2.3802,2.3394,2.3174,2.3361,2.3598,2.3215,2.3586,2.4073,2.3826,2.4031,2.4334,2.445,2.445,2.4381,2.4136,2.4068,2.3971,2.3556,2.3416,2.3257,2.3014,2.2849,2.2591,2.2156,2.1974,2.1599,2.0762,2.0397,2.0207,2.0207,2.0079,2.004,2.0115,1.9768,1.9596,1.9703,1.9527,1.9288,1.8976,1.9333,1.9369,1.8976,1.9346,1.9696,2.002,1.9727,1.9795,2.0239,2.0075,1.9927,2.2373,2.2876,2.3093,2.3188,2.3459,2.3554,2.2944,2.2212,2.1385,2.0446,1.9578,0.0,1.7773,1.8316,0.0,0.0,0.0,0.0,2.472,2.552,2.6218,0.0,2.7048,0.0,2.6103,2.612,2.5975,0.0,2.603,2.5907,2.4879,2.5331,2.5418,2.4957,2.4563,2.4551,2.4969,2.5194,2.5312,2.5312,2.5312,2.5123,2.4779,2.4779,2.4348,2.3632,2.3975,2.3902,2.3621,2.3975,2.4276,2.4563,2.4719,2.4898,2.5052,2.5229,2.5418,2.5581,2.5826,2.5664,2.5301,2.5157,2.4887,2.453,2.4341,2.4311,2.4287,2.3968,2.4062,2.4234,2.4047,2.4205,2.4379,2.4379,2.4379,2.4379,2.4321,2.4292,2.4292,2.4234,2.3944,2.3674,2.3595,2.3391,2.3093,2.2741,2.2481,2.2108,2.1532,2.103,2.0723,2.0723,2.0723,2.0723,2.0723,2.0616,2.0551,2.0551,2.0482,2.034,2.0127,2.0317,2.034,2.0104,2.0317,2.0586,2.0897,2.067,2.0735,2.1068,2.0822,2.0623,2.3161,2.3649,2.3852,2.3337,2.3215,2.3025,2.2346,2.0826,1.9374,1.869,0.0,1.658,1.5964,1.6905,1.7997,1.8697,0.0,2.2144,2.4652,2.552,2.6344,2.7538,2.7391,2.7142,2.6973,2.6598,2.644,2.6645,2.6714,2.6474,2.5933,2.6346,2.6368,2.5826,2.5581,2.5453,2.5453,2.5546,2.5616,2.5616,2.5616,2.524,2.4505,2.4469,2.3986,2.325,2.3841,2.3731,2.3213,2.3841,2.4059,2.3984,2.4276,2.4696,2.5099,2.5499,2.5861,2.6173,2.6173,2.638,2.6565,2.6117,2.584,2.566,2.5531,2.5158,2.4759,2.4743,2.4322,2.39,2.3887,2.3835,2.3783,2.3783,2.3783,2.3901,2.4292,2.4379,2.4494,2.492,2.4598,2.4218,2.4218,2.3784,2.3418,2.3337,2.2863,2.2509,2.2441,2.1819,2.1399,2.1399,2.1399,2.1399,2.1399,2.1399,2.1399,2.1399,2.1399,2.1399,2.1399,2.1399,2.1399,2.1399,2.1399,2.1399,2.1399,2.1399,2.1399,2.1399,2.1399,2.1215,2.3784,2.3662,2.3337,2.3242,2.3215,2.2917,2.1805,2.0202,0.0,0.0,1.6354,1.5335,1.4721,1.601,1.7522,1.8608,0.0,0.0,0.0,0.0,2.6196,0.0,0.0,0.0,0.0,2.7053,0.0,0.0,2.6769,2.6633,2.5943,2.6,2.5849,2.5406,2.5931,2.6208,2.6208,2.6803,2.7209,2.7364,2.7364,2.7129,2.6722,2.6389,2.558,2.4384,2.4192,2.4047,2.3902,2.4047,2.4803,2.5931,2.5988,2.6402,2.704,2.7263,2.741,2.751,2.7656,2.7842,2.7769,2.6676,2.6298,2.6231,2.6021,2.6007,2.6051,2.6003,2.5661,2.5344,2.5461,2.5128,2.4765,2.4765,2.4765,2.4765,2.4863,2.4878,2.4907,2.4977,2.4924,2.4842,2.4842,2.4774,2.4502,2.4014,2.3838,2.3608,2.3106,2.2077,2.1399,2.1399,2.1399,2.1399,2.1399,2.1399,2.1399,2.1399,2.1399,2.1399,2.1399,2.1399,2.1399,2.1399,2.1399,2.1399,2.1399,2.1399,2.1399,2.1399,2.1399,2.1361,2.3933,2.3892,2.3676,2.3676,2.2957,2.2036,2.1141,0.0,0.0,0.0,1.4639,1.3798,1.3839,0.0,0.0,0.0,0.0,0.0,0.0,0.0,0.0,0.0,0.0,0.0,0.0,2.685,2.6871,2.6722,2.6905,2.6837,2.6483,2.662,2.662,2.6449,2.6892,2.7142,2.7142,2.7477,2.7689,2.7809,2.7689,2.7142,2.6255,2.607,2.517,2.3827,2.4011,2.4108,2.412,2.4564,2.5028,2.5534,2.5756,2.6173,2.6688,2.696,2.7377,2.7789,2.7802,2.7888,2.7941,2.733,2.7263,2.7378,2.7196,2.7007,2.6833,2.6858,2.629,2.5695,2.5858,2.5453,2.5005,2.5005,2.5005,2.5005,2.5005,2.5005,2.5005,2.5005,2.5005,2.5005,2.5005,2.5005,2.491,2.4625,2.4286,2.4001,2.3716,2.289,2.2226,2.1887,2.1589,2.1399,2.1399,2.1399,2.1399,2.1399,2.1399,2.1399,2.1399,2.1399,2.1399,2.1399,2.1399,2.1399,2.1399,2.1399,2.1399,2.1399,2.1399,2.1399,2.3608,2.3811,2.3933,2.4069,2.2741,2.125,2.0654,1.776,0.0,0.0,1.3146,1.2495,1.3091,0.0,0.0,0.0,0.0,0.0,0.0,0.0,0.0,0.0,0.0,0.0,0.0,2.6769,0.0,2.7074,2.7108,2.7108,2.7108,2.7356,2.7523,2.7556,2.7689,2.7756,2.7809,2.7756,2.7756,2.7809,2.7656,2.6939,2.5734,2.5652,2.4862,2.3644,2.4131,2.4373,2.442,2.504,2.5194,2.5099,2.5406,2.5826,2.6277,2.6586,2.7162,2.7776,2.7669,2.7723,2.7855,2.7809,2.7973,2.817,2.8112,2.7792,2.745,2.7551,2.6848,2.6072,2.6251,2.5738,2.5168,2.5032,2.5005,2.5005,2.5005,2.5005,2.5005,2.5005,2.5005,2.5005,2.5005,2.5005,2.5005,2.5005,2.4611,2.4286,2.4286,2.3771,2.3215,2.2753,2.2144,2.1724,2.1602,2.1589,2.1534,2.1399,2.1399,2.1399,2.1399,2.1399,2.1399,2.1399,2.1399,2.1399,2.1399,2.1399,2.1467,2.1589,2.1589,2.1656,2.2603,2.2863,2.3418,2.396,2.2741,2.125,2.0704,0.0,0.0,1.373,1.2523,1.1872,1.2467,1.3566,0.0,0.0,0.0,1.9002,0.0,0.0,0.0,0.0,0.0,0.0,0.0,2.7556,2.7802,2.7503,2.7456,2.7456,2.7456,2.749,2.759,2.7776,2.7623,2.7623,2.7809,2.7623,2.7623,2.7809,2.7776,2.7556,2.71,2.6756,2.623,2.5616,2.5335,2.5194,2.5194,2.5276,2.5687,2.6242,2.6277,2.6735,2.739,2.7577,2.7743,2.7822,2.8,2.8046,2.8046,2.7855,2.7809,2.7888,2.8046,2.8157,2.8206,2.8206,2.7858,2.7511,2.7542,2.6687,2.567,2.5127,2.5005,2.5005,2.5005,2.5005,2.5005,2.5005,2.5005,2.5005,2.5005,2.5005,2.5005,2.5005,2.4951,2.4924,2.4924,2.438,2.3987,2.3933,2.3405,2.2808,2.2264,2.2224,2.1993,2.1426,2.1399,2.1399,2.1399,2.1399,2.1399,2.1399,2.1399,2.1399,2.1399,2.1399,2.167,2.2224,2.2224,2.2497,2.3242,2.3811,2.4245,2.4123,2.2741,2.1084,1.9804,0.0,1.4314,1.3119,1.2197,1.1777,1.2386,1.3186,1.4354,1.6172,1.6661,1.7611,1.9885,0.0,0.0,0.0,0.0,0.0,0.0,0.0,2.7967,2.7689,2.8031,2.8229,2.8229,2.8114,2.8305,2.8866,2.8789,2.8741,2.881,2.8741,2.857,2.833,2.8215,2.7681,2.6735,2.6586,2.6173,2.5546,2.5826,2.5965,2.6,2.6449,2.653,2.638,2.638,2.6586,2.6837,2.6926,2.731,2.7776,2.7769,2.7835,2.7901,2.7822,2.7888,2.7967,2.7934,2.8033,2.8197,2.83,2.7902,2.7566,2.7674,2.7081,2.6294,2.5683,2.5534,2.5439,2.5086,2.5005,2.5005,2.5005,2.5005,2.5005,2.5005,2.5005,2.5005,2.5005,2.5005,2.5005,2.5005,2.4801,2.4652,2.4652,2.3784,2.3106,2.2863,2.2835,2.2741,2.251,2.2483,2.2483,2.2483,2.2483,2.2483,2.2483,2.2483,2.2483,2.2483,2.2483,2.2619,2.2835,2.2835,2.2971,2.2591,2.3499,2.4109,2.3662,2.2212,2.0541,0.0,1.6462,1.4015,1.2983,1.2129,1.1844,1.2631,1.3119,1.3986,1.5802,1.61,1.6851,1.9002,0.0,0.0,0.0,0.0,2.6533,0.0,2.7735,2.7901,2.7888,2.8377,2.8834,2.9095,2.9061,2.9188,2.9649,2.9522,2.9451,2.9487,2.9451,2.9241,2.8868,2.8546,2.7924,2.6998,2.6811,2.6449,2.5965,2.6483,2.6735,2.6769,2.7289,2.7175,2.6735,2.6735,2.6735,2.6735,2.6735,2.7142,2.7689,2.7556,2.759,2.7723,2.7723,2.7901,2.8079,2.7934,2.8066,2.8276,2.8379,2.8069,2.775,2.7714,2.7393,2.6901,2.6307,2.6172,2.6009,2.5398,2.5276,2.5208,2.5032,2.5005,2.5005,2.5005,2.5005,2.5005,2.5005,2.5005,2.5005,2.5005,2.5005,2.5005,2.5005,2.4231,2.3662,2.3486,2.3472,2.3405,2.3215,2.3215,2.3215,2.3215,2.3215,2.3215,2.3215,2.3215,2.3215,2.3215,2.3215,2.3296,2.3472,2.3472,2.3567,1.989,2.1016,2.2332,2.2319,2.1016,1.9551,0.0,1.6462,1.4124,1.3512,1.2441,1.1967,1.3173,1.3403,1.3986,1.5802,1.61,1.713,2.0084,2.1019,0.0,0.0,0.0,2.5578,2.599,2.6922,2.7669,2.8079,2.8457,2.9109,3.0048,3.025,3.0209,2.9802,2.9487,2.9381,2.9487,2.9381,2.931,2.9297,2.8708,2.8373,2.8347,2.7751,2.749,2.7503,2.749,2.749,2.749,2.749,2.749,2.749,2.749,2.749,2.749,2.749,2.749,2.749,2.749,2.749,2.749,2.749,2.7769,2.8112,2.8112,2.8341,2.8587,2.8587,2.8587,2.8451,2.7854,2.7705,2.7556,2.6915,2.6779,2.6616,2.6022,2.5873,2.5697,2.5127,2.5005,2.5005,2.5005,2.5005,2.5005,2.5005,2.5005,2.5005,2.5005,2.5005,2.5005,2.5005,2.4991,2.4747,2.4136,2.4082,2.3838,2.3256,2.3215,2.3215,2.3215,2.3215,2.3215,2.3215,2.3215,2.3215,2.3215,2.3215,2.3513,2.4082,2.4082,2.4394,1.903,2.0053,2.087,2.0116,1.9491,1.8717,1.7271,1.5576,1.4124,1.3512,1.2766,1.2454,1.3254,1.3744,1.4477,1.587,1.61,1.6864,0.0,0.0,0.0,0.0,0.0,2.7338,0.0,0.0,2.8564,2.8712,2.9688,3.033,3.0503,3.0547,3.0724,3.1036,3.0671,3.0487,3.0511,3.0487,3.0241,2.9826,2.9631,2.9157,2.8407,2.819,2.7902,2.749,2.749,2.749,2.749,2.749,2.749,2.749,2.749,2.749,2.749,2.749,2.749,2.749,2.749,2.749,2.749,2.749,2.7669,2.7888,2.7888,2.8229,2.8587,2.8587,2.8587,2.8546,2.8356,2.8315,2.8166,2.7569,2.7434,2.7257,2.666,2.6524,2.6348,2.5724,2.5615,2.548,2.5073,2.5005,2.5005,2.5005,2.5005,2.5005,2.5005,2.5005,2.5005,2.5005,2.5005,2.4924,2.4747,2.4734,2.4639,2.4435,2.4421,2.4421,2.4421,2.4421,2.4421,2.4421,2.4421,2.4421,2.4421,2.4421,2.4516,2.4734,2.4734,2.4829,0.0,1.8628,1.9361,1.8636,1.8282,1.7712,1.6118,1.4829,1.3798,1.3186,1.2752,1.267,1.3295,1.3893,1.4694,1.5897,1.61,0.0,0.0,0.0,0.0,0.0,0.0,0.0,0.0,2.8252,2.8705,2.9033,2.9797,3.0306,3.045,3.0357,3.0472,3.0821,3.0529,3.0451,3.066,3.066,3.0594,3.0451,3.0205,2.9709,2.9039,2.8817,2.8516,2.8177,2.7954,2.785,0.0,2.7581,2.749,2.749,2.749,2.749,2.749,2.749,2.749,2.749,2.749,2.749,2.749,2.749,2.7656,2.7809,2.7888,2.8183,2.8509,2.8587,2.8587,2.8587,2.8587,2.8587,2.8505,2.8125,2.8044,2.7881,2.7253,2.7131,2.6904,2.605,2.5887,2.5697,2.51,2.5005,2.5005,2.5005,2.5005,2.5005,2.5005,2.5005,2.5005,2.5005,2.5005,2.5005,2.5005,2.5005,2.5005,2.5005,2.5005,2.5005,2.5005,2.5005,2.5005,2.5005,2.5005,2.5005,2.5005,2.5005,2.5005,2.5005,2.5005,2.5005,0.0,1.6661,1.7576,1.7535,1.7122,1.6444,1.5281,1.4137,0.0,1.2616,1.2494,1.2711,1.3403,1.3988,1.4775,1.6019,1.6181,0.0,0.0,0.0,0.0,0.0,2.6068,0.0,2.6931,2.7544,2.8266,2.9141,2.912,2.9388,3.0027,2.9749,2.9539,2.9579,2.9377,2.9545,3.0087,3.014,3.0464,3.1011,3.0451,3.0176,3.0124,2.9611,2.9385,2.9319,2.8721,2.8459,2.8402,2.7811,2.7562,2.7523,2.749,2.749,2.749,2.749,2.749,2.749,2.749,2.749,2.749,2.749,2.7623,2.7822,2.8013,2.8197,2.8333,2.8509,2.8587,2.8587,2.8587,2.8587,2.8587,2.8587,2.8587,2.8451,2.7895,2.7773,2.742,2.624,2.6022,2.5833,2.5236,2.5141,2.5113,2.5073,2.5059,2.5059,2.5018,2.5005,2.5005,2.5005,2.5005,2.5005,2.5005,2.5005,2.5005,2.5005,2.5005,2.5005,2.5005,2.5005,2.5005,2.5005,2.5005,2.5005,2.5005,2.5005,2.5005,2.5005,2.5005,2.5005,1.2552,0.0,1.4354,1.3877,1.3999,1.404,0.0,1.2929,1.267,0.0,0.0,1.2969,1.449,1.4887,1.5539,1.7209,0.0,0.0,0.0,0.0,0.0,2.6746,2.7457,2.7822,2.782,2.8465,2.8966,2.9168,2.9597,2.9837,2.988,2.926,2.9061,2.9368,2.9031,2.9245,3.0087,3.0568,3.093,3.1235,3.1103,3.0874,3.0546,3.0449,3.0144,2.9741,2.9434,2.9151,2.883,2.8379,2.8017,2.7723,2.7556,2.749,2.749,2.749,2.749,2.749,2.749,2.749,2.749,2.749,2.7523,2.7623,2.7822,2.8,2.8164,2.8346,2.8365,2.8398,2.8554,2.8587,2.8587,2.8587,2.8587,2.8546,2.841,2.8383,2.8166,2.742,2.7284,2.7094,2.6467,2.6373,2.624,2.5751,2.5683,2.552,2.5059,2.5005,2.5005,2.5005,2.5005,2.5005,2.5005,2.5005,2.5005,2.5005,2.5005,2.5005,2.5005,2.5005,2.5005,2.5005,2.5005,2.5005,2.5005,2.5005,2.5005,2.5005,2.5005,2.5005,1.1405,1.258,1.373,1.3403,1.3785,1.407,1.3457,0.0,0.0,0.0,0.0,1.3295,1.4574,1.524,0.0,0.0,1.7909,0.0,0.0,0.0,0.0,2.7673,2.8099,2.8268,2.8183,2.853,2.8905,2.9201,2.9188,2.9199,2.9308,2.856,2.8384,2.8878,2.9039,2.9447,3.0087,3.0621,3.1008,3.131,3.131,3.1175,3.098,3.0884,3.0675,3.0394,3.0,2.9697,2.9438,2.8712,2.8258,2.8058,2.7661,2.749,2.749,2.759,2.7656,2.7656,2.7656,2.7656,2.7656,2.7736,2.7769,2.7769,2.7776,2.7888,2.8,2.8151,2.8235,2.832,2.843,2.8522,2.8587,2.8587,2.8587,2.8587,2.8587,2.8587,2.841,2.7827,2.7705,2.7515,2.6888,2.6793,2.6684,2.6362,2.6321,2.6199,2.5887,2.5846,2.5846,2.5846,2.5846,2.5846,2.5846,2.5846,2.5602,2.5046,2.5005,2.5005,2.5005,2.5005,2.5005,2.5005,2.5005,2.5005,2.5005,2.5005,2.5005,2.5005,2.5005,2.5154,1.1334,1.2816,1.4232,1.3963,1.4479,1.49,1.43,0.0,0.0,0.0,0.0,0.0,0.0,1.5698,0.0,0.0,0.0,0.0,0.0,2.5738,2.6695,2.8131,2.832,2.832,2.8287,2.8287,2.8502,2.9026,2.8458,2.8226,2.8596,2.7932,2.7857,2.8594,2.9315,2.9874,3.0328,3.0656,3.1003,3.136,3.136,3.136,3.136,3.1174,3.1099,3.1073,3.0514,3.0252,3.0131,2.9087,2.8629,2.8533,2.7981,2.7712,2.7654,2.7821,2.7822,2.7756,2.7756,2.7776,2.7855,2.8,2.8079,2.8079,2.7901,2.7809,2.7855,2.8,2.8151,2.8222,2.8268,2.8411,2.8554,2.8554,2.8587,2.8587,2.8587,2.8587,2.8451,2.7949,2.7841,2.7691,2.7145,2.7064,2.7023,2.6942,2.6928,2.6888,2.6806,2.6793,2.6793,2.6793,2.6793,2.6793,2.6793,2.6793,2.6345,2.5344,2.5195,2.5141,2.5141,2.5141,2.5181,2.5276,2.5276,2.5276,2.5276,2.5276,2.5276,2.5276,2.5276,2.5548,1.2399,1.3438,1.3934,1.2401,1.3243,1.4273,1.369,0.0,0.0,0.0,0.0,0.0,0.0,0.0,0.0,0.0,0.0,2.396,0.0,0.0,2.7642,2.8239,2.8444,2.8476,2.832,2.8287,2.8327,2.8421,2.806,2.7928,2.8179,2.7908,2.8311,2.9547,2.9875,3.045,3.1352,3.1426,3.1479,3.1559,3.1559,3.1559,3.1559,3.1522,3.1498,3.1485,3.123,3.0937,3.0569,3.0036,2.9647,2.9307,2.9109,2.8699,2.8289,2.8289,2.7975,2.7556,2.7556,2.7769,2.8046,2.7888,2.7967,2.8079,2.8079,2.7934,2.7822,2.7855,2.7855,2.7921,2.8099,2.8249,2.8365,2.8365,2.8476,2.8587,2.8587,2.8587,2.856,2.8478,2.8451,2.8424,2.8343,2.8315,2.8153,2.7651,2.7569,2.7393,2.686,2.6793,2.6793,2.6793,2.6793,2.6793,2.6793,2.6793,2.6711,2.6535,2.605,2.5751,2.5751,2.5751,2.6009,2.6508,2.6508,2.6508,2.6508,2.6508,2.6508,2.6508,2.6508,2.6562,1.2026,1.2955,1.3606,1.2781,1.4422,1.6159,1.5888,0.0,0.0,0.0,0.0,0.0,0.0,0.0,2.0433,2.2578,0.0,2.5127,2.666,2.7352,2.789,2.8409,2.8554,2.8554,2.8476,2.8365,2.8268,2.8183,2.8066,2.7967,2.7934,2.7967,2.8545,2.9749,2.9985,3.0561,3.1596,3.172,3.172,3.1609,3.1609,3.1609,3.1609,3.1485,3.1434,3.1434,3.1248,3.1016,3.0813,3.0291,2.998,2.9751,2.9074,2.8656,2.8381,2.8168,2.7913,2.7689,2.7875,2.8,2.8112,2.8197,2.8295,2.836,2.8249,2.8137,2.8072,2.7987,2.7888,2.7822,2.7921,2.8066,2.8183,2.8183,2.8314,2.8444,2.8444,2.8509,2.8587,2.8587,2.8587,2.8587,2.8587,2.8587,2.8505,2.8234,2.8193,2.8085,2.7813,2.7773,2.7773,2.7773,2.7773,2.7773,2.7773,2.7773,2.7501,2.6833,2.6552,2.6402,2.6402,2.6402,2.6538,2.6779,2.6793,2.6793,2.6793,2.6793,2.6793,2.6793,2.6793,2.6955,1.1935,1.2738,1.3564,1.3821,0.0,1.7603,1.8011,0.0,0.0,0.0,0.0,0.0,0.0,2.0148,0.0,2.4937,2.5426,2.6009,2.7678,2.7908,2.8085,2.8546,2.8587,2.8587,2.8587,2.8379,2.8216,2.8112,2.8046,2.7967,2.7888,2.8066,2.8645,2.9688,2.9887,3.0398,3.1292,3.1437,3.1432,3.1322,3.1359,3.1293,3.1123,3.1119,3.1069,3.0877,3.0874,3.0749,3.0568,3.0231,3.01,3.0009,2.9144,2.8621,2.8342,2.79,2.7756,2.7842,2.8105,2.8151,2.8145,2.8425,2.8522,2.8509,2.8398,2.8333,2.83,2.8164,2.8,2.7855,2.7855,2.8,2.8131,2.8131,2.8249,2.8365,2.8365,2.8476,2.8587,2.8587,2.8587,2.8587,2.8587,2.8587,2.8587,2.8587,2.8587,2.8587,2.8587,2.8587,2.8587,2.8587,2.8587,2.8587,2.8587,2.8587,2.8207,2.7298,2.7077,2.6996,2.6996,2.6996,2.7064,2.7199,2.7199,2.7199,2.7199,2.7199,2.7199,2.7199,2.7199,2.7488,1.3237,1.365,1.4042,1.508,1.5788,0.0,1.835,1.8752,0.0,2.0826,0.0,0.0,0.0,2.1345,2.3173,2.6169,2.6657,2.7121,2.8356,2.8532,2.8546,2.8587,2.8587,2.8587,2.8587,2.8308,2.8112,2.8112,2.7934,2.7901,2.8079,2.8216,2.8662,2.949,2.9536,2.9862,3.0458,3.0306,3.033,3.0481,3.0684,3.037,2.9667,3.0396,3.0356,2.9667,3.0207,3.0069,2.948,2.9892,3.01,3.0087,3.0009,2.934,2.8307,2.7745,2.7656,2.7809,2.7842,2.7954,2.8112,2.8268,2.832,2.8352,2.8522,2.8444,2.8287,2.83,2.8183,2.8079,2.8079,2.8183,2.83,2.83,2.8444,2.8587,2.8587,2.8587,2.8587,2.8587,2.8587,2.8587,2.8587,2.8587,2.8587,2.8587,2.8587,2.8587,2.8587,2.8587,2.8587,2.8587,2.8587,2.8587,2.8587,2.8587,2.8546,2.8478,2.7949,2.7651,2.7651,2.7651,2.7908,2.8451,2.8465,2.8465,2.8465,2.8465,2.8465,2.8465,2.8465,2.8478,1.2263,1.3311,1.4431,1.4699,1.6,0.0,0.0,1.9904,2.0921,2.27,2.2781,0.0,0.0,0.0,2.4611,2.6481,2.7104,2.7664,2.8478,2.8587,2.8587,2.8587,2.8587,2.8587,2.8587,2.8379,2.8203,2.8203,2.8137,2.8137,2.8216,2.8379,2.8793,2.9488,2.9515,2.9733,3.0206,3.0123,2.9883,2.9485,3.0041,3.0164,2.9894,3.0177,3.0164,2.9872,2.998,2.9848,2.9667,3.0105,3.0059,2.9669,2.9218,2.8556,2.7824,2.7568,2.7556,2.7623,2.7756,2.7855,2.7954,2.8235,2.8287,2.832,2.8554,2.8554,2.8476,2.8476,2.8457,2.8373,2.8145,2.8131,2.8164,2.8164,2.8314,2.8398,2.8398,2.8509,2.8587,2.8587,2.8587,2.8587,2.8587,2.8587,2.8587,2.8587,2.8587,2.8587,2.8587,2.8587,2.8587,2.8587,2.8587,2.8587,2.8587,2.8587,2.8587,2.8587,2.8383,2.8261,2.8261,2.8261,2.837,2.8587,2.8587,2.8587,2.8587,2.8587,2.8587,2.8587,2.8587,2.8587,1.2269,1.3624,1.5101,1.4985,0.0,0.0,1.9686,2.0694,2.2009,2.4232,2.4177,0.0,2.48,0.0,0.0,0.0,2.7447,2.7908,2.8519,2.8587,2.8587,2.8587,2.8587,2.8587,2.8587,2.843,2.8287,2.8287,2.8287,2.8287,2.8287,2.8476,2.8777,2.9217,2.923,2.9354,2.9626,2.9639,2.9336,2.8812,2.9349,2.9592,2.9537,2.9794,2.9767,2.9537,2.9602,2.9472,2.9284,2.9729,2.9671,2.9275,2.8749,2.8202,2.7669,2.7623,2.759,2.7623,2.7756,2.7756,2.7756,2.8105,2.8203,2.8203,2.8444,2.8509,2.8509,2.8587,2.8587,2.8554,2.8308,2.8276,2.8276,2.8276,2.8327,2.8398,2.8398,2.8509,2.8587,2.8587,2.8587,2.8587,2.8587,2.8587,2.8587,2.8587,2.8587,2.8587,2.8587,2.8587,2.8587,2.8587,2.8587,2.8587,2.8587,2.8587,2.8587,2.8587,2.8587,2.8587,2.8587,2.8587,2.8587,2.8587,2.8587,2.8587,2.8587,2.8587,2.8587,2.8587,2.8587,2.8587,1.3731,1.4834,1.6162,0.0,0.0,0.0,2.0261,2.0992,2.2266,2.529,2.5439,2.5398,2.6576,2.5803,0.0,2.742,2.7705,2.7908,2.8519,2.8587,2.8587,2.8587,2.8587,2.8587,2.8587,2.843,2.8287,2.8287,2.8287,2.8287,2.8287,2.8476,2.8587,2.8587,2.8587,2.8587,2.8587,2.8587,2.8587,2.8587,2.8587,2.8509,2.8346,2.9118,2.9064,2.8327,2.8932,2.8779,2.8165,2.8672,2.8911,2.889,2.8877,2.8552,2.8079,2.7888,2.7809,2.7809,2.7809,2.7656,2.757,2.798,2.7967,2.7842,2.8189,2.8287,2.832,2.8554,2.8587,2.8587,2.8587,2.8587,2.8587,2.8587,2.8587,2.8587,2.8587,2.8587,2.8587,2.8587,2.8587,2.8587,2.8587,2.8587,2.8587,2.8587,2.8587,2.8587,2.8587,2.8587,2.8587,2.8587,2.8587,2.8587,2.8587,2.8587,2.8587,2.8587,2.8587,2.8587,2.8587,2.8587,2.8587,2.8587,2.8587,2.8587,2.8587,2.8587,2.8587,2.8587,2.8587,2.8587,1.4038,1.5402,0.0,0.0,0.0,0.0,0.0,2.2551,0.0,0.0,2.6742,2.6891,2.6806,2.6495,0.0,2.7556,2.7705,2.7908,2.8519,2.8587,2.8587,2.8587,2.8587,2.8587,2.8587,2.8554,2.8509,2.8509,2.8509,2.8509,2.8509,2.8554,2.8587,2.8587,2.8587,2.8587,2.8587,2.8587,2.8587,2.8587,2.8587,2.8554,2.8522,2.8763,2.875,2.8522,2.8712,2.8652,2.8438,2.8469,2.8625,2.8871,2.8472,2.8239,2.8079,2.8033,2.8,2.8,2.7855,2.7756,2.7723,2.7855,2.7855,2.7842,2.8189,2.8287,2.832,2.8554,2.8587,2.8587,2.8587,2.8587,2.8587,2.8587,2.8587,2.8587,2.8587,2.8587,2.8587,2.8587,2.8587,2.8587,2.8587,2.8587,2.8587,2.8587,2.8587,2.8587,2.8587,2.8587,2.8587,2.8587,2.8587,2.8587,2.8587,2.8587,2.8587,2.8587,2.8587,2.8587,2.8587,2.8587,2.8587,2.8587,2.8587,2.8587,2.8587,2.8587,2.8587,2.8587,2.8587,2.8587,1.5368,1.7025,0.0,0.0,0.0,0.0,2.3523,0.0,0.0,0.0,2.7298,2.7664,2.7556,2.7339,2.7379,2.7963,2.8058,2.818,2.8546,2.8587,2.8587,2.8587,2.8587,2.8587,2.8587,2.8587,2.8587,2.8587,2.8587,2.8587,2.8587,2.8587,2.8587,2.8587,2.8587,2.8587,2.8587,2.8587,2.8587,2.8587,2.8587,2.8587,2.8587,2.8587,2.8587,2.8587,2.8587,2.8587,2.8587,2.8476,2.8562,2.8772,2.841,2.8308,2.8276,2.8197,2.8197,2.8151,2.7987,2.7934,2.7934,2.7934,2.7934,2.7954,2.8235,2.8287,2.832,2.8554,2.8587,2.8587,2.8587,2.8587,2.8587,2.8587,2.8587,2.8587,2.8587,2.8587,2.8587,2.8587,2.8587,2.8587,2.8587,2.8587,2.8587,2.8587,2.8587,2.8587,2.8587,2.8587,2.8587,2.8587,2.8587,2.8587,2.8587,2.8587,2.8587,2.8587,2.8587,2.8587,2.8587,2.8587,2.8587,2.8587,2.8587,2.8587,2.8587,2.8587,2.8587,2.8587,2.8587,2.8587,1.7105,0.0,0.0,0.0,0.0,0.0,2.5446,0.0,2.6022,2.6725,0.0,2.7881,2.8478,2.8153,2.7963,2.8505,2.8587,2.8587,2.8587,2.8587,2.8587,2.8587,2.8587,2.8587,2.8587,2.8587,2.8587,2.8587,2.8587,2.8587,2.8587,2.8587,2.8587,2.8587,2.8587,2.8587,2.8587,2.8587,2.8587,2.8587,2.8587,2.8587,2.8587,2.8587,2.8587,2.8587,2.8587,2.8587,2.8587,2.8587,2.8587,2.8587,2.8587,2.8587,2.8587,2.8398,2.832,2.83,2.8164,2.8112,2.8112,2.8112,2.8112,2.8145,2.8268,2.8287,2.832,2.8554,2.8587,2.8587,2.8587,2.8587,2.8587,2.8587,2.8587,2.8587,2.8587,2.8587,2.8587,2.8587,2.8587,2.8587,2.8587,2.8587,2.8587,2.8587,2.8587,2.8587,2.8587,2.8587,2.8587,2.8587,2.8587,2.8587,2.8587,2.8587,2.8587,2.8587,2.8587,2.8587,2.8587,2.8587,2.8587,2.8587,2.8587,2.8587,2.8587,2.8587,2.8587,2.8587,2.8587,2.8587,0.0,1.8053,0.0,0.0,0.0,0.0,2.5105,2.5195,2.5629,2.7203,2.7623,2.7881,2.8478,2.8478,2.8451,2.8573,2.8587,2.8587,2.8587,2.8587,2.8587,2.8587,2.8587,2.8587,2.8587,2.8587,2.8587,2.8587,2.8587,2.8587,2.8587,2.8587,2.8587,2.8587,2.8587,2.8587,2.8587,2.8587,2.8587,2.8587,2.8587,2.8587,2.8587,2.8587,2.8587,2.8587,2.8587,2.8587,2.8587,2.8587,2.8587,2.8587,2.8587,2.8587,2.8587,2.8554,2.8554,2.8509,2.8333,2.8268,2.8235,2.8131,2.8112,2.8145,2.8268,2.8287,2.832,2.8554,2.8587,2.8587,2.8587,2.8587,2.8587,2.8587,2.8587,2.8587,2.8587,2.8587,2.8587,2.8587,2.8587,2.8587,2.8587,2.8587,2.8587,2.8587,2.8587,2.8587,2.8587,2.8587,2.8587,2.8587,2.8587,2.8587,2.8587,2.8587,2.8587,2.8587,2.8587,2.8587,2.8587,2.8587,2.8587,2.8587,2.8587,2.8587,2.8587,2.8587,2.8587,2.8587,2.8587,2.8587,0.0,0.0,0.0,0.0,0.0,0.0,2.5064,2.5005,2.5358,2.6579,2.7311,2.7881,2.8478,2.8587,2.8587,2.8587,2.8587,2.8587,2.8587,2.8587,2.8587,2.8587,2.8587,2.8587,2.8587,2.8587,2.8587,2.8587,2.8587,2.8587,2.8587,2.8587,2.8587,2.8587,2.8587,2.8587,2.8587,2.8587,2.8587,2.8587,2.8587,2.8587,2.8587,2.8587,2.8587,2.8587,2.8587,2.8587,2.8587,2.8587,2.8587,2.8587,2.8587,2.8587,2.8587,2.8587,2.8587,2.8587,2.8476,2.843,2.8444,2.836,2.8341,2.836,2.8411,2.843,2.853,2.8926,2.9021,2.9122,2.9387,2.9455,2.9455,2.9455,2.9021,2.8587,2.8587,2.8587,2.8587,2.8587,2.8587,2.8587,2.8587,2.8587,2.8587,2.8587,2.8587,2.8587,2.8587,2.8587,2.8587,2.8587,2.8587,2.8587,2.8587,2.8587,2.8587,2.8587,2.8587,2.8587,2.8587,2.8587,2.8587,2.8587,2.8587,2.8587,2.8587,2.8587,2.8587,2.8587,2.8587,2.8587,0.0,0.0,0.0,0.0,0.0,0.0,2.5286,2.5174,2.5295,2.5794,2.6687,2.7569,2.818,2.837,2.8438,2.8438,2.8519,2.8587,2.8587,2.8587,2.8587,2.8587,2.8587,2.8587,2.8587,2.8587,2.8587,2.8587,2.8587,2.8587,2.8587,2.8587,2.8587,2.8587,2.8587,2.8587,2.8587,2.8587,2.8587,2.8587,2.8587,2.8587,2.8587,2.8587,2.8587,2.8587,2.8587,2.8587,2.8587,2.8587,2.8587,2.8587,2.8587,2.8587,2.8587,2.8587,2.8587,2.8587,2.8587,2.8587,2.8614,2.8709,2.8668,2.8627,2.8845,2.8831,2.8872,2.9502,2.9665,2.9754,3.0283,3.0405,3.0405,3.0405,2.9645,2.8872,2.8763,2.8831,2.8845,2.8627,2.8587,2.8587,2.8587,2.8587,2.8587,2.8587,2.8587,2.8587,2.8587,2.8587,2.8627,2.8736,2.875,2.875,2.875,2.875,2.8695,2.86,2.8587,2.8587,2.8587,2.8587,2.8587,2.8587,2.8587,2.8587,2.8587,2.8587,2.8587,2.8587,2.8587,2.8587,0.0,0.0,0.0,0.0,0.0,0.0,0.0,0.0,2.5786,0.0,2.6022,2.6321,2.6915,2.7488,2.7827,2.7827,2.8261,2.8587,2.8587,2.8587,2.8587,2.8587,2.8587,2.8587,2.8587,2.8587,2.8587,2.8587,2.8587,2.8587,2.8587,2.8587,2.8587,2.8587,2.8587,2.8587,2.8587,2.8587,2.8587,2.8587,2.8587,2.8587,2.8587,2.8587,2.8587,2.8587,2.8587,2.8587,2.8587,2.8587,2.8587,2.8587,2.8587,2.8587,2.8587,2.8587,2.8587,2.8587,2.8587,2.8587,2.8682,2.923,2.9021,2.879,2.9849,2.9781,2.9529,3.0106,3.0283,3.031,3.0391,3.0405,3.0405,3.0405,3.0283,3.0025,2.9482,2.9781,2.9849,2.879,2.8587,2.8587,2.8587,2.8587,2.8587,2.8587,2.8587,2.8587,2.8587,2.8587,2.879,2.9339,2.9393,2.9393,2.9393,2.9393,2.9176,2.8627,2.8587,2.8587,2.8587,2.8587,2.8587,2.8587,2.8587,2.8587,2.8587,2.8587,2.8587,2.8587,2.8587,2.8587,1.4295,0.0,0.0,0.0,0.0,0.0,2.5305,0.0,2.5312,2.5377,2.5398,2.5683,2.6616,2.7009,2.7186,2.7186,2.7434,2.7596,2.7596,2.7881,2.8098,2.8098,2.8383,2.8587,2.8587,2.8587,2.8587,2.8587,2.8587,2.8587,2.8587,2.8587,2.8587,2.8587,2.8587,2.8587,2.8587,2.8587,2.8587,2.8587,2.8587,2.8587,2.8587,2.8587,2.8587,2.8587,2.8587,2.8587,2.8587,2.8587,2.8587,2.8587,2.8587,2.8587,2.8587,2.8587,2.8587,2.8587,2.8587,2.8587,2.8695,2.9312,2.9339,2.9252,3.0147,3.0215,3.012,3.073,3.0907,3.0975,3.1314,3.1395,3.1395,3.1395,3.1395,3.1327,3.1078,3.069,3.0242,2.9713,2.9604,2.9604,2.9604,2.9604,2.9604,2.9604,2.9604,2.9604,2.9604,2.9604,2.9713,2.9971,2.9998,2.9998,2.9998,2.9998,2.974,2.9149,2.9122,2.894,2.86,2.8587,2.8587,2.8587,2.8587,2.8587,2.8587,2.8587,2.8587,2.8587,2.8587,2.8587,0.0,0.0,0.0,0.0,0.0,0.0,0.0,0.0,2.501,0.0,2.519,2.5504,2.6392,2.6573,2.6562,2.6562,2.6684,2.6793,2.6793,2.7172,2.7488,2.7488,2.8003,2.837,2.837,2.8505,2.8587,2.8587,2.8587,2.8587,2.8587,2.8587,2.8587,2.8587,2.8587,2.8587,2.8587,2.8587,2.8587,2.8587,2.8587,2.8587,2.8587,2.8587,2.8587,2.8587,2.8587,2.8587,2.8587,2.8587,2.8587,2.8587,2.8587,2.8587,2.8587,2.8587,2.8587,2.8587,2.8587,2.8587,2.8709,2.9469,2.9604,2.9678,3.0581,3.0758,3.0758,3.1355,3.1517,3.1612,3.2096,3.2218,3.2218,3.2218,3.2218,3.2218,3.2218,3.1246,3.0459,3.0608,3.0513,3.0405,3.0405,3.0405,3.0405,3.0405,3.0405,3.0405,3.0405,3.0405,3.0473,3.0622,3.0635,3.0635,3.0635,3.0635,3.0364,2.9754,2.9746,2.9509,2.9075,2.9048,2.9048,2.9048,2.8899,2.8736,2.8587,2.8587,2.8587,2.8587,2.875,2.8947,0.0,0.0,0.0,0.0,0.0,0.0,0.0,0.0,2.5494,2.5647,2.5763,2.5853,2.595,2.5962,2.5941,2.5941,2.6443,2.6793,2.6793,2.682,2.6847,2.6847,2.7393,2.7759,2.7759,2.8261,2.8587,2.8587,2.8587,2.8587,2.8587,2.8587,2.8587,2.8587,2.8587,2.8587,2.8587,2.8587,2.8587,2.8587,2.8587,2.8587,2.8587,2.8587,2.8587,2.8587,2.8587,2.8587,2.8587,2.8587,2.8587,2.8587,2.8587,2.8587,2.8587,2.8587,2.8587,2.8587,2.8587,2.8587,2.8777,2.9984,2.9957,2.9841,3.1594,3.1694,3.1368,3.2001,3.2164,3.2178,3.2205,3.2218,3.2218,3.2218,3.2218,3.2218,3.2218,3.1246,3.0581,3.1137,3.0798,3.0405,3.0405,3.0405,3.0405,3.0405,3.0405,3.0405,3.0405,3.0405,3.0622,3.1192,3.1246,3.1246,3.1246,3.1246,3.0988,3.0405,3.0364,3.0351,3.031,3.031,3.031,3.031,2.9726,2.919,2.8587,2.8587,2.8587,2.86,2.9203,2.9843,0.0,0.0,0.0,0.0,0.0,2.0763,2.2243,2.3427,2.4252,2.4375,2.5146,2.5773,2.5773,2.5535,2.5317,2.5317,2.5507,2.5627,2.5627,2.5982,2.6226,2.6226,2.6769,2.7104,2.7104,2.7678,2.8017,2.8017,2.837,2.8587,2.8587,2.8587,2.8587,2.8587,2.8587,2.8587,2.8587,2.8587,2.8587,2.8587,2.8587,2.8587,2.8587,2.8587,2.8587,2.8587,2.8587,2.8587,2.8587,2.8587,2.8587,2.8587,2.8587,2.8587,2.8587,2.8587,2.8587,2.8587,2.8587,2.8587,2.879,3.0011,3.0256,3.0337,3.1784,3.2069,3.1897,3.2151,3.2218,3.2218,3.2218,3.2218,3.2218,3.2218,3.2218,3.2218,3.2218,3.1843,3.1612,3.1829,3.168,3.1544,3.1544,3.1544,3.1544,3.1544,3.1544,3.1544,3.1544,3.1544,3.1626,3.1829,3.187,3.187,3.187,3.187,3.1612,3.1015,3.0975,3.0798,3.0432,3.0405,3.0631,3.109,3.0412,2.9767,2.919,2.8777,2.879,2.919,2.9872,3.055,1.0303,0.0,0.0,0.0,0.0,1.8268,2.0843,0.0,2.2709,2.3711,2.4655,2.5375,2.5594,2.5239,2.4997,2.5245,2.5118,2.5005,2.5005,2.5344,2.5602,2.5602,2.6131,2.6511,2.6511,2.7054,2.742,2.742,2.7773,2.8003,2.8003,2.8193,2.8383,2.8587,2.8587,2.8587,2.8587,2.8587,2.8587,2.8587,2.8587,2.8587,2.8587,2.8587,2.8587,2.8587,2.8587,2.8554,2.8509,2.8554,2.8554,2.8509,2.8554,2.8587,2.8587,2.8587,2.8587,2.8587,2.8587,2.8587,2.8763,2.9767,3.0242,3.0595,3.1585,3.2055,3.2218,3.2218,3.2218,3.2218,3.2218,3.2218,3.2218,3.2218,3.2218,3.2218,3.2218,3.2218,3.2218,3.2218,3.2218,3.2218,3.2218,3.2218,3.2218,3.2218,3.2218,3.2218,3.2218,3.2218,3.2218,3.2218,3.2218,3.2218,3.2218,3.2218,3.2042,3.1612,3.1585,3.1409,3.1015,3.1002,3.1323,3.2067,3.1377,3.0835,3.0457,2.9615,2.9401,2.9828,3.0759,3.1641,0.0,0.0,0.0,0.0,0.0,0.0,2.0087,0.0,2.0965,2.364,2.4297,2.4627,2.5337,2.5028,2.4963,2.5775,2.5384,2.502,2.5033,2.5005,2.5005,2.5005,2.552,2.586,2.586,2.643,2.6766,2.6766,2.6779,2.6793,2.6793,2.7379,2.7976,2.8546,2.8587,2.8587,2.8587,2.8587,2.8587,2.8587,2.8587,2.8587,2.8587,2.8587,2.8587,2.8587,2.8587,2.8476,2.832,2.8522,2.8476,2.832,2.8509,2.8587,2.8587,2.8587,2.8587,2.8587,2.8587,2.8587,2.8695,2.9312,2.9889,3.05,3.111,3.1694,3.2191,3.2205,3.2218,3.2218,3.2218,3.2218,3.2218,3.2218,3.2218,3.2218,3.2218,3.2218,3.2218,3.2218,3.2218,3.2218,3.2218,3.2218,3.2218,3.2218,3.2218,3.2218,3.2218,3.2218,3.2218,3.2218,3.2218,3.2218,3.2218,3.2218,3.2218,3.2218,3.2218,3.2218,3.2218,3.2241,3.2574,3.3213,3.2672,3.2362,3.2396,3.1076,3.0418,3.0446,3.1832,3.3109,1.0096,0.0,0.0,0.0,0.0,0.0,0.0,0.0,1.8684,2.0949,2.1823,2.269,2.4338,2.4582,2.4773,2.5502,2.5194,2.5037,2.5577,2.5286,2.5005,2.5005,2.5154,2.5249,2.5249,2.5792,2.6145,2.6145,2.6535,2.6793,2.6793,2.7379,2.7786,2.7949,2.837,2.8587,2.8587,2.8587,2.8587,2.8587,2.8587,2.8587,2.8587,2.8587,2.8587,2.8587,2.8587,2.8476,2.832,2.8522,2.8554,2.8509,2.8587,2.8587,2.8587,2.8587,2.8587,2.8587,2.8587,2.8587,2.8695,2.9312,2.9591,2.993,3.0975,3.1409,3.1626,3.2096,3.2218,3.2218,3.2218,3.2218,3.2218,3.2218,3.2218,3.2218,3.2218,3.2218,3.2218,3.2218,3.2218,3.2218,3.2218,3.2218,3.2218,3.2218,3.2218,3.2218,3.2218,3.2218,3.2218,3.2218,3.2218,3.2218,3.2218,3.2218,3.2218,3.2218,3.2668,3.2704,3.2218,3.3185,3.3817,3.4007,3.3835,3.4018,3.4548,3.2302,3.1157,3.1091,3.2913,3.4253,0.0,0.0,0.0,0.0,0.0,0.0,1.6532,1.6686,1.7115,1.9748,2.0595,2.1411,2.3148,2.3534,2.3891,2.4828,2.4582,2.4604,2.5661,2.5525,2.5299,2.5356,2.537,2.537,2.537,2.546,2.5636,2.5893,2.6005,2.6142,2.6416,2.6769,2.7176,2.7691,2.8044,2.8343,2.8587,2.8587,2.8587,2.8587,2.8587,2.8587,2.8587,2.8587,2.8587,2.8587,2.8587,2.8541,2.843,2.8554,2.8554,2.8476,2.8554,2.8587,2.8587,2.8587,2.8587,2.8587,2.8587,2.8587,2.8655,2.8994,2.9298,2.9638,3.0358,3.0717,3.1002,3.1341,3.1612,3.187,3.2151,3.2218,3.2218,3.2218,3.2218,3.2218,3.2218,3.2218,3.2218,3.2218,3.2218,3.2218,3.2218,3.2218,3.2218,3.2218,3.2218,3.2218,3.2218,3.2218,3.2218,3.2218,3.2218,3.2218,3.2218,3.2218,3.2218,3.2218,3.2832,3.3017,3.2632,3.3402,3.4129,3.4747,3.4447,3.4647,3.54,3.3554,3.2796,3.303,3.4205,3.5157,0.0,0.0,0.0,0.0,1.4901,0.0,1.7147,1.6486,1.616,1.9116,1.9732,2.0164,2.1578,2.1901,2.2413,2.3748,2.3697,2.3985,2.5481,2.5633,2.5621,2.5747,2.571,2.5711,2.5781,2.5315,2.5231,2.5852,2.5397,2.5293,2.5765,2.5846,2.6389,2.7474,2.7637,2.7963,2.8478,2.856,2.8587,2.8587,2.8587,2.8587,2.8587,2.8587,2.8587,2.8587,2.8587,2.8587,2.8587,2.8587,2.8476,2.8365,2.8522,2.8587,2.8587,2.8587,2.8587,2.8587,2.8587,2.8587,2.8587,2.8587,2.894,2.942,2.9488,2.9862,3.031,3.0391,3.0839,3.1409,3.1938,3.2164,3.2218,3.2218,3.2218,3.2218,3.2218,3.2218,3.2218,3.2218,3.2218,3.2218,3.2218,3.2218,3.2218,3.2218,3.2218,3.2218,3.2218,3.2218,3.2218,3.2314,3.2241,3.2241,3.2408,3.2277,3.2277,3.2408,3.2995,3.3318,3.3318,3.3492,3.4129,3.5367,3.4846,3.4861,3.5529,3.4714,3.4681,3.54,3.54,3.5816,1.5947,1.6502,1.7085,1.5731,0.0,0.0,1.5316,1.5516,1.6039,1.6176,1.6207,1.6762,1.8653,1.9501,2.0335,2.1673,2.2701,2.3846,2.5325,2.5165,2.4904,2.4934,2.4555,2.4495,2.4959,2.5015,2.5251,2.5851,2.5784,2.555,2.5196,2.5629,2.5995,2.624,2.7203,2.7773,2.7881,2.8356,2.8587,2.8587,2.8587,2.8587,2.8587,2.8587,2.8587,2.8587,2.8587,2.8587,2.8587,2.8587,2.8587,2.8554,2.8587,2.8587,2.8587,2.8587,2.8587,2.8587,2.8587,2.8587,2.8587,2.8587,2.8668,2.8858,2.9366,2.9597,2.9767,3.0269,3.0839,3.1327,3.1436,3.1829,3.2218,3.2218,3.2218,3.2218,3.2218,3.2218,3.2218,3.2218,3.2218,3.2218,3.2218,3.2218,3.2218,3.2218,3.2218,3.2218,3.2218,3.2218,3.2408,3.296,3.2538,3.2646,3.3782,3.2846,3.2682,3.3817,3.4007,3.4109,3.4109,3.5237,3.5705,3.54,3.5847,3.6148,3.6289,3.496,3.4681,3.54,3.54,3.5816,1.8023,1.8238,1.8592,1.79,0.0,0.0,0.0,1.6468,1.65,1.753,1.693,1.6823,1.8868,1.927,1.9626,2.0643,2.1658,2.2562,2.3294,2.4034,2.4535,2.459,2.436,2.4225,2.4294,2.4622,2.5115,2.5743,2.5873,2.5784,2.5481,2.5461,2.5588,2.5873,2.6484,2.7094,2.7691,2.8003,2.8302,2.8587,2.8587,2.8587,2.8587,2.8587,2.8587,2.8587,2.8587,2.8587,2.8587,2.8587,2.8587,2.8587,2.8587,2.8587,2.8587,2.8587,2.8587,2.8587,2.8587,2.8587,2.8587,2.8587,2.8587,2.8655,2.894,2.9034,2.919,2.9767,3.0391,3.092,3.1219,3.1734,3.2218,3.2218,3.2218,3.2218,3.2218,3.2218,3.2218,3.2218,3.2218,3.2218,3.2218,3.2218,3.2218,3.2218,3.2218,3.2218,3.2218,3.2503,3.2832,3.3143,3.3241,3.3541,3.4245,3.3644,3.3541,3.4245,3.4647,3.4846,3.4846,3.5576,3.5769,3.54,3.6116,3.6492,3.6492,3.5769,3.5608,3.5943,3.5943,3.6148,0.0,0.0,0.0,0.0,0.0,1.913,0.0,0.0,0.0,1.9162,1.8284,0.0,0.0,0.0,1.9116,1.9794,2.058,2.1057,2.0934,2.232,2.3463,2.3838,2.3924,2.3904,2.3768,2.4185,2.481,2.5587,2.563,2.5645,2.5697,2.5453,2.5435,2.5726,2.5935,2.6535,2.7528,2.7651,2.8003,2.8587,2.8587,2.8587,2.8587,2.8702,2.8716,2.8619,2.8702,2.8716,2.8587,2.8587,2.8587,2.8587,2.8587,2.8587,2.8587,2.8587,2.8587,2.8587,2.8587,2.8587,2.8587,2.8587,2.8587,2.8587,2.8587,2.8587,2.8695,2.9203,2.9835,3.0513,3.1002,3.1653,3.2218,3.2218,3.2314,3.2336,3.2218,3.2314,3.2336,3.2218,3.2218,3.2218,3.2218,3.2218,3.2218,3.2218,3.2218,3.2241,3.2372,3.2868,3.3318,3.3596,3.4041,3.4413,3.4714,3.448,3.4413,3.4714,3.5157,3.5464,3.5608,3.5608,3.5608,3.5608,3.6179,3.6492,3.6492,3.6492,3.6492,3.6492,3.6492,3.6492,0.0,0.0,0.0,0.0,2.1535,0.0,0.0,0.0,1.9224,1.71,0.0,0.0,0.0,0.0,0.0,1.833,1.9546,2.0212,1.961,1.9718,2.03,2.1523,2.1816,2.2345,2.3443,2.3599,2.4171,2.5429,2.4987,2.4742,2.4927,2.5928,2.6082,2.5128,2.6061,2.6713,2.6888,2.7447,2.8003,2.8587,2.8587,2.8587,2.8619,2.9156,2.9107,2.8619,2.917,2.9075,2.8587,2.8587,2.8587,2.8587,2.8587,2.8587,2.8587,2.8587,2.8587,2.8587,2.8587,2.8587,2.8587,2.8587,2.8587,2.8587,2.8587,2.8587,2.86,2.8668,2.9523,3.0432,3.0486,3.1341,3.2218,3.2218,3.2632,3.2925,3.235,3.2668,3.2889,3.2314,3.2218,3.2218,3.2218,3.2218,3.2218,3.2218,3.2218,3.2408,3.303,3.3157,3.3699,3.5026,3.4647,3.4813,3.6148,3.5059,3.4846,3.6179,3.5705,3.5705,3.6352,3.6398,3.6398,3.6398,3.646,3.6492,3.6492,3.6492,3.6492,3.6492,3.6492,3.6492,0.0,0.0,0.0,0.0,0.0,0.0,2.0054,1.9655,1.961,1.9239,0.0,0.0,0.0,0.0,0.0,0.0,1.8699,1.8715,1.7638,1.7838,1.8577,1.998,1.9854,2.0306,2.2055,2.2335,2.2909,2.4134,2.4026,2.4295,2.5159,2.5778,2.6093,2.5986,2.6458,2.672,2.6739,2.7347,2.7786,2.8085,2.8797,2.9139,2.9139,2.978,2.9934,2.9701,2.9964,2.9934,2.9701,2.9701,2.9701,2.9701,2.9701,2.9261,2.8587,2.8587,2.8587,2.8587,2.8587,2.8587,2.8587,2.8587,2.8587,2.8587,2.8587,2.8587,2.8752,2.9532,3.008,3.0576,3.1302,3.1836,3.2314,3.2704,3.2995,3.3248,3.3381,3.363,3.3768,3.3471,3.3416,3.3416,3.3416,3.3066,3.2797,3.2797,3.3136,3.3367,3.3213,3.3973,3.4714,3.532,3.5497,3.5847,3.646,3.5943,3.5847,3.646,3.6211,3.6179,3.6492,3.6492,3.6492,3.6492,3.6492,3.6492,3.6492,3.6492,3.6492,3.6492,3.6492,3.6492,2.2948,2.3332,2.3594,2.2548,2.2305,2.2089,2.1227,2.0549,2.0287,2.0888,2.0116,0.0,0.0,0.0,0.0,0.0,0.0,1.7731,1.6379,1.6455,1.71,1.8315,1.8484,1.91,2.0595,2.0688,2.1239,2.2651,2.2672,2.3314,2.4881,2.5547,2.6054,2.6428,2.6747,2.6929,2.6961,2.7371,2.7817,2.8204,2.9099,2.9596,2.9797,3.048,3.0673,3.0524,3.0703,3.0673,3.0494,3.0494,3.0494,3.0494,3.0494,2.9948,2.9103,2.8912,2.8734,2.8587,2.8587,2.8587,2.8587,2.8587,2.8587,2.8587,2.8587,2.8709,2.9075,3.0265,3.0735,3.1185,3.2289,3.2674,3.2903,3.3402,3.3665,3.3891,3.4245,3.4447,3.4547,3.4346,3.4312,3.438,3.4581,3.4007,3.3492,3.3492,3.3973,3.4177,3.3837,3.4747,3.5464,3.5672,3.6179,3.6492,3.6492,3.6492,3.6492,3.6492,3.6492,3.6492,3.6492,3.6492,3.6492,3.6492,3.6492,3.6492,3.6492,3.6492,3.6492,3.6492,3.6492,3.6492,2.461,2.4733,2.4758,2.2778,2.2305,2.1951,2.0626,2.1304,2.1858,2.0597,2.1304,2.1797,2.0518,0.0,0.0,0.0,0.0,0.0,0.0,1.567,1.5516,1.6223,1.8053,1.9287,1.9364,1.873,1.916,2.1211,2.078,2.1325,2.3455,2.5347,2.6188,2.5749,2.687,2.7495,2.7556,2.7585,2.8221,2.945,2.9464,2.9826,3.0494,3.1146,3.1116,3.0554,3.119,3.1087,3.0494,3.0494,3.0494,3.0494,3.0494,3.0494,3.0359,2.9704,2.9107,2.8587,2.8587,2.8587,2.8587,2.8587,2.8587,2.8587,2.8587,2.8994,2.964,3.0377,3.1378,3.2408,3.3157,3.38,3.4245,3.4279,3.4813,3.5124,3.4447,3.4846,3.5157,3.4447,3.4312,3.4547,3.5222,3.4747,3.4279,3.4279,3.4279,3.4547,3.5222,3.5367,3.5672,3.6383,3.6492,3.6492,3.6492,3.6492,3.6492,3.6492,3.6492,3.6492,3.6492,3.6492,3.6492,3.6492,3.6492,3.6492,3.6492,3.6492,3.6492,3.6492,3.6492,3.6492,2.5687,2.618,2.6195,2.4133,2.3625,2.3148,2.1365,2.1658,2.192,2.0582,2.1365,2.1889,2.0551,0.0,0.0,0.0,0.0,0.0,0.0,1.459,1.4129,0.0,0.0,0.0,1.7253,1.7408,1.8007,1.9161,1.9486,2.0525,2.2604,2.4581,2.5824,2.6149,2.7422,2.7901,2.7536,2.7938,2.8372,2.8913,2.9778,3.0524,3.1175,3.1823,3.1964,3.1779,3.1992,3.1964,3.1751,3.1751,3.1751,3.1751,3.1751,3.1522,3.1087,3.0419,3.0025,2.9856,2.9856,2.9856,2.9794,2.9345,2.9188,2.9303,2.9798,3.0062,3.0642,3.2611,3.31,3.3291,3.4419,3.4519,3.4413,3.4912,3.5222,3.5464,3.5705,3.5943,3.6053,3.58,3.5769,3.5847,3.607,3.5911,3.5593,3.5091,3.5432,3.5672,3.5432,3.5847,3.6211,3.646,3.6492,3.6492,3.6492,3.6492,3.6492,3.6492,3.6492,3.6492,3.6492,3.6492,3.6492,3.6492,3.6492,3.6492,3.6492,3.6492,3.6492,3.6492,3.6492,3.6492,2.6395,2.6888,2.6965,2.5133,2.4671,2.4133,2.212,2.2347,2.2644,2.1288,2.1704,2.2178,2.1797,2.0412,0.0,0.0,0.0,0.0,0.0,1.4313,0.0,0.0,0.0,0.0,0.0,1.6286,1.6823,1.8469,1.8361,1.9286,2.1812,2.3394,2.4779,2.5964,2.7103,2.7721,2.782,2.8218,2.8554,2.8907,2.9958,3.0812,3.1475,3.2109,3.2398,3.2398,3.2398,3.2398,3.2398,3.2398,3.2398,3.2398,3.2398,3.216,3.1737,3.1087,3.0689,3.0494,3.0494,3.0494,3.0419,3.0011,2.9858,3.0003,3.072,3.1062,3.1717,3.3893,3.4322,3.4363,3.5488,3.5432,3.519,3.5672,3.58,3.5911,3.6383,3.6492,3.6492,3.6492,3.6492,3.6492,3.6492,3.6492,3.6352,3.5879,3.6179,3.632,3.5847,3.6211,3.6492,3.6492,3.6492,3.6492,3.6492,3.6492,3.6492,3.6492,3.6492,3.6492,3.6492,3.6492,3.6492,3.6492,3.6492,3.6492,3.6492,3.6492,3.6492,3.6492,3.6492,3.6492]}]]